<?xml version='1.0' encoding='UTF-8'?><gpx version="1.1" creator="JPX - https://github.com/jenetics/jpx" xmlns="http://www.topografix.com/GPX/1/1"><trk><trkseg><trkpt lat="44.39570485723902" lon="11.36672236668949"><ele>237.99999999999997</ele><time>2026-05-01T13:34:35.999Z</time></trkpt><trkpt lat="44.395645081239834" lon="11.366646407108272"><ele>238.0</ele><time>2026-05-01T13:34:38.999Z</time></trkpt><trkpt lat="44.395597164135644" lon="11.366568342110625"><ele>238.0</ele><time>2026-05-01T13:34:40.999Z</time></trkpt><trkpt lat="44.39554953066713" lon="11.366466543749912"><ele>238.0</ele><time>2026-05-01T13:34:42.999Z</time></trkpt><trkpt lat="44.39550529487206" lon="11.366370222172018"><ele>237.99999999999997</ele><time>2026-05-01T13:34:44.999Z</time></trkpt><trkpt lat="44.39544970872109" lon="11.36626903685943"><ele>238.0</ele><time>2026-05-01T13:34:46.999Z</time></trkpt><trkpt lat="44.39540744688214" lon="11.366198036622727"><ele>238.4</ele><time>2026-05-01T13:34:47.999Z</time></trkpt><trkpt lat="44.39535383792358" lon="11.36609949982324"><ele>238.8</ele><time>2026-05-01T13:34:48.999Z</time></trkpt><trkpt lat="44.39530555124896" lon="11.366009659095543"><ele>239.2</ele><time>2026-05-01T13:34:49.999Z</time></trkpt><trkpt lat="44.395248535672614" lon="11.365904432312805"><ele>239.6</ele><time>2026-05-01T13:34:50.999Z</time></trkpt><trkpt lat="44.395180838005366" lon="11.365771494830279"><ele>240.0</ele><time>2026-05-01T13:34:51.999Z</time></trkpt><trkpt lat="44.39510599142096" lon="11.365631405459057"><ele>241.0</ele><time>2026-05-01T13:34:52.999Z</time></trkpt><trkpt lat="44.39502865683207" lon="11.365489626740882"><ele>242.0</ele><time>2026-05-01T13:34:53.999Z</time></trkpt><trkpt lat="44.394956711188165" lon="11.36535088941798"><ele>243.0</ele><time>2026-05-01T13:34:54.999Z</time></trkpt><trkpt lat="44.39487531250611" lon="11.365198487241136"><ele>244.0</ele><time>2026-05-01T13:34:55.999Z</time></trkpt><trkpt lat="44.39479083340552" lon="11.365043528076532"><ele>244.0</ele><time>2026-05-01T13:34:56.999Z</time></trkpt><trkpt lat="44.394706548305315" lon="11.364887523195598"><ele>244.0</ele><time>2026-05-01T13:34:57.999Z</time></trkpt><trkpt lat="44.394637139464834" lon="11.36475413966192"><ele>244.0</ele><time>2026-05-01T13:34:58.999Z</time></trkpt><trkpt lat="44.39457416541015" lon="11.364632851077248"><ele>244.0</ele><time>2026-05-01T13:35:00Z</time></trkpt><trkpt lat="44.39451171337555" lon="11.364512779881837"><ele>244.25</ele><time>2026-05-01T13:35:01Z</time></trkpt><trkpt lat="44.39444708571757" lon="11.364393802799423"><ele>244.5</ele><time>2026-05-01T13:35:02Z</time></trkpt><trkpt lat="44.394379980593925" lon="11.364261559221378"><ele>244.75</ele><time>2026-05-01T13:35:03Z</time></trkpt><trkpt lat="44.39431537127016" lon="11.364110788251947"><ele>245.0</ele><time>2026-05-01T13:35:04Z</time></trkpt><trkpt lat="44.394261731257906" lon="11.363935499206477"><ele>245.5</ele><time>2026-05-01T13:35:05Z</time></trkpt><trkpt lat="44.394225425656714" lon="11.363737358658625"><ele>246.0</ele><time>2026-05-01T13:35:06Z</time></trkpt><trkpt lat="44.39423584800638" lon="11.363526574865592"><ele>246.5</ele><time>2026-05-01T13:35:07Z</time></trkpt><trkpt lat="44.3942315822438" lon="11.363315790064126"><ele>247.0</ele><time>2026-05-01T13:35:08Z</time></trkpt><trkpt lat="44.394246869888065" lon="11.36311187108593"><ele>247.33333333333331</ele><time>2026-05-01T13:35:09Z</time></trkpt><trkpt lat="44.39425701371765" lon="11.362898015946698"><ele>247.66666666666669</ele><time>2026-05-01T13:35:10Z</time></trkpt><trkpt lat="44.39426812966779" lon="11.362676897430925"><ele>248.0</ele><time>2026-05-01T13:35:11Z</time></trkpt><trkpt lat="44.39428123724298" lon="11.362463281792225"><ele>248.0</ele><time>2026-05-01T13:35:12Z</time></trkpt><trkpt lat="44.394291420228456" lon="11.362255531679187"><ele>248.0</ele><time>2026-05-01T13:35:13Z</time></trkpt><trkpt lat="44.394304738445385" lon="11.362044659404706"><ele>248.0</ele><time>2026-05-01T13:35:14Z</time></trkpt><trkpt lat="44.39431724509577" lon="11.361822884307381"><ele>249.5</ele><time>2026-05-01T13:35:15Z</time></trkpt><trkpt lat="44.394330849351114" lon="11.361611546656018"><ele>251.0</ele><time>2026-05-01T13:35:16Z</time></trkpt><trkpt lat="44.3943457796794" lon="11.361407528730215"><ele>252.5</ele><time>2026-05-01T13:35:17Z</time></trkpt><trkpt lat="44.39435989064349" lon="11.36121638442141"><ele>254.0</ele><time>2026-05-01T13:35:18Z</time></trkpt><trkpt lat="44.394365660112236" lon="11.361020716256977"><ele>255.0</ele><time>2026-05-01T13:35:19Z</time></trkpt><trkpt lat="44.39436058210432" lon="11.360817644436475"><ele>256.0</ele><time>2026-05-01T13:35:20Z</time></trkpt><trkpt lat="44.3943464577077" lon="11.36061233337851"><ele>257.0</ele><time>2026-05-01T13:35:21Z</time></trkpt><trkpt lat="44.39432319328425" lon="11.360410759794679"><ele>258.0</ele><time>2026-05-01T13:35:22Z</time></trkpt><trkpt lat="44.39428888846272" lon="11.360208804626906"><ele>258.5</ele><time>2026-05-01T13:35:23Z</time></trkpt><trkpt lat="44.39425050995117" lon="11.360011659929508"><ele>259.0</ele><time>2026-05-01T13:35:23.997Z</time></trkpt><trkpt lat="44.39422133833218" lon="11.359822174158921"><ele>259.5</ele><time>2026-05-01T13:35:24.997Z</time></trkpt><trkpt lat="44.39420135317027" lon="11.35962332131658"><ele>260.0</ele><time>2026-05-01T13:35:25.997Z</time></trkpt><trkpt lat="44.3941974121291" lon="11.359421047195429"><ele>260.6666666666667</ele><time>2026-05-01T13:35:26.997Z</time></trkpt><trkpt lat="44.3942079560396" lon="11.35921531838786"><ele>261.3333333333333</ele><time>2026-05-01T13:35:27.997Z</time></trkpt><trkpt lat="44.39424322935322" lon="11.35900494925751"><ele>262.0</ele><time>2026-05-01T13:35:28.997Z</time></trkpt><trkpt lat="44.394254505102516" lon="11.358787324640309"><ele>263.0</ele><time>2026-05-01T13:35:29.997Z</time></trkpt><trkpt lat="44.39428540690576" lon="11.358568722638921"><ele>264.0</ele><time>2026-05-01T13:35:30.998Z</time></trkpt><trkpt lat="44.39432133393791" lon="11.35835851795778"><ele>265.0</ele><time>2026-05-01T13:35:31.998Z</time></trkpt><trkpt lat="44.39438318549345" lon="11.358157644765326"><ele>267.0</ele><time>2026-05-01T13:35:32.998Z</time></trkpt><trkpt lat="44.39442943242136" lon="11.357948761517257"><ele>269.0</ele><time>2026-05-01T13:35:33.998Z</time></trkpt><trkpt lat="44.39450763827649" lon="11.35775491846438"><ele>271.0</ele><time>2026-05-01T13:35:34.998Z</time></trkpt><trkpt lat="44.39457243125759" lon="11.357557588094297"><ele>271.0</ele><time>2026-05-01T13:35:35.998Z</time></trkpt><trkpt lat="44.39462414163597" lon="11.35734861697217"><ele>271.0</ele><time>2026-05-01T13:35:36.998Z</time></trkpt><trkpt lat="44.39468722696677" lon="11.357160749505278"><ele>271.0</ele><time>2026-05-01T13:35:37.998Z</time></trkpt><trkpt lat="44.394777386861314" lon="11.356999762417226"><ele>270.3333333333333</ele><time>2026-05-01T13:35:38.998Z</time></trkpt><trkpt lat="44.39487536356393" lon="11.356840595204002"><ele>269.6666666666667</ele><time>2026-05-01T13:35:39.998Z</time></trkpt><trkpt lat="44.39499582086302" lon="11.356695113670206"><ele>269.0</ele><time>2026-05-01T13:35:40.998Z</time></trkpt><trkpt lat="44.39512321092074" lon="11.356557598392172"><ele>269.0</ele><time>2026-05-01T13:35:41.998Z</time></trkpt><trkpt lat="44.39522992686171" lon="11.35642550348061"><ele>269.0</ele><time>2026-05-01T13:35:42.999Z</time></trkpt><trkpt lat="44.39533913890163" lon="11.356324175359745"><ele>269.0</ele><time>2026-05-01T13:35:43.999Z</time></trkpt><trkpt lat="44.395446419114506" lon="11.356221790203907"><ele>269.0</ele><time>2026-05-01T13:35:44.999Z</time></trkpt><trkpt lat="44.39556741759723" lon="11.356151648929446"><ele>268.5</ele><time>2026-05-01T13:35:45.999Z</time></trkpt><trkpt lat="44.39568288443712" lon="11.356052370131303"><ele>268.0</ele><time>2026-05-01T13:35:46.999Z</time></trkpt><trkpt lat="44.39580630216746" lon="11.355973923609008"><ele>267.5</ele><time>2026-05-01T13:35:47.999Z</time></trkpt><trkpt lat="44.39591948922818" lon="11.35590248575609"><ele>267.0</ele><time>2026-05-01T13:35:48.999Z</time></trkpt><trkpt lat="44.396020431999524" lon="11.355849461260085"><ele>267.0</ele><time>2026-05-01T13:35:49.999Z</time></trkpt><trkpt lat="44.396104048418366" lon="11.355805466665036"><ele>267.0</ele><time>2026-05-01T13:35:50.999Z</time></trkpt><trkpt lat="44.39616279292601" lon="11.35577330420777"><ele>267.0</ele><time>2026-05-01T13:35:51.999Z</time></trkpt><trkpt lat="44.39624042007078" lon="11.355707234339135"><ele>267.0</ele><time>2026-05-01T13:35:53.999Z</time></trkpt><trkpt lat="44.39631730732593" lon="11.3556380134382"><ele>267.0</ele><time>2026-05-01T13:35:55.999Z</time></trkpt><trkpt lat="44.39638566707456" lon="11.355509307903523"><ele>267.0</ele><time>2026-05-01T13:35:57.999Z</time></trkpt><trkpt lat="44.39634525085303" lon="11.355378670587916"><ele>266.4</ele><time>2026-05-01T13:36:00Z</time></trkpt><trkpt lat="44.39622490752023" lon="11.355281112044102"><ele>265.79999999999995</ele><time>2026-05-01T13:36:02Z</time></trkpt><trkpt lat="44.39613854438054" lon="11.355234942245335"><ele>265.2</ele><time>2026-05-01T13:36:03Z</time></trkpt><trkpt lat="44.39604397944154" lon="11.355194596197151"><ele>264.59999999999997</ele><time>2026-05-01T13:36:04Z</time></trkpt><trkpt lat="44.395938633909864" lon="11.355160479906557"><ele>264.0</ele><time>2026-05-01T13:36:05Z</time></trkpt><trkpt lat="44.39582378444706" lon="11.35511962559241"><ele>264.0</ele><time>2026-05-01T13:36:06Z</time></trkpt><trkpt lat="44.39571957859526" lon="11.355027517035891"><ele>264.0</ele><time>2026-05-01T13:36:07Z</time></trkpt><trkpt lat="44.395614257812596" lon="11.35493146005906"><ele>264.0</ele><time>2026-05-01T13:36:08Z</time></trkpt><trkpt lat="44.39550366669" lon="11.354840312357329"><ele>264.0</ele><time>2026-05-01T13:36:09Z</time></trkpt><trkpt lat="44.39539738761627" lon="11.354739766876047"><ele>260.25</ele><time>2026-05-01T13:36:10Z</time></trkpt><trkpt lat="44.39529421564478" lon="11.35463602995053"><ele>256.5</ele><time>2026-05-01T13:36:11Z</time></trkpt><trkpt lat="44.395192333900354" lon="11.354539663148028"><ele>252.75</ele><time>2026-05-01T13:36:12Z</time></trkpt><trkpt lat="44.39509442999517" lon="11.354453678553435"><ele>249.0</ele><time>2026-05-01T13:36:13Z</time></trkpt><trkpt lat="44.39500143853536" lon="11.35436548722592"><ele>249.0</ele><time>2026-05-01T13:36:14Z</time></trkpt><trkpt lat="44.39491283028944" lon="11.35427346987718"><ele>248.99999999999997</ele><time>2026-05-01T13:36:15Z</time></trkpt><trkpt lat="44.39483409553211" lon="11.354172481469934"><ele>248.99999999999997</ele><time>2026-05-01T13:36:16Z</time></trkpt><trkpt lat="44.39476987712468" lon="11.354060237282763"><ele>249.0</ele><time>2026-05-01T13:36:17Z</time></trkpt><trkpt lat="44.394721212915826" lon="11.3539362043296"><ele>249.0</ele><time>2026-05-01T13:36:18Z</time></trkpt><trkpt lat="44.39468028686156" lon="11.353812485978517"><ele>247.0</ele><time>2026-05-01T13:36:19Z</time></trkpt><trkpt lat="44.394626465031195" lon="11.35370489857903"><ele>244.99999999999997</ele><time>2026-05-01T13:36:20Z</time></trkpt><trkpt lat="44.39455547768525" lon="11.353623870054232"><ele>242.99999999999997</ele><time>2026-05-01T13:36:21Z</time></trkpt><trkpt lat="44.394470917750915" lon="11.353574050509023"><ele>241.0</ele><time>2026-05-01T13:36:22Z</time></trkpt><trkpt lat="44.39437350734992" lon="11.353554791634798"><ele>239.0</ele><time>2026-05-01T13:36:23Z</time></trkpt><trkpt lat="44.39427520050336" lon="11.353572981430434"><ele>239.0</ele><time>2026-05-01T13:36:24Z</time></trkpt><trkpt lat="44.39417708283838" lon="11.35363160811944"><ele>238.99999999999997</ele><time>2026-05-01T13:36:25Z</time></trkpt><trkpt lat="44.394076838776215" lon="11.353634284950578"><ele>238.99999999999997</ele><time>2026-05-01T13:36:26.001Z</time></trkpt><trkpt lat="44.39397465157938" lon="11.353615705344321"><ele>239.0</ele><time>2026-05-01T13:36:27.001Z</time></trkpt><trkpt lat="44.39388322598843" lon="11.353530713132109"><ele>239.0</ele><time>2026-05-01T13:36:28.001Z</time></trkpt><trkpt lat="44.39378331589072" lon="11.353425260236527"><ele>239.2</ele><time>2026-05-01T13:36:29.001Z</time></trkpt><trkpt lat="44.39367623493226" lon="11.353325290716095"><ele>239.39999999999998</ele><time>2026-05-01T13:36:30.001Z</time></trkpt><trkpt lat="44.39357950241102" lon="11.353219787668877"><ele>239.6</ele><time>2026-05-01T13:36:31.001Z</time></trkpt><trkpt lat="44.39350145071222" lon="11.353139952798575"><ele>239.8</ele><time>2026-05-01T13:36:32.001Z</time></trkpt><trkpt lat="44.39342552744644" lon="11.353087501349428"><ele>240.0</ele><time>2026-05-01T13:36:33.001Z</time></trkpt><trkpt lat="44.393340804631805" lon="11.353075622160796"><ele>240.0</ele><time>2026-05-01T13:36:34.001Z</time></trkpt><trkpt lat="44.39324517518231" lon="11.353110711905705"><ele>240.0</ele><time>2026-05-01T13:36:35.001Z</time></trkpt><trkpt lat="44.39313608272123" lon="11.35318551270033"><ele>240.0</ele><time>2026-05-01T13:36:36.001Z</time></trkpt><trkpt lat="44.393016732641904" lon="11.353214900890835"><ele>240.0</ele><time>2026-05-01T13:36:37.001Z</time></trkpt><trkpt lat="44.39289751748026" lon="11.353215544937935"><ele>239.5</ele><time>2026-05-01T13:36:38.001Z</time></trkpt><trkpt lat="44.392774660765774" lon="11.35318640887781"><ele>239.0</ele><time>2026-05-01T13:36:39.001Z</time></trkpt><trkpt lat="44.39265064132676" lon="11.3531830120397"><ele>238.5</ele><time>2026-05-01T13:36:40.001Z</time></trkpt><trkpt lat="44.39253404130662" lon="11.353146084858455"><ele>238.0</ele><time>2026-05-01T13:36:41.001Z</time></trkpt><trkpt lat="44.392417466576305" lon="11.353068392983587"><ele>235.25</ele><time>2026-05-01T13:36:42.001Z</time></trkpt><trkpt lat="44.392304449496415" lon="11.352982884504218"><ele>232.5</ele><time>2026-05-01T13:36:43.001Z</time></trkpt><trkpt lat="44.39220012709757" lon="11.352866753005696"><ele>229.75</ele><time>2026-05-01T13:36:44.001Z</time></trkpt><trkpt lat="44.39209604114888" lon="11.352730699718586"><ele>227.0</ele><time>2026-05-01T13:36:45.001Z</time></trkpt><trkpt lat="44.39197222148712" lon="11.352596027074226"><ele>227.0</ele><time>2026-05-01T13:36:46.001Z</time></trkpt><trkpt lat="44.3918618868335" lon="11.352436973114612"><ele>227.0</ele><time>2026-05-01T13:36:47.001Z</time></trkpt><trkpt lat="44.391753245452236" lon="11.352300054414476"><ele>227.0</ele><time>2026-05-01T13:36:48.001Z</time></trkpt><trkpt lat="44.3916541125087" lon="11.35216902875684"><ele>227.0</ele><time>2026-05-01T13:36:49.001Z</time></trkpt><trkpt lat="44.39155997119857" lon="11.352039660738043"><ele>225.0</ele><time>2026-05-01T13:36:50.001Z</time></trkpt><trkpt lat="44.39147634166957" lon="11.351923522414749"><ele>223.0</ele><time>2026-05-01T13:36:51.001Z</time></trkpt><trkpt lat="44.39139774212396" lon="11.351823208329328"><ele>221.0</ele><time>2026-05-01T13:36:52.001Z</time></trkpt><trkpt lat="44.39131384763005" lon="11.351754391455835"><ele>219.0</ele><time>2026-05-01T13:36:53.001Z</time></trkpt><trkpt lat="44.3912114813345" lon="11.351702162164711"><ele>217.0</ele><time>2026-05-01T13:36:54.001Z</time></trkpt><trkpt lat="44.391089220153255" lon="11.35167652480151"><ele>217.0</ele><time>2026-05-01T13:36:55.001Z</time></trkpt><trkpt lat="44.390956893283" lon="11.35167735928755"><ele>217.0</ele><time>2026-05-01T13:36:56.001Z</time></trkpt><trkpt lat="44.39081344033253" lon="11.3516736653777"><ele>217.0</ele><time>2026-05-01T13:36:57.001Z</time></trkpt><trkpt lat="44.39068064378406" lon="11.351594842967515"><ele>217.0</ele><time>2026-05-01T13:36:58.002Z</time></trkpt><trkpt lat="44.39055434000007" lon="11.351550730660287"><ele>214.33333333333331</ele><time>2026-05-01T13:36:59.002Z</time></trkpt><trkpt lat="44.39044068191165" lon="11.351481613943708"><ele>211.66666666666669</ele><time>2026-05-01T13:37:00.002Z</time></trkpt><trkpt lat="44.39034247851447" lon="11.351410557344682"><ele>209.0</ele><time>2026-05-01T13:37:01.002Z</time></trkpt><trkpt lat="44.39017309483827" lon="11.351210012983202"><ele>209.0</ele><time>2026-05-01T13:37:03.002Z</time></trkpt><trkpt lat="44.39008658839847" lon="11.351098793337789"><ele>209.0</ele><time>2026-05-01T13:37:04.002Z</time></trkpt><trkpt lat="44.389985079586395" lon="11.3510215642684"><ele>209.0</ele><time>2026-05-01T13:37:05.002Z</time></trkpt><trkpt lat="44.38986148379426" lon="11.350972866864835"><ele>209.0</ele><time>2026-05-01T13:37:06.002Z</time></trkpt><trkpt lat="44.38972514872923" lon="11.350952165237587"><ele>209.75</ele><time>2026-05-01T13:37:07.002Z</time></trkpt><trkpt lat="44.38958755002993" lon="11.350926865208603"><ele>210.5</ele><time>2026-05-01T13:37:08.002Z</time></trkpt><trkpt lat="44.3894689413339" lon="11.350844456215826"><ele>211.25</ele><time>2026-05-01T13:37:09.002Z</time></trkpt><trkpt lat="44.38935603542039" lon="11.35075344861995"><ele>212.0</ele><time>2026-05-01T13:37:10.002Z</time></trkpt><trkpt lat="44.38925462783931" lon="11.350671709747662"><ele>212.0</ele><time>2026-05-01T13:37:11.002Z</time></trkpt><trkpt lat="44.389153542192176" lon="11.350610122885472"><ele>212.0</ele><time>2026-05-01T13:37:12.002Z</time></trkpt><trkpt lat="44.389043644706014" lon="11.350565404139212"><ele>212.0</ele><time>2026-05-01T13:37:13.002Z</time></trkpt><trkpt lat="44.38891921500833" lon="11.350530837944634"><ele>212.0</ele><time>2026-05-01T13:37:14.002Z</time></trkpt><trkpt lat="44.3887847828414" lon="11.350517772916211"><ele>208.75</ele><time>2026-05-01T13:37:15.002Z</time></trkpt><trkpt lat="44.38865009899465" lon="11.350516808618643"><ele>205.5</ele><time>2026-05-01T13:37:16.002Z</time></trkpt><trkpt lat="44.38851083115131" lon="11.350500626061486"><ele>202.25</ele><time>2026-05-01T13:37:17.002Z</time></trkpt><trkpt lat="44.388385428513885" lon="11.350445709886216"><ele>199.0</ele><time>2026-05-01T13:37:18.002Z</time></trkpt><trkpt lat="44.388277074412294" lon="11.350341997932889"><ele>199.0</ele><time>2026-05-01T13:37:19.002Z</time></trkpt><trkpt lat="44.388169006876744" lon="11.350247001099754"><ele>199.0</ele><time>2026-05-01T13:37:20.002Z</time></trkpt><trkpt lat="44.38807364724635" lon="11.350166872036171"><ele>199.0</ele><time>2026-05-01T13:37:21.002Z</time></trkpt><trkpt lat="44.38798430806436" lon="11.35009462506268"><ele>199.0</ele><time>2026-05-01T13:37:22.002Z</time></trkpt><trkpt lat="44.387899532534554" lon="11.350025051329574"><ele>199.0</ele><time>2026-05-01T13:37:23.002Z</time></trkpt><trkpt lat="44.38782145008981" lon="11.349965855705053"><ele>199.2</ele><time>2026-05-01T13:37:24.002Z</time></trkpt><trkpt lat="44.38774764067304" lon="11.34990435472819"><ele>199.39999999999998</ele><time>2026-05-01T13:37:25.002Z</time></trkpt><trkpt lat="44.387667479247725" lon="11.349844780350336"><ele>199.6</ele><time>2026-05-01T13:37:26.002Z</time></trkpt><trkpt lat="44.38759757109343" lon="11.349770228425793"><ele>199.8</ele><time>2026-05-01T13:37:27.002Z</time></trkpt><trkpt lat="44.38753386133582" lon="11.349707014268008"><ele>200.0</ele><time>2026-05-01T13:37:28.002Z</time></trkpt><trkpt lat="44.387456128273016" lon="11.34959165852694"><ele>200.0</ele><time>2026-05-01T13:37:30Z</time></trkpt><trkpt lat="44.387405862220334" lon="11.349459617718395"><ele>200.0</ele><time>2026-05-01T13:37:32Z</time></trkpt><trkpt lat="44.387420286528034" lon="11.349355785987344"><ele>200.0</ele><time>2026-05-01T13:37:33Z</time></trkpt><trkpt lat="44.387465371633304" lon="11.34924958824714"><ele>200.0</ele><time>2026-05-01T13:37:34Z</time></trkpt><trkpt lat="44.38753940501081" lon="11.349123626138411"><ele>200.0</ele><time>2026-05-01T13:37:35Z</time></trkpt><trkpt lat="44.38761510111607" lon="11.34899905508399"><ele>200.00000000000003</ele><time>2026-05-01T13:37:36Z</time></trkpt><trkpt lat="44.38768507011822" lon="11.348882652986132"><ele>200.0</ele><time>2026-05-01T13:37:37Z</time></trkpt><trkpt lat="44.38773944546356" lon="11.348769471326102"><ele>200.0</ele><time>2026-05-01T13:37:38Z</time></trkpt><trkpt lat="44.38778405499941" lon="11.348659044583785"><ele>200.0</ele><time>2026-05-01T13:37:39Z</time></trkpt><trkpt lat="44.38782664890904" lon="11.348566329861548"><ele>200.00000000000003</ele><time>2026-05-01T13:37:40Z</time></trkpt><trkpt lat="44.38786950230344" lon="11.348488391281768"><ele>200.0</ele><time>2026-05-01T13:37:41Z</time></trkpt><trkpt lat="44.387938742369585" lon="11.348362243854908"><ele>200.0</ele><time>2026-05-01T13:37:43Z</time></trkpt><trkpt lat="44.388009726913545" lon="11.348289388930015"><ele>200.0</ele><time>2026-05-01T13:37:46Z</time></trkpt><trkpt lat="44.38811443412952" lon="11.348388861184034"><ele>200.0</ele><time>2026-05-01T13:37:48Z</time></trkpt><trkpt lat="44.38815846667039" lon="11.348475527067334"><ele>200.0</ele><time>2026-05-01T13:37:49Z</time></trkpt><trkpt lat="44.38824195649059" lon="11.348580531360467"><ele>200.0</ele><time>2026-05-01T13:37:51Z</time></trkpt><trkpt lat="44.38829842465358" lon="11.348627421757604"><ele>199.0</ele><time>2026-05-01T13:37:53Z</time></trkpt><trkpt lat="44.38838711490636" lon="11.348498275396654"><ele>198.0</ele><time>2026-05-01T13:37:54Z</time></trkpt><trkpt lat="44.388445652255" lon="11.348410761253607"><ele>197.0</ele><time>2026-05-01T13:37:55Z</time></trkpt><trkpt lat="44.388510346193804" lon="11.348327099756583"><ele>196.0</ele><time>2026-05-01T13:37:56Z</time></trkpt><trkpt lat="44.38858043243492" lon="11.34825706783198"><ele>195.0</ele><time>2026-05-01T13:37:57Z</time></trkpt><trkpt lat="44.38865368993344" lon="11.348165518394389"><ele>195.0</ele><time>2026-05-01T13:37:58.001Z</time></trkpt><trkpt lat="44.388736275747334" lon="11.348071947613095"><ele>195.0</ele><time>2026-05-01T13:37:59.001Z</time></trkpt><trkpt lat="44.388827907853745" lon="11.347973041260671"><ele>195.0</ele><time>2026-05-01T13:38:00.001Z</time></trkpt><trkpt lat="44.388918661754865" lon="11.34787819979601"><ele>195.0</ele><time>2026-05-01T13:38:01.001Z</time></trkpt><trkpt lat="44.389011767499866" lon="11.34777988906097"><ele>194.5</ele><time>2026-05-01T13:38:02.001Z</time></trkpt><trkpt lat="44.38910677232318" lon="11.347673051630762"><ele>194.0</ele><time>2026-05-01T13:38:03.001Z</time></trkpt><trkpt lat="44.389204265546006" lon="11.347562659528087"><ele>193.5</ele><time>2026-05-01T13:38:04.001Z</time></trkpt><trkpt lat="44.389298927437665" lon="11.347452641416888"><ele>193.0</ele><time>2026-05-01T13:38:05.001Z</time></trkpt><trkpt lat="44.389395234838794" lon="11.347346269313721"><ele>193.0</ele><time>2026-05-01T13:38:06.001Z</time></trkpt><trkpt lat="44.389485071312215" lon="11.347242858971038"><ele>193.0</ele><time>2026-05-01T13:38:07.001Z</time></trkpt><trkpt lat="44.38956862273361" lon="11.34714200589823"><ele>193.0</ele><time>2026-05-01T13:38:08.001Z</time></trkpt><trkpt lat="44.38965554561568" lon="11.347050127368222"><ele>193.0</ele><time>2026-05-01T13:38:09.001Z</time></trkpt><trkpt lat="44.38973832134329" lon="11.346952036141818"><ele>193.0</ele><time>2026-05-01T13:38:10.001Z</time></trkpt><trkpt lat="44.38982009318767" lon="11.346858702134416"><ele>191.4</ele><time>2026-05-01T13:38:11.001Z</time></trkpt><trkpt lat="44.38989764676768" lon="11.346769928971767"><ele>189.8</ele><time>2026-05-01T13:38:12.001Z</time></trkpt><trkpt lat="44.389970667624304" lon="11.346689850919178"><ele>188.2</ele><time>2026-05-01T13:38:13.001Z</time></trkpt><trkpt lat="44.39004598264495" lon="11.346605562262182"><ele>186.6</ele><time>2026-05-01T13:38:14.001Z</time></trkpt><trkpt lat="44.390121479465606" lon="11.346518407758959"><ele>185.0</ele><time>2026-05-01T13:38:15.001Z</time></trkpt><trkpt lat="44.39019279404713" lon="11.34642376867679"><ele>185.2</ele><time>2026-05-01T13:38:16.001Z</time></trkpt><trkpt lat="44.39027461845974" lon="11.346340420642496"><ele>185.4</ele><time>2026-05-01T13:38:17.001Z</time></trkpt><trkpt lat="44.390351344901106" lon="11.346251910968535"><ele>185.60000000000002</ele><time>2026-05-01T13:38:18.001Z</time></trkpt><trkpt lat="44.39042010528943" lon="11.346145878829285"><ele>185.8</ele><time>2026-05-01T13:38:19.001Z</time></trkpt><trkpt lat="44.390474948642776" lon="11.346012237095524"><ele>186.0</ele><time>2026-05-01T13:38:20.001Z</time></trkpt><trkpt lat="44.39051634202978" lon="11.345856573659331"><ele>185.0</ele><time>2026-05-01T13:38:21.001Z</time></trkpt><trkpt lat="44.39054900551546" lon="11.345683906794806"><ele>184.0</ele><time>2026-05-01T13:38:22.001Z</time></trkpt><trkpt lat="44.39057943831036" lon="11.3455126334063"><ele>183.0</ele><time>2026-05-01T13:38:23.001Z</time></trkpt><trkpt lat="44.39061388803981" lon="11.345338448865318"><ele>182.0</ele><time>2026-05-01T13:38:24.001Z</time></trkpt><trkpt lat="44.39064484617986" lon="11.345153518986349"><ele>182.0</ele><time>2026-05-01T13:38:25.001Z</time></trkpt><trkpt lat="44.39068158097742" lon="11.344958684548635"><ele>182.0</ele><time>2026-05-01T13:38:26.001Z</time></trkpt><trkpt lat="44.390718646428475" lon="11.34477063610846"><ele>182.0</ele><time>2026-05-01T13:38:27.001Z</time></trkpt><trkpt lat="44.39075551323523" lon="11.344587984824374"><ele>182.0</ele><time>2026-05-01T13:38:28.001Z</time></trkpt><trkpt lat="44.390792003752956" lon="11.344407213550124"><ele>182.0</ele><time>2026-05-01T13:38:29.001Z</time></trkpt><trkpt lat="44.3908287131066" lon="11.344223151192466"><ele>182.0</ele><time>2026-05-01T13:38:30.001Z</time></trkpt><trkpt lat="44.390866040116514" lon="11.344040377360084"><ele>182.0</ele><time>2026-05-01T13:38:31.001Z</time></trkpt><trkpt lat="44.39090100910897" lon="11.343865357972536"><ele>182.0</ele><time>2026-05-01T13:38:32.001Z</time></trkpt><trkpt lat="44.39093626291907" lon="11.343688836561295"><ele>182.25</ele><time>2026-05-01T13:38:33.002Z</time></trkpt><trkpt lat="44.39096994658275" lon="11.34350950122177"><ele>182.5</ele><time>2026-05-01T13:38:34.002Z</time></trkpt><trkpt lat="44.3910039978967" lon="11.343337054641466"><ele>182.75</ele><time>2026-05-01T13:38:35.002Z</time></trkpt><trkpt lat="44.39103439666862" lon="11.343170234870536"><ele>183.0</ele><time>2026-05-01T13:38:36.002Z</time></trkpt><trkpt lat="44.391065542884135" lon="11.343002586406369"><ele>183.0</ele><time>2026-05-01T13:38:37.002Z</time></trkpt><trkpt lat="44.39110094514274" lon="11.342835963332343"><ele>183.0</ele><time>2026-05-01T13:38:38.002Z</time></trkpt><trkpt lat="44.391130537242326" lon="11.342675010955377"><ele>183.0</ele><time>2026-05-01T13:38:39.002Z</time></trkpt><trkpt lat="44.3911612914266" lon="11.342521121467952"><ele>183.0</ele><time>2026-05-01T13:38:40.002Z</time></trkpt><trkpt lat="44.391186407427625" lon="11.342370175440271"><ele>183.0</ele><time>2026-05-01T13:38:41.002Z</time></trkpt><trkpt lat="44.39120657648711" lon="11.342233016985487"><ele>183.0</ele><time>2026-05-01T13:38:42.002Z</time></trkpt><trkpt lat="44.391218706244715" lon="11.34210518511634"><ele>183.0</ele><time>2026-05-01T13:38:43.002Z</time></trkpt><trkpt lat="44.39122233575378" lon="11.341982331272233"><ele>183.0</ele><time>2026-05-01T13:38:44.002Z</time></trkpt><trkpt lat="44.39121182838138" lon="11.341868960432482"><ele>183.0</ele><time>2026-05-01T13:38:45.002Z</time></trkpt><trkpt lat="44.39119544396421" lon="11.34177437238085"><ele>183.0</ele><time>2026-05-01T13:38:46.002Z</time></trkpt><trkpt lat="44.391170873293134" lon="11.341624961382529"><ele>182.83333333333334</ele><time>2026-05-01T13:38:48.002Z</time></trkpt><trkpt lat="44.39117956716949" lon="11.341507086407532"><ele>182.66666666666666</ele><time>2026-05-01T13:38:50.002Z</time></trkpt><trkpt lat="44.391230615883195" lon="11.341405726638833"><ele>182.5</ele><time>2026-05-01T13:38:52.002Z</time></trkpt><trkpt lat="44.391264951609685" lon="11.341322774289905"><ele>182.33333333333331</ele><time>2026-05-01T13:38:53.002Z</time></trkpt><trkpt lat="44.39130911992524" lon="11.341234748001183"><ele>182.16666666666666</ele><time>2026-05-01T13:38:54.002Z</time></trkpt><trkpt lat="44.391365359936785" lon="11.341157579554691"><ele>182.0</ele><time>2026-05-01T13:38:55.002Z</time></trkpt><trkpt lat="44.39144175985234" lon="11.341100033502812"><ele>181.8</ele><time>2026-05-01T13:38:56.002Z</time></trkpt><trkpt lat="44.39153300323832" lon="11.341057240966855"><ele>181.6</ele><time>2026-05-01T13:38:57.002Z</time></trkpt><trkpt lat="44.391637354400046" lon="11.341026917822067"><ele>181.4</ele><time>2026-05-01T13:38:58.002Z</time></trkpt><trkpt lat="44.3917450749155" lon="11.341008688190664"><ele>181.20000000000002</ele><time>2026-05-01T13:38:59.002Z</time></trkpt><trkpt lat="44.391850677458194" lon="11.34100745501235"><ele>181.0</ele><time>2026-05-01T13:39:00.002Z</time></trkpt><trkpt lat="44.39194595968754" lon="11.34100903179785"><ele>181.0</ele><time>2026-05-01T13:39:01.002Z</time></trkpt><trkpt lat="44.392039938894456" lon="11.34100571527634"><ele>181.0</ele><time>2026-05-01T13:39:02.002Z</time></trkpt><trkpt lat="44.392134390010874" lon="11.340994446408136"><ele>181.0</ele><time>2026-05-01T13:39:03.002Z</time></trkpt><trkpt lat="44.39223282443899" lon="11.340990841225624"><ele>181.0</ele><time>2026-05-01T13:39:04.002Z</time></trkpt><trkpt lat="44.392336238151884" lon="11.340988760799355"><ele>181.0</ele><time>2026-05-01T13:39:05.002Z</time></trkpt><trkpt lat="44.39243475413493" lon="11.340996255748523"><ele>181.0</ele><time>2026-05-01T13:39:06.002Z</time></trkpt><trkpt lat="44.39254266950555" lon="11.340989434463202"><ele>181.0</ele><time>2026-05-01T13:39:07.003Z</time></trkpt><trkpt lat="44.39264889912808" lon="11.340986260753297"><ele>181.0</ele><time>2026-05-01T13:39:08.003Z</time></trkpt><trkpt lat="44.39275849598177" lon="11.340985738038063"><ele>181.0</ele><time>2026-05-01T13:39:09.003Z</time></trkpt><trkpt lat="44.39286751735025" lon="11.340981884252892"><ele>181.0</ele><time>2026-05-01T13:39:10.003Z</time></trkpt><trkpt lat="44.392979483491" lon="11.340982970276114"><ele>180.60000000000002</ele><time>2026-05-01T13:39:11.003Z</time></trkpt><trkpt lat="44.393091365151435" lon="11.340980585756494"><ele>180.2</ele><time>2026-05-01T13:39:12.003Z</time></trkpt><trkpt lat="44.39320218418996" lon="11.340973401006057"><ele>179.8</ele><time>2026-05-01T13:39:13.003Z</time></trkpt><trkpt lat="44.3933102376128" lon="11.340963591579802"><ele>179.39999999999998</ele><time>2026-05-01T13:39:14.003Z</time></trkpt><trkpt lat="44.393418669145085" lon="11.340957810280202"><ele>179.0</ele><time>2026-05-01T13:39:15.003Z</time></trkpt><trkpt lat="44.39352676914938" lon="11.340949634953793"><ele>179.0</ele><time>2026-05-01T13:39:16.003Z</time></trkpt><trkpt lat="44.393634990497766" lon="11.340949465159795"><ele>179.0</ele><time>2026-05-01T13:39:17.003Z</time></trkpt><trkpt lat="44.393746580274836" lon="11.340959714558679"><ele>179.0</ele><time>2026-05-01T13:39:18.003Z</time></trkpt><trkpt lat="44.393856556873125" lon="11.34099178637382"><ele>179.0</ele><time>2026-05-01T13:39:19.003Z</time></trkpt><trkpt lat="44.39397131039996" lon="11.341043965476105"><ele>178.0</ele><time>2026-05-01T13:39:20.003Z</time></trkpt><trkpt lat="44.39409612314525" lon="11.341122267417383"><ele>177.0</ele><time>2026-05-01T13:39:21.003Z</time></trkpt><trkpt lat="44.39421258191834" lon="11.341211994825422"><ele>176.0</ele><time>2026-05-01T13:39:22.003Z</time></trkpt><trkpt lat="44.39432425401948" lon="11.34130382907648"><ele>175.0</ele><time>2026-05-01T13:39:23.003Z</time></trkpt><trkpt lat="44.39443397662638" lon="11.341387594127431"><ele>175.0</ele><time>2026-05-01T13:39:24.003Z</time></trkpt><trkpt lat="44.3945418996177" lon="11.341463152238319"><ele>175.0</ele><time>2026-05-01T13:39:25.003Z</time></trkpt><trkpt lat="44.394649154465775" lon="11.341545298555443"><ele>175.0</ele><time>2026-05-01T13:39:26.003Z</time></trkpt><trkpt lat="44.394760123060344" lon="11.341629615766678"><ele>175.0</ele><time>2026-05-01T13:39:27.003Z</time></trkpt><trkpt lat="44.39487112967418" lon="11.341710992226034"><ele>174.0</ele><time>2026-05-01T13:39:28.003Z</time></trkpt><trkpt lat="44.394979757175214" lon="11.341793266563396"><ele>173.0</ele><time>2026-05-01T13:39:29.003Z</time></trkpt><trkpt lat="44.39508317029744" lon="11.341871293951298"><ele>172.0</ele><time>2026-05-01T13:39:30.003Z</time></trkpt><trkpt lat="44.39518615005427" lon="11.341948367531938"><ele>171.0</ele><time>2026-05-01T13:39:31.003Z</time></trkpt><trkpt lat="44.39528438279174" lon="11.342025347717838"><ele>171.0</ele><time>2026-05-01T13:39:32.003Z</time></trkpt><trkpt lat="44.395377468291066" lon="11.342097940396336"><ele>171.0</ele><time>2026-05-01T13:39:33.003Z</time></trkpt><trkpt lat="44.39547725292249" lon="11.342176778682072"><ele>171.0</ele><time>2026-05-01T13:39:34.003Z</time></trkpt><trkpt lat="44.39558126959399" lon="11.34225921173233"><ele>171.0</ele><time>2026-05-01T13:39:35.003Z</time></trkpt><trkpt lat="44.39568374441064" lon="11.34233712551561"><ele>171.5</ele><time>2026-05-01T13:39:36.001Z</time></trkpt><trkpt lat="44.39578887870297" lon="11.342416613563442"><ele>172.0</ele><time>2026-05-01T13:39:37.001Z</time></trkpt><trkpt lat="44.39589099750231" lon="11.342498913671442"><ele>172.5</ele><time>2026-05-01T13:39:38.001Z</time></trkpt><trkpt lat="44.395995576577064" lon="11.342586471342058"><ele>173.0</ele><time>2026-05-01T13:39:39.001Z</time></trkpt><trkpt lat="44.396094696322244" lon="11.342675823073723"><ele>173.0</ele><time>2026-05-01T13:39:40.001Z</time></trkpt><trkpt lat="44.39619381574404" lon="11.34275889744614"><ele>173.0</ele><time>2026-05-01T13:39:41.001Z</time></trkpt><trkpt lat="44.39628999919669" lon="11.342844016086284"><ele>173.0</ele><time>2026-05-01T13:39:42.001Z</time></trkpt><trkpt lat="44.39638634102771" lon="11.342930799331095"><ele>173.0</ele><time>2026-05-01T13:39:43.001Z</time></trkpt><trkpt lat="44.396479314193925" lon="11.343009776119027"><ele>172.5</ele><time>2026-05-01T13:39:44.001Z</time></trkpt><trkpt lat="44.39656976783181" lon="11.343100268656398"><ele>172.0</ele><time>2026-05-01T13:39:45.001Z</time></trkpt><trkpt lat="44.39666770603807" lon="11.34317852147762"><ele>171.5</ele><time>2026-05-01T13:39:46.001Z</time></trkpt><trkpt lat="44.39676941146539" lon="11.343258889736559"><ele>171.0</ele><time>2026-05-01T13:39:47.001Z</time></trkpt><trkpt lat="44.3968760972105" lon="11.343355827154028"><ele>171.0</ele><time>2026-05-01T13:39:48.001Z</time></trkpt><trkpt lat="44.39697941005433" lon="11.343451700000127"><ele>171.0</ele><time>2026-05-01T13:39:49.001Z</time></trkpt><trkpt lat="44.39708132802513" lon="11.343548212973761"><ele>171.0</ele><time>2026-05-01T13:39:50.001Z</time></trkpt><trkpt lat="44.397190404311765" lon="11.343643466835603"><ele>171.0</ele><time>2026-05-01T13:39:51.001Z</time></trkpt><trkpt lat="44.39729190423112" lon="11.343738589797345"><ele>170.75</ele><time>2026-05-01T13:39:52.001Z</time></trkpt><trkpt lat="44.397397239541846" lon="11.343831622327984"><ele>170.5</ele><time>2026-05-01T13:39:53.001Z</time></trkpt><trkpt lat="44.397503822924975" lon="11.343926236273582"><ele>170.25</ele><time>2026-05-01T13:39:54.001Z</time></trkpt><trkpt lat="44.39760590829882" lon="11.344021813256772"><ele>170.0</ele><time>2026-05-01T13:39:55.001Z</time></trkpt><trkpt lat="44.39770902300413" lon="11.344115967926166"><ele>170.0</ele><time>2026-05-01T13:39:56.001Z</time></trkpt><trkpt lat="44.39781426256554" lon="11.344211655375368"><ele>170.0</ele><time>2026-05-01T13:39:57.001Z</time></trkpt><trkpt lat="44.39791913595967" lon="11.344304188587552"><ele>170.0</ele><time>2026-05-01T13:39:58.001Z</time></trkpt><trkpt lat="44.39802165033365" lon="11.344398542173758"><ele>170.0</ele><time>2026-05-01T13:39:59.001Z</time></trkpt><trkpt lat="44.398126248774965" lon="11.344490919974843"><ele>169.5</ele><time>2026-05-01T13:40:00.001Z</time></trkpt><trkpt lat="44.39823386724506" lon="11.344580650081594"><ele>169.0</ele><time>2026-05-01T13:40:01.001Z</time></trkpt><trkpt lat="44.39834099256072" lon="11.344679007629626"><ele>168.5</ele><time>2026-05-01T13:40:02.001Z</time></trkpt><trkpt lat="44.398449872789" lon="11.344777014773971"><ele>168.0</ele><time>2026-05-01T13:40:03.001Z</time></trkpt><trkpt lat="44.39855756141982" lon="11.344874360698052"><ele>168.0</ele><time>2026-05-01T13:40:04.001Z</time></trkpt><trkpt lat="44.398662650076545" lon="11.344969457486759"><ele>168.0</ele><time>2026-05-01T13:40:05.001Z</time></trkpt><trkpt lat="44.39876824811212" lon="11.345064292870136"><ele>168.0</ele><time>2026-05-01T13:40:06.001Z</time></trkpt><trkpt lat="44.39888140752536" lon="11.345157251408317"><ele>168.0</ele><time>2026-05-01T13:40:07.001Z</time></trkpt><trkpt lat="44.39899595831684" lon="11.345241867626054"><ele>168.0</ele><time>2026-05-01T13:40:08.001Z</time></trkpt><trkpt lat="44.399106519208765" lon="11.345332736941831"><ele>168.0</ele><time>2026-05-01T13:40:09.001Z</time></trkpt><trkpt lat="44.399218873760326" lon="11.34540908274093"><ele>168.0</ele><time>2026-05-01T13:40:10.001Z</time></trkpt><trkpt lat="44.3993257816892" lon="11.345480921023034"><ele>168.0</ele><time>2026-05-01T13:40:11.001Z</time></trkpt><trkpt lat="44.39943002966178" lon="11.345538858938484"><ele>168.33333333333334</ele><time>2026-05-01T13:40:12.001Z</time></trkpt><trkpt lat="44.399533161586255" lon="11.345599613825549"><ele>168.66666666666666</ele><time>2026-05-01T13:40:13.001Z</time></trkpt><trkpt lat="44.39962831381318" lon="11.345661039663657"><ele>169.0</ele><time>2026-05-01T13:40:14.001Z</time></trkpt><trkpt lat="44.39970189026081" lon="11.345711948981165"><ele>169.33333333333331</ele><time>2026-05-01T13:40:15.001Z</time></trkpt><trkpt lat="44.399770976406735" lon="11.345755028516992"><ele>169.66666666666666</ele><time>2026-05-01T13:40:16.001Z</time></trkpt><trkpt lat="44.39983320542759" lon="11.345791449673992"><ele>170.0</ele><time>2026-05-01T13:40:17.001Z</time></trkpt><trkpt lat="44.39991397157628" lon="11.345852903243898"><ele>169.2</ele><time>2026-05-01T13:40:19.001Z</time></trkpt><trkpt lat="44.39998902996471" lon="11.345649961358262"><ele>168.4</ele><time>2026-05-01T13:40:20.001Z</time></trkpt><trkpt lat="44.40000992966906" lon="11.345527496874595"><ele>167.60000000000002</ele><time>2026-05-01T13:40:21.001Z</time></trkpt><trkpt lat="44.400048198783544" lon="11.34541085364136"><ele>166.8</ele><time>2026-05-01T13:40:22.001Z</time></trkpt><trkpt lat="44.40011132913784" lon="11.34532196864811"><ele>166.0</ele><time>2026-05-01T13:40:23.001Z</time></trkpt><trkpt lat="44.400157357842744" lon="11.345222234002435"><ele>165.5</ele><time>2026-05-01T13:40:24.001Z</time></trkpt><trkpt lat="44.400202775959045" lon="11.345142888516008"><ele>165.0</ele><time>2026-05-01T13:40:25.001Z</time></trkpt><trkpt lat="44.40022759215026" lon="11.345051240211763"><ele>164.5</ele><time>2026-05-01T13:40:26.001Z</time></trkpt><trkpt lat="44.400220499829445" lon="11.344947286582709"><ele>164.0</ele><time>2026-05-01T13:40:27.001Z</time></trkpt><trkpt lat="44.40018500879428" lon="11.344848083046143"><ele>163.5</ele><time>2026-05-01T13:40:28.001Z</time></trkpt><trkpt lat="44.400108693403816" lon="11.344759247384863"><ele>163.0</ele><time>2026-05-01T13:40:29.001Z</time></trkpt><trkpt lat="44.400027492972676" lon="11.3446844878892"><ele>161.33333333333334</ele><time>2026-05-01T13:40:30.001Z</time></trkpt><trkpt lat="44.39995598693701" lon="11.344612436660523"><ele>159.66666666666669</ele><time>2026-05-01T13:40:31.001Z</time></trkpt><trkpt lat="44.399892996685566" lon="11.344540393077473"><ele>158.0</ele><time>2026-05-01T13:40:32.001Z</time></trkpt><trkpt lat="44.39983340051679" lon="11.344466636702597"><ele>156.33333333333334</ele><time>2026-05-01T13:40:33.001Z</time></trkpt><trkpt lat="44.39977893028354" lon="11.34439124985534"><ele>154.66666666666666</ele><time>2026-05-01T13:40:34.001Z</time></trkpt><trkpt lat="44.399741577935366" lon="11.344303251957609"><ele>153.0</ele><time>2026-05-01T13:40:35.001Z</time></trkpt><trkpt lat="44.39971587628056" lon="11.344194919392864"><ele>153.0</ele><time>2026-05-01T13:40:36.001Z</time></trkpt><trkpt lat="44.39970089648541" lon="11.344085045971209"><ele>153.0</ele><time>2026-05-01T13:40:37.001Z</time></trkpt><trkpt lat="44.39968878773868" lon="11.343966357325469"><ele>153.0</ele><time>2026-05-01T13:40:38.001Z</time></trkpt><trkpt lat="44.399677704874144" lon="11.34385372900417"><ele>153.0</ele><time>2026-05-01T13:40:39.001Z</time></trkpt><trkpt lat="44.39966406281929" lon="11.343738663845155"><ele>153.0</ele><time>2026-05-01T13:40:40.002Z</time></trkpt><trkpt lat="44.39964592560272" lon="11.34361242814542"><ele>153.0</ele><time>2026-05-01T13:40:41.002Z</time></trkpt><trkpt lat="44.39963570436494" lon="11.3434886998924"><ele>152.0</ele><time>2026-05-01T13:40:42.002Z</time></trkpt><trkpt lat="44.39963724373085" lon="11.34336006284598"><ele>151.0</ele><time>2026-05-01T13:40:43.002Z</time></trkpt><trkpt lat="44.399665030703304" lon="11.343242188480524"><ele>150.0</ele><time>2026-05-01T13:40:44.002Z</time></trkpt><trkpt lat="44.39971460475915" lon="11.343173710096034"><ele>149.0</ele><time>2026-05-01T13:40:45.002Z</time></trkpt><trkpt lat="44.39974483510867" lon="11.343082353972076"><ele>148.0</ele><time>2026-05-01T13:40:46.002Z</time></trkpt><trkpt lat="44.39977375285545" lon="11.342989762239078"><ele>147.0</ele><time>2026-05-01T13:40:47.002Z</time></trkpt><trkpt lat="44.39977953384867" lon="11.342859767178451"><ele>146.2</ele><time>2026-05-01T13:40:48.002Z</time></trkpt><trkpt lat="44.39974300495985" lon="11.342728161806496"><ele>145.39999999999998</ele><time>2026-05-01T13:40:49.002Z</time></trkpt><trkpt lat="44.39967885029569" lon="11.342610019214439"><ele>144.60000000000002</ele><time>2026-05-01T13:40:50.002Z</time></trkpt><trkpt lat="44.39960488495058" lon="11.342490771075688"><ele>143.8</ele><time>2026-05-01T13:40:51.002Z</time></trkpt><trkpt lat="44.399538591795505" lon="11.342361271678776"><ele>143.0</ele><time>2026-05-01T13:40:52.002Z</time></trkpt><trkpt lat="44.39948319947051" lon="11.342229295422534"><ele>143.0</ele><time>2026-05-01T13:40:53.002Z</time></trkpt><trkpt lat="44.399424450217396" lon="11.342114467975085"><ele>143.0</ele><time>2026-05-01T13:40:54.002Z</time></trkpt><trkpt lat="44.39937140144437" lon="11.342010682223783"><ele>143.0</ele><time>2026-05-01T13:40:55.002Z</time></trkpt><trkpt lat="44.399338447921636" lon="11.34189651075993"><ele>143.0</ele><time>2026-05-01T13:40:56.002Z</time></trkpt><trkpt lat="44.39932242904353" lon="11.341758935758058"><ele>143.0</ele><time>2026-05-01T13:40:57.002Z</time></trkpt><trkpt lat="44.399327339524" lon="11.341607041776399"><ele>143.0</ele><time>2026-05-01T13:40:58.002Z</time></trkpt><trkpt lat="44.399347075157415" lon="11.341443365486587"><ele>143.0</ele><time>2026-05-01T13:40:59.002Z</time></trkpt><trkpt lat="44.39937142785928" lon="11.341284290714398"><ele>143.0</ele><time>2026-05-01T13:41:00.002Z</time></trkpt><trkpt lat="44.39938898306479" lon="11.341139903146095"><ele>143.0</ele><time>2026-05-01T13:41:01.002Z</time></trkpt><trkpt lat="44.399407937758625" lon="11.34101108946484"><ele>143.0</ele><time>2026-05-01T13:41:02.002Z</time></trkpt><trkpt lat="44.39942593477609" lon="11.340887949152318"><ele>142.6</ele><time>2026-05-01T13:41:03.002Z</time></trkpt><trkpt lat="44.39944019059223" lon="11.340779896817292"><ele>142.20000000000002</ele><time>2026-05-01T13:41:04.002Z</time></trkpt><trkpt lat="44.399456579085985" lon="11.340676225644103"><ele>141.8</ele><time>2026-05-01T13:41:05.002Z</time></trkpt><trkpt lat="44.39948001877101" lon="11.340541815458012"><ele>141.4</ele><time>2026-05-01T13:41:07.002Z</time></trkpt><trkpt lat="44.39951060984348" lon="11.340446050897405"><ele>141.0</ele><time>2026-05-01T13:41:11.002Z</time></trkpt><trkpt lat="44.39940099379939" lon="11.340350021082758"><ele>141.0</ele><time>2026-05-01T13:41:14.002Z</time></trkpt><trkpt lat="44.39933110842447" lon="11.34035489230846"><ele>141.0</ele><time>2026-05-01T13:41:15.002Z</time></trkpt><trkpt lat="44.39918947867305" lon="11.340347606090544"><ele>141.0</ele><time>2026-05-01T13:41:17.002Z</time></trkpt><trkpt lat="44.39910862384722" lon="11.340334220957779"><ele>141.0</ele><time>2026-05-01T13:41:18.002Z</time></trkpt><trkpt lat="44.39903158305801" lon="11.340326081125513"><ele>141.0</ele><time>2026-05-01T13:41:19.002Z</time></trkpt><trkpt lat="44.398948587477435" lon="11.340308393409423"><ele>141.0</ele><time>2026-05-01T13:41:20.002Z</time></trkpt><trkpt lat="44.3988637891814" lon="11.340297078834375"><ele>141.0</ele><time>2026-05-01T13:41:21.002Z</time></trkpt><trkpt lat="44.39877395334773" lon="11.340284207741634"><ele>141.0</ele><time>2026-05-01T13:41:22.003Z</time></trkpt><trkpt lat="44.398688790173544" lon="11.340278060813596"><ele>141.0</ele><time>2026-05-01T13:41:23.003Z</time></trkpt><trkpt lat="44.398610434362226" lon="11.340264479110665"><ele>141.0</ele><time>2026-05-01T13:41:24.003Z</time></trkpt><trkpt lat="44.39854809963945" lon="11.340236993489615"><ele>141.0</ele><time>2026-05-01T13:41:25.003Z</time></trkpt><trkpt lat="44.39846673189417" lon="11.340145856255363"><ele>141.6</ele><time>2026-05-01T13:41:27.003Z</time></trkpt><trkpt lat="44.398450879228605" lon="11.339978898977195"><ele>142.2</ele><time>2026-05-01T13:41:29.003Z</time></trkpt><trkpt lat="44.39846447660474" lon="11.3398530318082"><ele>142.8</ele><time>2026-05-01T13:41:30.003Z</time></trkpt><trkpt lat="44.39848050964249" lon="11.339729314728153"><ele>143.4</ele><time>2026-05-01T13:41:31.003Z</time></trkpt><trkpt lat="44.39848916427223" lon="11.339613274217664"><ele>144.0</ele><time>2026-05-01T13:41:32.003Z</time></trkpt><trkpt lat="44.39850480004266" lon="11.339477399974761"><ele>144.0</ele><time>2026-05-01T13:41:33.003Z</time></trkpt><trkpt lat="44.3985078874885" lon="11.339320381097236"><ele>144.0</ele><time>2026-05-01T13:41:34.003Z</time></trkpt><trkpt lat="44.39851864847765" lon="11.339155012375837"><ele>144.0</ele><time>2026-05-01T13:41:35.003Z</time></trkpt><trkpt lat="44.39853010852771" lon="11.339004435798394"><ele>144.0</ele><time>2026-05-01T13:41:36.003Z</time></trkpt><trkpt lat="44.39853998179288" lon="11.338874731317597"><ele>144.0</ele><time>2026-05-01T13:41:37.003Z</time></trkpt><trkpt lat="44.398547975510226" lon="11.338765946855059"><ele>143.33333333333334</ele><time>2026-05-01T13:41:38.003Z</time></trkpt><trkpt lat="44.398555609240816" lon="11.338664008263326"><ele>142.66666666666666</ele><time>2026-05-01T13:41:39.003Z</time></trkpt><trkpt lat="44.3985635456168" lon="11.338556345417734"><ele>142.0</ele><time>2026-05-01T13:41:40.003Z</time></trkpt><trkpt lat="44.398573609970384" lon="11.338455018565458"><ele>141.33333333333331</ele><time>2026-05-01T13:41:41.003Z</time></trkpt><trkpt lat="44.398589528163065" lon="11.338330088216098"><ele>140.66666666666666</ele><time>2026-05-01T13:41:42.001Z</time></trkpt><trkpt lat="44.39859792152255" lon="11.338214819183085"><ele>140.0</ele><time>2026-05-01T13:41:43.001Z</time></trkpt><trkpt lat="44.39860711348384" lon="11.338119364736245"><ele>139.8</ele><time>2026-05-01T13:41:44.001Z</time></trkpt><trkpt lat="44.39862204279143" lon="11.337967440265452"><ele>139.6</ele><time>2026-05-01T13:41:46.001Z</time></trkpt><trkpt lat="44.39862909350466" lon="11.337846295294252"><ele>139.4</ele><time>2026-05-01T13:41:48.001Z</time></trkpt><trkpt lat="44.3986508326859" lon="11.337760280080039"><ele>139.2</ele><time>2026-05-01T13:41:54.001Z</time></trkpt><trkpt lat="44.398698845556225" lon="11.33765313513324"><ele>139.0</ele><time>2026-05-01T13:41:57.001Z</time></trkpt><trkpt lat="44.39880771081056" lon="11.337591165836931"><ele>138.83333333333334</ele><time>2026-05-01T13:41:59.001Z</time></trkpt><trkpt lat="44.398848175860834" lon="11.337518811093293"><ele>138.66666666666669</ele><time>2026-05-01T13:42:00.001Z</time></trkpt><trkpt lat="44.39886112910842" lon="11.33741148215051"><ele>138.5</ele><time>2026-05-01T13:42:01.001Z</time></trkpt><trkpt lat="44.39885373011833" lon="11.337291695246568"><ele>138.33333333333334</ele><time>2026-05-01T13:42:02.001Z</time></trkpt><trkpt lat="44.398813603476064" lon="11.33718834411321"><ele>138.16666666666666</ele><time>2026-05-01T13:42:03.001Z</time></trkpt><trkpt lat="44.398766546287725" lon="11.337105262075088"><ele>138.0</ele><time>2026-05-01T13:42:04.001Z</time></trkpt><trkpt lat="44.398732852195856" lon="11.33699371586369"><ele>138.6</ele><time>2026-05-01T13:42:05.001Z</time></trkpt><trkpt lat="44.398725937439906" lon="11.33686736369346"><ele>139.20000000000002</ele><time>2026-05-01T13:42:06.001Z</time></trkpt><trkpt lat="44.39872923926237" lon="11.336737136663341"><ele>139.8</ele><time>2026-05-01T13:42:07.001Z</time></trkpt><trkpt lat="44.39874368790287" lon="11.33661078942824"><ele>140.4</ele><time>2026-05-01T13:42:08.001Z</time></trkpt><trkpt lat="44.39875459940621" lon="11.33647243070357"><ele>141.0</ele><time>2026-05-01T13:42:09.001Z</time></trkpt><trkpt lat="44.3987730334049" lon="11.336327314567882"><ele>142.8</ele><time>2026-05-01T13:42:10.001Z</time></trkpt><trkpt lat="44.3987879206684" lon="11.336170955497698"><ele>144.6</ele><time>2026-05-01T13:42:11.001Z</time></trkpt><trkpt lat="44.39879986011295" lon="11.336030160742736"><ele>146.4</ele><time>2026-05-01T13:42:12.001Z</time></trkpt><trkpt lat="44.39881327393165" lon="11.335881850789788"><ele>148.2</ele><time>2026-05-01T13:42:13.001Z</time></trkpt><trkpt lat="44.39882539390532" lon="11.335755050662806"><ele>150.0</ele><time>2026-05-01T13:42:14.001Z</time></trkpt><trkpt lat="44.398835470030534" lon="11.33565745464896"><ele>151.0</ele><time>2026-05-01T13:42:15.001Z</time></trkpt><trkpt lat="44.39885340832333" lon="11.335492737702022"><ele>152.0</ele><time>2026-05-01T13:42:17.001Z</time></trkpt><trkpt lat="44.39888111855766" lon="11.335403597086113"><ele>153.0</ele><time>2026-05-01T13:42:18.001Z</time></trkpt><trkpt lat="44.39887650533797" lon="11.335293005116798"><ele>154.0</ele><time>2026-05-01T13:42:19.001Z</time></trkpt><trkpt lat="44.398871398156984" lon="11.335174843269645"><ele>155.0</ele><time>2026-05-01T13:42:20.001Z</time></trkpt><trkpt lat="44.398846348075516" lon="11.335055653204696"><ele>156.0</ele><time>2026-05-01T13:42:21.001Z</time></trkpt><trkpt lat="44.39879485448827" lon="11.33495738013897"><ele>156.0</ele><time>2026-05-01T13:42:22.001Z</time></trkpt><trkpt lat="44.39872182093826" lon="11.334875361005615"><ele>156.0</ele><time>2026-05-01T13:42:23.001Z</time></trkpt><trkpt lat="44.39864062182293" lon="11.334803442837465"><ele>156.0</ele><time>2026-05-01T13:42:24.001Z</time></trkpt><trkpt lat="44.39855152330058" lon="11.334739671439646"><ele>156.0</ele><time>2026-05-01T13:42:25.001Z</time></trkpt><trkpt lat="44.398459770960116" lon="11.33467672015395"><ele>156.0</ele><time>2026-05-01T13:42:26.001Z</time></trkpt><trkpt lat="44.39837635550449" lon="11.334621957141211"><ele>156.5</ele><time>2026-05-01T13:42:27.001Z</time></trkpt><trkpt lat="44.39830260991497" lon="11.334575290775645"><ele>157.0</ele><time>2026-05-01T13:42:28.001Z</time></trkpt><trkpt lat="44.3982414245826" lon="11.334536410403468"><ele>157.5</ele><time>2026-05-01T13:42:29.001Z</time></trkpt><trkpt lat="44.39814943568627" lon="11.334476127953367"><ele>158.0</ele><time>2026-05-01T13:42:31.001Z</time></trkpt><trkpt lat="44.3980820975287" lon="11.334430323135175"><ele>158.5</ele><time>2026-05-01T13:42:33.001Z</time></trkpt><trkpt lat="44.39801509990436" lon="11.334387348293209"><ele>159.0</ele><time>2026-05-01T13:42:37.001Z</time></trkpt><trkpt lat="44.39794351433886" lon="11.3343565040959"><ele>160.5</ele><time>2026-05-01T13:43:19.002Z</time></trkpt><trkpt lat="44.39800464056665" lon="11.334407198553562"><ele>162.0</ele><time>2026-05-01T13:43:25.002Z</time></trkpt><trkpt lat="44.39807805769038" lon="11.334454720296957"><ele>163.5</ele><time>2026-05-01T13:43:28.002Z</time></trkpt><trkpt lat="44.39814217135686" lon="11.33449622010536"><ele>165.0</ele><time>2026-05-01T13:43:30.002Z</time></trkpt><trkpt lat="44.398218105054355" lon="11.334545370872252"><ele>166.5</ele><time>2026-05-01T13:43:32.002Z</time></trkpt><trkpt lat="44.39830292246289" lon="11.334600271752992"><ele>168.0</ele><time>2026-05-01T13:43:34.002Z</time></trkpt><trkpt lat="44.39842368692792" lon="11.334678440025758"><ele>166.0</ele><time>2026-05-01T13:43:35.002Z</time></trkpt><trkpt lat="44.39850833405504" lon="11.334733230454859"><ele>164.0</ele><time>2026-05-01T13:43:36.002Z</time></trkpt><trkpt lat="44.398582060022214" lon="11.334786191711489"><ele>162.0</ele><time>2026-05-01T13:43:37.002Z</time></trkpt><trkpt lat="44.39865240708437" lon="11.334839168317965"><ele>160.0</ele><time>2026-05-01T13:43:38.003Z</time></trkpt><trkpt lat="44.39872550377711" lon="11.334903235820734"><ele>158.0</ele><time>2026-05-01T13:43:39.003Z</time></trkpt><trkpt lat="44.398789207943985" lon="11.334956016143066"><ele>156.0</ele><time>2026-05-01T13:43:40.003Z</time></trkpt><trkpt lat="44.39880183761198" lon="11.335107004160268"><ele>156.0</ele><time>2026-05-01T13:43:41.003Z</time></trkpt><trkpt lat="44.39882850426047" lon="11.335227528999223"><ele>156.0</ele><time>2026-05-01T13:43:42.003Z</time></trkpt><trkpt lat="44.39884014090966" lon="11.335367959073738"><ele>156.0</ele><time>2026-05-01T13:43:43.003Z</time></trkpt><trkpt lat="44.39883474543067" lon="11.335531398406834"><ele>156.0</ele><time>2026-05-01T13:43:44.003Z</time></trkpt><trkpt lat="44.39881445815506" lon="11.335714712347917"><ele>156.0</ele><time>2026-05-01T13:43:45.003Z</time></trkpt><trkpt lat="44.39879057849749" lon="11.335892010332008"><ele>154.5</ele><time>2026-05-01T13:43:46.003Z</time></trkpt><trkpt lat="44.39877264999305" lon="11.336067536049354"><ele>153.0</ele><time>2026-05-01T13:43:47.003Z</time></trkpt><trkpt lat="44.39876033329404" lon="11.336235178014855"><ele>151.5</ele><time>2026-05-01T13:43:48.001Z</time></trkpt><trkpt lat="44.39875034342252" lon="11.336396140111384"><ele>150.0</ele><time>2026-05-01T13:43:49.001Z</time></trkpt><trkpt lat="44.39873433023145" lon="11.33654949026396"><ele>148.5</ele><time>2026-05-01T13:43:50.001Z</time></trkpt><trkpt lat="44.39872243508717" lon="11.336698004755572"><ele>147.0</ele><time>2026-05-01T13:43:51.001Z</time></trkpt><trkpt lat="44.39871188836168" lon="11.336824225836368"><ele>145.5</ele><time>2026-05-01T13:43:52.001Z</time></trkpt><trkpt lat="44.39870398757475" lon="11.336912772109393"><ele>144.0</ele><time>2026-05-01T13:43:53.001Z</time></trkpt><trkpt lat="44.39868336861099" lon="11.337005591935227"><ele>142.5</ele><time>2026-05-01T13:43:55.001Z</time></trkpt><trkpt lat="44.39863707123723" lon="11.337132894737229"><ele>141.0</ele><time>2026-05-01T13:43:58.001Z</time></trkpt><trkpt lat="44.39856594237374" lon="11.33724727694658"><ele>140.66666666666666</ele><time>2026-05-01T13:44:00.001Z</time></trkpt><trkpt lat="44.39852487753604" lon="11.33732010967865"><ele>140.33333333333334</ele><time>2026-05-01T13:44:01.001Z</time></trkpt><trkpt lat="44.39850876116753" lon="11.337412975541946"><ele>140.0</ele><time>2026-05-01T13:44:02.001Z</time></trkpt><trkpt lat="44.3985303696575" lon="11.337505356954019"><ele>139.66666666666669</ele><time>2026-05-01T13:44:03.001Z</time></trkpt><trkpt lat="44.398587162205885" lon="11.33758031415607"><ele>139.33333333333334</ele><time>2026-05-01T13:44:04.001Z</time></trkpt><trkpt lat="44.39866088495457" lon="11.33762213084632"><ele>139.0</ele><time>2026-05-01T13:44:05.001Z</time></trkpt><trkpt lat="44.39875441640999" lon="11.337652939203519"><ele>138.75</ele><time>2026-05-01T13:44:06.001Z</time></trkpt><trkpt lat="44.39885198492678" lon="11.33767926370531"><ele>138.5</ele><time>2026-05-01T13:44:07.001Z</time></trkpt><trkpt lat="44.39897015646664" lon="11.337718640660997"><ele>138.25</ele><time>2026-05-01T13:44:08.001Z</time></trkpt><trkpt lat="44.39910991474287" lon="11.337762723649426"><ele>138.0</ele><time>2026-05-01T13:44:09.001Z</time></trkpt><trkpt lat="44.399254767542715" lon="11.3377923943457"><ele>138.0</ele><time>2026-05-01T13:44:10.001Z</time></trkpt><trkpt lat="44.39940324672419" lon="11.337812739482926"><ele>138.0</ele><time>2026-05-01T13:44:11.001Z</time></trkpt><trkpt lat="44.399565706203774" lon="11.33783728207434"><ele>138.0</ele><time>2026-05-01T13:44:12.001Z</time></trkpt><trkpt lat="44.399729295271335" lon="11.337868557085622"><ele>138.0</ele><time>2026-05-01T13:44:13.001Z</time></trkpt><trkpt lat="44.399897732937724" lon="11.337894891664337"><ele>138.0</ele><time>2026-05-01T13:44:14.001Z</time></trkpt><trkpt lat="44.4000618748787" lon="11.33792185688934"><ele>138.0</ele><time>2026-05-01T13:44:15.001Z</time></trkpt><trkpt lat="44.40022933971215" lon="11.337960727454664"><ele>138.0</ele><time>2026-05-01T13:44:16.001Z</time></trkpt><trkpt lat="44.40040198855395" lon="11.337992849524934"><ele>138.0</ele><time>2026-05-01T13:44:17.001Z</time></trkpt><trkpt lat="44.40057484620281" lon="11.33802278705376"><ele>138.0</ele><time>2026-05-01T13:44:18.001Z</time></trkpt><trkpt lat="44.40075158848807" lon="11.33805270320577"><ele>137.66666666666666</ele><time>2026-05-01T13:44:19.001Z</time></trkpt><trkpt lat="44.40093129336492" lon="11.33808219628046"><ele>137.33333333333331</ele><time>2026-05-01T13:44:20.001Z</time></trkpt><trkpt lat="44.40111079636229" lon="11.338112979137374"><ele>137.0</ele><time>2026-05-01T13:44:21.001Z</time></trkpt><trkpt lat="44.4012971307972" lon="11.338155111529794"><ele>136.0</ele><time>2026-05-01T13:44:22.001Z</time></trkpt><trkpt lat="44.401482742908165" lon="11.338193755158484"><ele>135.0</ele><time>2026-05-01T13:44:23.001Z</time></trkpt><trkpt lat="44.40166916364373" lon="11.338246899917397"><ele>134.0</ele><time>2026-05-01T13:44:24.001Z</time></trkpt><trkpt lat="44.40185253118645" lon="11.338318645237893"><ele>134.0</ele><time>2026-05-01T13:44:25.001Z</time></trkpt><trkpt lat="44.40203457296743" lon="11.338395743676504"><ele>134.0</ele><time>2026-05-01T13:44:26.001Z</time></trkpt><trkpt lat="44.4022125658782" lon="11.338481980533302"><ele>134.0</ele><time>2026-05-01T13:44:27.001Z</time></trkpt><trkpt lat="44.402387433266824" lon="11.338578697945572"><ele>134.0</ele><time>2026-05-01T13:44:28.001Z</time></trkpt><trkpt lat="44.402560525556524" lon="11.33868677771277"><ele>134.0</ele><time>2026-05-01T13:44:29.001Z</time></trkpt><trkpt lat="44.40273314880714" lon="11.338812451080189"><ele>134.0</ele><time>2026-05-01T13:44:30.001Z</time></trkpt><trkpt lat="44.40291245201136" lon="11.338948877557911"><ele>133.33333333333331</ele><time>2026-05-01T13:44:31.001Z</time></trkpt><trkpt lat="44.40310641899282" lon="11.339083331758545"><ele>132.66666666666666</ele><time>2026-05-01T13:44:32.001Z</time></trkpt><trkpt lat="44.40330048238561" lon="11.339221266018372"><ele>132.0</ele><time>2026-05-01T13:44:33.001Z</time></trkpt><trkpt lat="44.40349317422895" lon="11.33935840319796"><ele>132.0</ele><time>2026-05-01T13:44:34.001Z</time></trkpt><trkpt lat="44.40368883160418" lon="11.339492685031898"><ele>132.0</ele><time>2026-05-01T13:44:35.001Z</time></trkpt><trkpt lat="44.403880443818366" lon="11.339629564570092"><ele>132.0</ele><time>2026-05-01T13:44:36.001Z</time></trkpt><trkpt lat="44.40407576988236" lon="11.339763628297238"><ele>131.66666666666666</ele><time>2026-05-01T13:44:37.001Z</time></trkpt><trkpt lat="44.40426566908379" lon="11.339903265236336"><ele>131.33333333333331</ele><time>2026-05-01T13:44:38.001Z</time></trkpt><trkpt lat="44.40445596816907" lon="11.340042499100878"><ele>131.0</ele><time>2026-05-01T13:44:39.001Z</time></trkpt><trkpt lat="44.40464537393588" lon="11.340175705419735"><ele>131.0</ele><time>2026-05-01T13:44:40.001Z</time></trkpt><trkpt lat="44.40483438122192" lon="11.340310140928551"><ele>131.0</ele><time>2026-05-01T13:44:41.001Z</time></trkpt><trkpt lat="44.40501977421831" lon="11.340444015896452"><ele>131.0</ele><time>2026-05-01T13:44:42.001Z</time></trkpt><trkpt lat="44.40520531162967" lon="11.340575517659344"><ele>131.0</ele><time>2026-05-01T13:44:43.001Z</time></trkpt><trkpt lat="44.40539039592294" lon="11.34071028207446"><ele>131.0</ele><time>2026-05-01T13:44:44.001Z</time></trkpt><trkpt lat="44.40557497026988" lon="11.340841392607679"><ele>131.0</ele><time>2026-05-01T13:44:45.001Z</time></trkpt><trkpt lat="44.40576338138436" lon="11.340973519957782"><ele>130.66666666666666</ele><time>2026-05-01T13:44:46.001Z</time></trkpt><trkpt lat="44.40595041840162" lon="11.341108091255395"><ele>130.33333333333334</ele><time>2026-05-01T13:44:47.001Z</time></trkpt><trkpt lat="44.40613574646299" lon="11.341240385840946"><ele>130.0</ele><time>2026-05-01T13:44:48.001Z</time></trkpt><trkpt lat="44.40632842908344" lon="11.34137597308709"><ele>129.33333333333334</ele><time>2026-05-01T13:44:49.001Z</time></trkpt><trkpt lat="44.40652721041561" lon="11.341516718290222"><ele>128.66666666666666</ele><time>2026-05-01T13:44:50.001Z</time></trkpt><trkpt lat="44.406724175315084" lon="11.3416575199168"><ele>128.0</ele><time>2026-05-01T13:44:51.001Z</time></trkpt><trkpt lat="44.40692457942203" lon="11.341795659907861"><ele>128.0</ele><time>2026-05-01T13:44:52.001Z</time></trkpt><trkpt lat="44.40712365321672" lon="11.341937711852545"><ele>128.0</ele><time>2026-05-01T13:44:53.001Z</time></trkpt><trkpt lat="44.407322404596066" lon="11.342079561947736"><ele>128.0</ele><time>2026-05-01T13:44:54.001Z</time></trkpt><trkpt lat="44.40752010444082" lon="11.342221844150279"><ele>127.66666666666666</ele><time>2026-05-01T13:44:55.001Z</time></trkpt><trkpt lat="44.40771543344322" lon="11.342362468540998"><ele>127.33333333333334</ele><time>2026-05-01T13:44:56.001Z</time></trkpt><trkpt lat="44.40789913067164" lon="11.342494862312371"><ele>127.0</ele><time>2026-05-01T13:44:57.001Z</time></trkpt><trkpt lat="44.408073717342624" lon="11.342620860180912"><ele>128.33333333333334</ele><time>2026-05-01T13:44:58.001Z</time></trkpt><trkpt lat="44.40824517197415" lon="11.342745954205302"><ele>129.66666666666666</ele><time>2026-05-01T13:44:59.001Z</time></trkpt><trkpt lat="44.40841848179312" lon="11.342869889002204"><ele>131.0</ele><time>2026-05-01T13:45:00.001Z</time></trkpt><trkpt lat="44.408596413957326" lon="11.342988522795222"><ele>130.0</ele><time>2026-05-01T13:45:01.002Z</time></trkpt><trkpt lat="44.40875621050374" lon="11.343112119082075"><ele>129.0</ele><time>2026-05-01T13:45:02.002Z</time></trkpt><trkpt lat="44.408919701527864" lon="11.343233464667284"><ele>128.0</ele><time>2026-05-01T13:45:03.002Z</time></trkpt><trkpt lat="44.40908816625703" lon="11.343358597462087"><ele>128.0</ele><time>2026-05-01T13:45:04.002Z</time></trkpt><trkpt lat="44.40925877446405" lon="11.343483696484158"><ele>128.0</ele><time>2026-05-01T13:45:05.002Z</time></trkpt><trkpt lat="44.40943072889919" lon="11.34360868054065"><ele>128.0</ele><time>2026-05-01T13:45:06.002Z</time></trkpt><trkpt lat="44.40960652214621" lon="11.343732513843495"><ele>128.33333333333331</ele><time>2026-05-01T13:45:07.002Z</time></trkpt><trkpt lat="44.40977714539372" lon="11.343851539462815"><ele>128.66666666666666</ele><time>2026-05-01T13:45:08.002Z</time></trkpt><trkpt lat="44.40995623567046" lon="11.343976010890287"><ele>129.0</ele><time>2026-05-01T13:45:09.002Z</time></trkpt><trkpt lat="44.41013300471536" lon="11.344101236363512"><ele>129.0</ele><time>2026-05-01T13:45:10.002Z</time></trkpt><trkpt lat="44.41030842981164" lon="11.344226565578927"><ele>129.0</ele><time>2026-05-01T13:45:11.002Z</time></trkpt><trkpt lat="44.41048696699736" lon="11.344353071651474"><ele>129.0</ele><time>2026-05-01T13:45:12.002Z</time></trkpt><trkpt lat="44.41066229619581" lon="11.344475312796305"><ele>129.0</ele><time>2026-05-01T13:45:13.002Z</time></trkpt><trkpt lat="44.4108372856485" lon="11.344599727975739"><ele>129.0</ele><time>2026-05-01T13:45:14.002Z</time></trkpt><trkpt lat="44.411011782648096" lon="11.344720974284417"><ele>129.0</ele><time>2026-05-01T13:45:15.002Z</time></trkpt><trkpt lat="44.41118754822797" lon="11.344840925024126"><ele>128.0</ele><time>2026-05-01T13:45:16.002Z</time></trkpt><trkpt lat="44.41136178783965" lon="11.344960070815672"><ele>127.0</ele><time>2026-05-01T13:45:17.002Z</time></trkpt><trkpt lat="44.41154135041181" lon="11.345082810660829"><ele>126.0</ele><time>2026-05-01T13:45:18.002Z</time></trkpt><trkpt lat="44.411719360890785" lon="11.345210208204138"><ele>126.0</ele><time>2026-05-01T13:45:19.002Z</time></trkpt><trkpt lat="44.411899361291056" lon="11.345330281175723"><ele>126.0</ele><time>2026-05-01T13:45:20.002Z</time></trkpt><trkpt lat="44.41208319005161" lon="11.345441175662222"><ele>126.0</ele><time>2026-05-01T13:45:21.002Z</time></trkpt><trkpt lat="44.41227968730007" lon="11.34553999529152"><ele>126.66666666666666</ele><time>2026-05-01T13:45:22.002Z</time></trkpt><trkpt lat="44.41248117497515" lon="11.345628708200636"><ele>127.33333333333333</ele><time>2026-05-01T13:45:23.002Z</time></trkpt><trkpt lat="44.412680707997595" lon="11.345707050585194"><ele>128.0</ele><time>2026-05-01T13:45:24.002Z</time></trkpt><trkpt lat="44.41288550254708" lon="11.345773594796299"><ele>128.0</ele><time>2026-05-01T13:45:25.002Z</time></trkpt><trkpt lat="44.413091394372536" lon="11.345823896998821"><ele>128.0</ele><time>2026-05-01T13:45:26.002Z</time></trkpt><trkpt lat="44.413299295329786" lon="11.345855240516011"><ele>128.0</ele><time>2026-05-01T13:45:27.002Z</time></trkpt><trkpt lat="44.41350801848668" lon="11.345877862700592"><ele>128.0</ele><time>2026-05-01T13:45:28.002Z</time></trkpt><trkpt lat="44.413717297830566" lon="11.345882866026605"><ele>128.0</ele><time>2026-05-01T13:45:29.002Z</time></trkpt><trkpt lat="44.41392183373173" lon="11.345879949625932"><ele>128.0</ele><time>2026-05-01T13:45:30.002Z</time></trkpt><trkpt lat="44.414133301106816" lon="11.34586392912599"><ele>127.66666666666666</ele><time>2026-05-01T13:45:31.002Z</time></trkpt><trkpt lat="44.41434811665682" lon="11.34584082738858"><ele>127.33333333333334</ele><time>2026-05-01T13:45:32.002Z</time></trkpt><trkpt lat="44.41456463216486" lon="11.345812474291886"><ele>127.0</ele><time>2026-05-01T13:45:33.002Z</time></trkpt><trkpt lat="44.41478080571958" lon="11.34578382715952"><ele>126.0</ele><time>2026-05-01T13:45:34.002Z</time></trkpt><trkpt lat="44.4150088545115" lon="11.345753500169044"><ele>125.0</ele><time>2026-05-01T13:45:35.002Z</time></trkpt><trkpt lat="44.41525259018102" lon="11.345716636512421"><ele>123.5</ele><time>2026-05-01T13:45:36.002Z</time></trkpt><trkpt lat="44.41552297917692" lon="11.345688629317259"><ele>122.0</ele><time>2026-05-01T13:45:37.002Z</time></trkpt><trkpt lat="44.41576533926279" lon="11.345661968926303"><ele>122.0</ele><time>2026-05-01T13:45:38.002Z</time></trkpt><trkpt lat="44.41598662834329" lon="11.345636500543646"><ele>122.0</ele><time>2026-05-01T13:45:39.002Z</time></trkpt><trkpt lat="44.41619355021446" lon="11.345618010961742"><ele>122.0</ele><time>2026-05-01T13:45:40.002Z</time></trkpt><trkpt lat="44.41638872245234" lon="11.345607827313714"><ele>122.0</ele><time>2026-05-01T13:45:41.002Z</time></trkpt><trkpt lat="44.416582328300954" lon="11.345602953763041"><ele>122.0</ele><time>2026-05-01T13:45:42.002Z</time></trkpt><trkpt lat="44.416772682806844" lon="11.345595385420808"><ele>122.0</ele><time>2026-05-01T13:45:43.002Z</time></trkpt><trkpt lat="44.41696180593993" lon="11.3455852302292"><ele>122.0</ele><time>2026-05-01T13:45:44.002Z</time></trkpt><trkpt lat="44.417145300560016" lon="11.345575494222311"><ele>122.0</ele><time>2026-05-01T13:45:45.002Z</time></trkpt><trkpt lat="44.41733075923534" lon="11.345564692686839"><ele>122.0</ele><time>2026-05-01T13:45:46.002Z</time></trkpt><trkpt lat="44.41751400725646" lon="11.34555732531063"><ele>122.0</ele><time>2026-05-01T13:45:47.002Z</time></trkpt><trkpt lat="44.41769502368514" lon="11.345540454763704"><ele>122.0</ele><time>2026-05-01T13:45:48.002Z</time></trkpt><trkpt lat="44.417878538065956" lon="11.345527831565876"><ele>122.0</ele><time>2026-05-01T13:45:49.002Z</time></trkpt><trkpt lat="44.41805384412664" lon="11.345510705878201"><ele>122.0</ele><time>2026-05-01T13:45:50.002Z</time></trkpt><trkpt lat="44.41823373748808" lon="11.345490432468113"><ele>122.0</ele><time>2026-05-01T13:45:51.002Z</time></trkpt><trkpt lat="44.41841814767438" lon="11.345465639044434"><ele>122.0</ele><time>2026-05-01T13:45:52.002Z</time></trkpt><trkpt lat="44.418610259426536" lon="11.345437031582355"><ele>122.0</ele><time>2026-05-01T13:45:53.002Z</time></trkpt><trkpt lat="44.4188087108865" lon="11.34541068532858"><ele>122.0</ele><time>2026-05-01T13:45:54Z</time></trkpt><trkpt lat="44.41900932827521" lon="11.345384681332746"><ele>122.0</ele><time>2026-05-01T13:45:55Z</time></trkpt><trkpt lat="44.419217597312944" lon="11.345357427897206"><ele>122.66666666666666</ele><time>2026-05-01T13:45:56Z</time></trkpt><trkpt lat="44.41942108115976" lon="11.34533981739632"><ele>123.33333333333334</ele><time>2026-05-01T13:45:57Z</time></trkpt><trkpt lat="44.41962781541217" lon="11.34531064434954"><ele>124.0</ele><time>2026-05-01T13:45:58Z</time></trkpt><trkpt lat="44.41983677629046" lon="11.345275151746305"><ele>124.0</ele><time>2026-05-01T13:45:59Z</time></trkpt><trkpt lat="44.420043327885466" lon="11.34524829275142"><ele>124.0</ele><time>2026-05-01T13:46:00Z</time></trkpt><trkpt lat="44.42024651238437" lon="11.345217658190071"><ele>124.0</ele><time>2026-05-01T13:46:01Z</time></trkpt><trkpt lat="44.420445390226625" lon="11.345195183462863"><ele>121.0</ele><time>2026-05-01T13:46:02Z</time></trkpt><trkpt lat="44.42064213475828" lon="11.345173172896757"><ele>118.0</ele><time>2026-05-01T13:46:03Z</time></trkpt><trkpt lat="44.42083184502157" lon="11.345148042735165"><ele>115.0</ele><time>2026-05-01T13:46:04Z</time></trkpt><trkpt lat="44.42102227193005" lon="11.34511275646621"><ele>115.0</ele><time>2026-05-01T13:46:05Z</time></trkpt><trkpt lat="44.421214700583526" lon="11.345083934171333"><ele>115.0</ele><time>2026-05-01T13:46:06Z</time></trkpt><trkpt lat="44.42141340188617" lon="11.345061030785596"><ele>115.0</ele><time>2026-05-01T13:46:07Z</time></trkpt><trkpt lat="44.42160804852016" lon="11.34503974256819"><ele>115.33333333333334</ele><time>2026-05-01T13:46:08Z</time></trkpt><trkpt lat="44.421806682070624" lon="11.345023916669978"><ele>115.66666666666666</ele><time>2026-05-01T13:46:09Z</time></trkpt><trkpt lat="44.422008701458445" lon="11.34502079748308"><ele>116.0</ele><time>2026-05-01T13:46:10Z</time></trkpt><trkpt lat="44.42221186614361" lon="11.345030411381329"><ele>116.0</ele><time>2026-05-01T13:46:11Z</time></trkpt><trkpt lat="44.42241470769614" lon="11.34505225720305"><ele>116.0</ele><time>2026-05-01T13:46:12Z</time></trkpt><trkpt lat="44.4226103969803" lon="11.3450857584234"><ele>116.0</ele><time>2026-05-01T13:46:13Z</time></trkpt><trkpt lat="44.422806549257096" lon="11.345129571752857"><ele>118.0</ele><time>2026-05-01T13:46:14Z</time></trkpt><trkpt lat="44.4230008430916" lon="11.345178813706632"><ele>120.0</ele><time>2026-05-01T13:46:15Z</time></trkpt><trkpt lat="44.423193738224604" lon="11.345248457437036"><ele>122.0</ele><time>2026-05-01T13:46:16Z</time></trkpt><trkpt lat="44.423386163502556" lon="11.345322333126372"><ele>122.0</ele><time>2026-05-01T13:46:17Z</time></trkpt><trkpt lat="44.42357611980947" lon="11.345405680450128"><ele>122.0</ele><time>2026-05-01T13:46:18Z</time></trkpt><trkpt lat="44.42376047341852" lon="11.345492376104646"><ele>122.0</ele><time>2026-05-01T13:46:19Z</time></trkpt><trkpt lat="44.42394408751113" lon="11.345588121341507"><ele>119.33333333333333</ele><time>2026-05-01T13:46:20Z</time></trkpt><trkpt lat="44.42412431242927" lon="11.345704634026267"><ele>116.66666666666666</ele><time>2026-05-01T13:46:21Z</time></trkpt><trkpt lat="44.42430193171277" lon="11.345816215399418"><ele>114.0</ele><time>2026-05-01T13:46:22Z</time></trkpt><trkpt lat="44.424473575060624" lon="11.34594253676198"><ele>114.0</ele><time>2026-05-01T13:46:23Z</time></trkpt><trkpt lat="44.42464360897125" lon="11.346083328947202"><ele>114.0</ele><time>2026-05-01T13:46:24Z</time></trkpt><trkpt lat="44.42481346934628" lon="11.346225730838245"><ele>114.0</ele><time>2026-05-01T13:46:25Z</time></trkpt><trkpt lat="44.42497882279248" lon="11.346378629757156"><ele>113.66666666666666</ele><time>2026-05-01T13:46:26Z</time></trkpt><trkpt lat="44.42513528997957" lon="11.346537367376104"><ele>113.33333333333333</ele><time>2026-05-01T13:46:27Z</time></trkpt><trkpt lat="44.42528655084708" lon="11.346710572535946"><ele>113.0</ele><time>2026-05-01T13:46:28Z</time></trkpt><trkpt lat="44.42542543677893" lon="11.346875716962936"><ele>113.0</ele><time>2026-05-01T13:46:29Z</time></trkpt><trkpt lat="44.42555361760032" lon="11.347050222056195"><ele>113.0</ele><time>2026-05-01T13:46:30.001Z</time></trkpt><trkpt lat="44.42567575124668" lon="11.347217146132712"><ele>113.0</ele><time>2026-05-01T13:46:31.001Z</time></trkpt><trkpt lat="44.42579453655709" lon="11.347382857696324"><ele>113.0</ele><time>2026-05-01T13:46:32.001Z</time></trkpt><trkpt lat="44.425903678290936" lon="11.347548148703234"><ele>113.0</ele><time>2026-05-01T13:46:33.001Z</time></trkpt><trkpt lat="44.426016923758176" lon="11.347711932161753"><ele>113.0</ele><time>2026-05-01T13:46:34.001Z</time></trkpt><trkpt lat="44.42613560529365" lon="11.347875636387595"><ele>113.0</ele><time>2026-05-01T13:46:35.001Z</time></trkpt><trkpt lat="44.42625979176947" lon="11.34803522879946"><ele>113.0</ele><time>2026-05-01T13:46:36.001Z</time></trkpt><trkpt lat="44.42639095096493" lon="11.34820384121932"><ele>113.0</ele><time>2026-05-01T13:46:37.001Z</time></trkpt><trkpt lat="44.42652546013976" lon="11.348355984316527"><ele>112.66666666666666</ele><time>2026-05-01T13:46:38.001Z</time></trkpt><trkpt lat="44.42666183946055" lon="11.348498538627048"><ele>112.33333333333334</ele><time>2026-05-01T13:46:39.001Z</time></trkpt><trkpt lat="44.42681210510353" lon="11.348628790632878"><ele>112.0</ele><time>2026-05-01T13:46:40.001Z</time></trkpt><trkpt lat="44.426974857275155" lon="11.348736364659635"><ele>112.0</ele><time>2026-05-01T13:46:41.001Z</time></trkpt><trkpt lat="44.427145636489854" lon="11.348827778076236"><ele>112.0</ele><time>2026-05-01T13:46:42.001Z</time></trkpt><trkpt lat="44.42731985922518" lon="11.348916428645298"><ele>112.0</ele><time>2026-05-01T13:46:43.001Z</time></trkpt><trkpt lat="44.427501647137575" lon="11.34900496677879"><ele>111.66666666666667</ele><time>2026-05-01T13:46:44.001Z</time></trkpt><trkpt lat="44.427690905417855" lon="11.34908994755524"><ele>111.33333333333334</ele><time>2026-05-01T13:46:45.001Z</time></trkpt><trkpt lat="44.427885549248515" lon="11.34917410063698"><ele>111.0</ele><time>2026-05-01T13:46:46.001Z</time></trkpt><trkpt lat="44.42808045257037" lon="11.349263087452858"><ele>110.33333333333334</ele><time>2026-05-01T13:46:47.001Z</time></trkpt><trkpt lat="44.42827537198759" lon="11.349355314207838"><ele>109.66666666666667</ele><time>2026-05-01T13:46:48.001Z</time></trkpt><trkpt lat="44.42846927238229" lon="11.349443555840306"><ele>109.0</ele><time>2026-05-01T13:46:49.001Z</time></trkpt><trkpt lat="44.42866582127777" lon="11.349531776788787"><ele>109.0</ele><time>2026-05-01T13:46:50.001Z</time></trkpt><trkpt lat="44.42886045079763" lon="11.349620276336537"><ele>109.0</ele><time>2026-05-01T13:46:51.001Z</time></trkpt><trkpt lat="44.42905551859661" lon="11.349709583753508"><ele>109.0</ele><time>2026-05-01T13:46:52.001Z</time></trkpt><trkpt lat="44.42925289606356" lon="11.349801911034836"><ele>109.0</ele><time>2026-05-01T13:46:53.001Z</time></trkpt><trkpt lat="44.42945073943512" lon="11.349890724017772"><ele>109.0</ele><time>2026-05-01T13:46:54.001Z</time></trkpt><trkpt lat="44.42964785641091" lon="11.349979567465528"><ele>109.0</ele><time>2026-05-01T13:46:55.001Z</time></trkpt><trkpt lat="44.42984295276802" lon="11.350074350180925"><ele>109.0</ele><time>2026-05-01T13:46:56.001Z</time></trkpt><trkpt lat="44.430035722718664" lon="11.350160940866386"><ele>109.0</ele><time>2026-05-01T13:46:57.001Z</time></trkpt><trkpt lat="44.430230356966156" lon="11.350248937921444"><ele>109.0</ele><time>2026-05-01T13:46:58.001Z</time></trkpt><trkpt lat="44.43042079404874" lon="11.350335520823247"><ele>109.0</ele><time>2026-05-01T13:46:59.001Z</time></trkpt><trkpt lat="44.430608760038936" lon="11.350424671788845"><ele>109.0</ele><time>2026-05-01T13:47:00.001Z</time></trkpt><trkpt lat="44.43079929235172" lon="11.350510409841435"><ele>109.0</ele><time>2026-05-01T13:47:01.001Z</time></trkpt><trkpt lat="44.43098546657115" lon="11.350597251578977"><ele>109.0</ele><time>2026-05-01T13:47:02.001Z</time></trkpt><trkpt lat="44.4311738989934" lon="11.350682338702494"><ele>109.0</ele><time>2026-05-01T13:47:03.001Z</time></trkpt><trkpt lat="44.43136167244828" lon="11.35076852146009"><ele>109.0</ele><time>2026-05-01T13:47:04.001Z</time></trkpt><trkpt lat="44.43155055493794" lon="11.350853409788444"><ele>110.0</ele><time>2026-05-01T13:47:05.001Z</time></trkpt><trkpt lat="44.431740337958104" lon="11.35093920244805"><ele>111.0</ele><time>2026-05-01T13:47:06.001Z</time></trkpt><trkpt lat="44.4319316528458" lon="11.351027445391079"><ele>112.0</ele><time>2026-05-01T13:47:07.001Z</time></trkpt><trkpt lat="44.43212384939577" lon="11.351115021340847"><ele>110.33333333333334</ele><time>2026-05-01T13:47:08.001Z</time></trkpt><trkpt lat="44.43231234435225" lon="11.351207924432615"><ele>108.66666666666666</ele><time>2026-05-01T13:47:09.001Z</time></trkpt><trkpt lat="44.432501239924974" lon="11.351302307772691"><ele>107.0</ele><time>2026-05-01T13:47:10.001Z</time></trkpt><trkpt lat="44.432697722005535" lon="11.35139912596938"><ele>107.0</ele><time>2026-05-01T13:47:11.001Z</time></trkpt><trkpt lat="44.43290010182721" lon="11.351488804638752"><ele>107.0</ele><time>2026-05-01T13:47:12.001Z</time></trkpt><trkpt lat="44.43310517817565" lon="11.351568610158676"><ele>107.0</ele><time>2026-05-01T13:47:13.001Z</time></trkpt><trkpt lat="44.433303360687056" lon="11.351621364380714"><ele>107.0</ele><time>2026-05-01T13:47:14.001Z</time></trkpt><trkpt lat="44.43351088568028" lon="11.351653490955512"><ele>107.0</ele><time>2026-05-01T13:47:15.001Z</time></trkpt><trkpt lat="44.433724062121776" lon="11.351670913534624"><ele>107.0</ele><time>2026-05-01T13:47:16.001Z</time></trkpt><trkpt lat="44.43393642438539" lon="11.351685846281608"><ele>106.66666666666666</ele><time>2026-05-01T13:47:17.001Z</time></trkpt><trkpt lat="44.43414767187258" lon="11.351705463173175"><ele>106.33333333333334</ele><time>2026-05-01T13:47:18.001Z</time></trkpt><trkpt lat="44.434356295009415" lon="11.351728866164073"><ele>106.0</ele><time>2026-05-01T13:47:19.001Z</time></trkpt><trkpt lat="44.434563480755685" lon="11.351751124657858"><ele>106.33333333333334</ele><time>2026-05-01T13:47:20.001Z</time></trkpt><trkpt lat="44.434773003214815" lon="11.351770113172583"><ele>106.66666666666666</ele><time>2026-05-01T13:47:21.001Z</time></trkpt><trkpt lat="44.43497863110563" lon="11.351790431044357"><ele>107.0</ele><time>2026-05-01T13:47:22.001Z</time></trkpt><trkpt lat="44.4351891786056" lon="11.351813922724547"><ele>107.0</ele><time>2026-05-01T13:47:23.001Z</time></trkpt><trkpt lat="44.43539711175582" lon="11.351834239953766"><ele>107.0</ele><time>2026-05-01T13:47:24.001Z</time></trkpt><trkpt lat="44.43560245631432" lon="11.351854649647523"><ele>107.0</ele><time>2026-05-01T13:47:25.001Z</time></trkpt><trkpt lat="44.43580951161015" lon="11.351873762103029"><ele>106.66666666666666</ele><time>2026-05-01T13:47:26.001Z</time></trkpt><trkpt lat="44.436016661431495" lon="11.351893712238102"><ele>106.33333333333334</ele><time>2026-05-01T13:47:27.001Z</time></trkpt><trkpt lat="44.436220056563066" lon="11.351913641528165"><ele>106.0</ele><time>2026-05-01T13:47:28.001Z</time></trkpt><trkpt lat="44.43642061854832" lon="11.351937853872329"><ele>104.66666666666667</ele><time>2026-05-01T13:47:29.001Z</time></trkpt><trkpt lat="44.436607607323204" lon="11.35196095328067"><ele>103.33333333333334</ele><time>2026-05-01T13:47:30.001Z</time></trkpt><trkpt lat="44.436785236265514" lon="11.35198229577159"><ele>102.0</ele><time>2026-05-01T13:47:31.001Z</time></trkpt><trkpt lat="44.43695386246593" lon="11.351997713492905"><ele>102.0</ele><time>2026-05-01T13:47:32.002Z</time></trkpt><trkpt lat="44.437114794692995" lon="11.352010768570091"><ele>102.0</ele><time>2026-05-01T13:47:33.002Z</time></trkpt><trkpt lat="44.43727145029229" lon="11.35202421550457"><ele>102.0</ele><time>2026-05-01T13:47:34.002Z</time></trkpt><trkpt lat="44.43742748758823" lon="11.352038299275184"><ele>101.0</ele><time>2026-05-01T13:47:35.002Z</time></trkpt><trkpt lat="44.43758317645368" lon="11.352052841360235"><ele>100.0</ele><time>2026-05-01T13:47:36.002Z</time></trkpt><trkpt lat="44.43773744168755" lon="11.352068995071974"><ele>99.0</ele><time>2026-05-01T13:47:37.002Z</time></trkpt><trkpt lat="44.43787890958061" lon="11.352083332858765"><ele>99.0</ele><time>2026-05-01T13:47:38.002Z</time></trkpt><trkpt lat="44.43801552267889" lon="11.352095187444068"><ele>99.0</ele><time>2026-05-01T13:47:39.002Z</time></trkpt><trkpt lat="44.43815275314755" lon="11.352103416212502"><ele>99.0</ele><time>2026-05-01T13:47:40.002Z</time></trkpt><trkpt lat="44.43829511866746" lon="11.352107330356985"><ele>99.0</ele><time>2026-05-01T13:47:41.002Z</time></trkpt><trkpt lat="44.43844009757553" lon="11.352107719363243"><ele>99.0</ele><time>2026-05-01T13:47:42.002Z</time></trkpt><trkpt lat="44.438584794556775" lon="11.352113486643965"><ele>99.0</ele><time>2026-05-01T13:47:43.002Z</time></trkpt><trkpt lat="44.438724584882166" lon="11.352118783232477"><ele>99.0</ele><time>2026-05-01T13:47:44.002Z</time></trkpt><trkpt lat="44.4388628886475" lon="11.352123028993464"><ele>99.0</ele><time>2026-05-01T13:47:45.002Z</time></trkpt><trkpt lat="44.438989875368" lon="11.35212558696369"><ele>99.6</ele><time>2026-05-01T13:47:46.002Z</time></trkpt><trkpt lat="44.43910549075547" lon="11.352130351892695"><ele>100.2</ele><time>2026-05-01T13:47:47.002Z</time></trkpt><trkpt lat="44.439211115505316" lon="11.352133876037747"><ele>100.8</ele><time>2026-05-01T13:47:48.002Z</time></trkpt><trkpt lat="44.43930663839748" lon="11.35213582871584"><ele>101.39999999999999</ele><time>2026-05-01T13:47:49.002Z</time></trkpt><trkpt lat="44.439402292760526" lon="11.35214060052809"><ele>102.0</ele><time>2026-05-01T13:47:50.002Z</time></trkpt><trkpt lat="44.43949118514907" lon="11.35214489681027"><ele>102.0</ele><time>2026-05-01T13:47:51.002Z</time></trkpt><trkpt lat="44.43959768590789" lon="11.352161820866861"><ele>102.0</ele><time>2026-05-01T13:47:53.002Z</time></trkpt><trkpt lat="44.439687089543774" lon="11.352198938987412"><ele>102.0</ele><time>2026-05-01T13:47:55.002Z</time></trkpt><trkpt lat="44.439790725003654" lon="11.352310121092849"><ele>102.0</ele><time>2026-05-01T13:47:57.002Z</time></trkpt><trkpt lat="44.439854610271496" lon="11.352368720685337"><ele>102.0</ele><time>2026-05-01T13:47:58.002Z</time></trkpt><trkpt lat="44.439919685705014" lon="11.352383309106866"><ele>101.8</ele><time>2026-05-01T13:47:59.002Z</time></trkpt><trkpt lat="44.43999755986497" lon="11.352355746832869"><ele>101.6</ele><time>2026-05-01T13:48:00Z</time></trkpt><trkpt lat="44.440076647577605" lon="11.352291651246283"><ele>101.39999999999999</ele><time>2026-05-01T13:48:01Z</time></trkpt><trkpt lat="44.4401509900583" lon="11.352219219260373"><ele>101.19999999999999</ele><time>2026-05-01T13:48:02Z</time></trkpt><trkpt lat="44.44025912388566" lon="11.352216038247798"><ele>101.0</ele><time>2026-05-01T13:48:03Z</time></trkpt><trkpt lat="44.44036012343774" lon="11.352227896577318"><ele>101.0</ele><time>2026-05-01T13:48:04Z</time></trkpt><trkpt lat="44.440461901448046" lon="11.352244105182622"><ele>101.0</ele><time>2026-05-01T13:48:05Z</time></trkpt><trkpt lat="44.44056123384891" lon="11.352244311076019"><ele>101.0</ele><time>2026-05-01T13:48:06Z</time></trkpt><trkpt lat="44.440672864016385" lon="11.352231628125594"><ele>101.0</ele><time>2026-05-01T13:48:07Z</time></trkpt><trkpt lat="44.440787454240166" lon="11.352210251133931"><ele>101.0</ele><time>2026-05-01T13:48:08Z</time></trkpt><trkpt lat="44.44090760112281" lon="11.352180215953357"><ele>101.0</ele><time>2026-05-01T13:48:09Z</time></trkpt><trkpt lat="44.4410344772737" lon="11.352140462850162"><ele>101.0</ele><time>2026-05-01T13:48:10Z</time></trkpt><trkpt lat="44.44115482925998" lon="11.35209103284025"><ele>101.0</ele><time>2026-05-01T13:48:11Z</time></trkpt><trkpt lat="44.44127316757738" lon="11.352037112839987"><ele>101.0</ele><time>2026-05-01T13:48:12Z</time></trkpt><trkpt lat="44.44140569011023" lon="11.35198350430852"><ele>101.0</ele><time>2026-05-01T13:48:13Z</time></trkpt><trkpt lat="44.44153378543396" lon="11.351919720598586"><ele>101.0</ele><time>2026-05-01T13:48:14Z</time></trkpt><trkpt lat="44.441649597339065" lon="11.351871149173233"><ele>101.0</ele><time>2026-05-01T13:48:15Z</time></trkpt><trkpt lat="44.44175353880006" lon="11.351843238648343"><ele>101.0</ele><time>2026-05-01T13:48:16Z</time></trkpt><trkpt lat="44.44185243885413" lon="11.351813768110883"><ele>101.0</ele><time>2026-05-01T13:48:17Z</time></trkpt><trkpt lat="44.4419335081329" lon="11.35180068389262"><ele>101.0</ele><time>2026-05-01T13:48:18Z</time></trkpt><trkpt lat="44.442001311586985" lon="11.351789594672642"><ele>101.0</ele><time>2026-05-01T13:48:19Z</time></trkpt><trkpt lat="44.442111066477985" lon="11.351760299434972"><ele>101.0</ele><time>2026-05-01T13:48:21Z</time></trkpt><trkpt lat="44.44220071493539" lon="11.351765034678397"><ele>101.0</ele><time>2026-05-01T13:48:23Z</time></trkpt><trkpt lat="44.44226274937452" lon="11.35158945178958"><ele>100.4</ele><time>2026-05-01T13:48:26Z</time></trkpt><trkpt lat="44.442264813669524" lon="11.351487258762168"><ele>99.8</ele><time>2026-05-01T13:48:27Z</time></trkpt><trkpt lat="44.44226612560027" lon="11.351368640513062"><ele>99.2</ele><time>2026-05-01T13:48:28Z</time></trkpt><trkpt lat="44.44227154697936" lon="11.351235823557968"><ele>98.60000000000001</ele><time>2026-05-01T13:48:29Z</time></trkpt><trkpt lat="44.44227909524434" lon="11.351093846029336"><ele>98.0</ele><time>2026-05-01T13:48:30Z</time></trkpt><trkpt lat="44.44227707794956" lon="11.350933286750804"><ele>98.0</ele><time>2026-05-01T13:48:31Z</time></trkpt><trkpt lat="44.442317904997374" lon="11.35077237642269"><ele>98.0</ele><time>2026-05-01T13:48:32Z</time></trkpt><trkpt lat="44.44234660838924" lon="11.350616549897357"><ele>98.0</ele><time>2026-05-01T13:48:33Z</time></trkpt><trkpt lat="44.442356938059994" lon="11.350471997927407"><ele>98.0</ele><time>2026-05-01T13:48:34Z</time></trkpt><trkpt lat="44.44237591691155" lon="11.350339104389548"><ele>98.0</ele><time>2026-05-01T13:48:35Z</time></trkpt><trkpt lat="44.442379339714606" lon="11.350224726983086"><ele>99.2</ele><time>2026-05-01T13:48:36Z</time></trkpt><trkpt lat="44.44238724704696" lon="11.350041590371964"><ele>100.4</ele><time>2026-05-01T13:48:38Z</time></trkpt><trkpt lat="44.44239022447755" lon="11.349927136316209"><ele>101.60000000000001</ele><time>2026-05-01T13:48:39Z</time></trkpt><trkpt lat="44.442418409751625" lon="11.349815638798672"><ele>102.80000000000001</ele><time>2026-05-01T13:48:40Z</time></trkpt><trkpt lat="44.44244907790653" lon="11.349698573362957"><ele>104.0</ele><time>2026-05-01T13:48:41.001Z</time></trkpt><trkpt lat="44.44248815445304" lon="11.349574710950622"><ele>104.80000000000001</ele><time>2026-05-01T13:48:42.001Z</time></trkpt><trkpt lat="44.44252370349992" lon="11.349442257401284"><ele>105.60000000000001</ele><time>2026-05-01T13:48:43.001Z</time></trkpt><trkpt lat="44.442565091468694" lon="11.349301638949342"><ele>106.4</ele><time>2026-05-01T13:48:44.001Z</time></trkpt><trkpt lat="44.44260378060303" lon="11.349146321272839"><ele>107.2</ele><time>2026-05-01T13:48:45.001Z</time></trkpt><trkpt lat="44.44263034924751" lon="11.348987142061599"><ele>108.0</ele><time>2026-05-01T13:48:46.001Z</time></trkpt><trkpt lat="44.44264369633737" lon="11.348833553433236"><ele>109.4</ele><time>2026-05-01T13:48:47.001Z</time></trkpt><trkpt lat="44.44265008599598" lon="11.348665707017188"><ele>110.80000000000001</ele><time>2026-05-01T13:48:48.001Z</time></trkpt><trkpt lat="44.442650925750904" lon="11.348500426618587"><ele>112.2</ele><time>2026-05-01T13:48:49.001Z</time></trkpt><trkpt lat="44.44264910611272" lon="11.34834906146885"><ele>113.6</ele><time>2026-05-01T13:48:50.001Z</time></trkpt><trkpt lat="44.442654743534085" lon="11.348220447989133"><ele>115.0</ele><time>2026-05-01T13:48:51.001Z</time></trkpt><trkpt lat="44.44265428802493" lon="11.34810430510116"><ele>115.33333333333334</ele><time>2026-05-01T13:48:52.001Z</time></trkpt><trkpt lat="44.44264203799428" lon="11.347994021381075"><ele>115.66666666666667</ele><time>2026-05-01T13:48:53.001Z</time></trkpt><trkpt lat="44.44264566148364" lon="11.347899457579468"><ele>116.0</ele><time>2026-05-01T13:48:54.001Z</time></trkpt><trkpt lat="44.4426579611659" lon="11.347797664907455"><ele>116.33333333333334</ele><time>2026-05-01T13:48:55.001Z</time></trkpt><trkpt lat="44.44271757112989" lon="11.347699543477788"><ele>116.66666666666667</ele><time>2026-05-01T13:48:56.001Z</time></trkpt><trkpt lat="44.44279863033498" lon="11.347593021596188"><ele>117.0</ele><time>2026-05-01T13:48:57.001Z</time></trkpt><trkpt lat="44.442885566173175" lon="11.34746649035997"><ele>117.75</ele><time>2026-05-01T13:48:58.001Z</time></trkpt><trkpt lat="44.442966937719085" lon="11.347324970051886"><ele>118.5</ele><time>2026-05-01T13:48:59.001Z</time></trkpt><trkpt lat="44.44304139254548" lon="11.347175089109475"><ele>119.25</ele><time>2026-05-01T13:49:00.001Z</time></trkpt><trkpt lat="44.44310609225143" lon="11.347021646777904"><ele>120.0</ele><time>2026-05-01T13:49:01.001Z</time></trkpt><trkpt lat="44.44316814116097" lon="11.34687225896644"><ele>118.25</ele><time>2026-05-01T13:49:02.001Z</time></trkpt><trkpt lat="44.44323848836891" lon="11.346738552559298"><ele>116.5</ele><time>2026-05-01T13:49:03.001Z</time></trkpt><trkpt lat="44.443322418542564" lon="11.346624021986024"><ele>114.75</ele><time>2026-05-01T13:49:04.001Z</time></trkpt><trkpt lat="44.443412667813774" lon="11.34651958540375"><ele>113.0</ele><time>2026-05-01T13:49:05.001Z</time></trkpt><trkpt lat="44.44349334386891" lon="11.346424625013977"><ele>114.25</ele><time>2026-05-01T13:49:06.001Z</time></trkpt><trkpt lat="44.44356092523356" lon="11.346317076007459"><ele>115.5</ele><time>2026-05-01T13:49:07.001Z</time></trkpt><trkpt lat="44.44361423077079" lon="11.346186417554465"><ele>116.75</ele><time>2026-05-01T13:49:08.001Z</time></trkpt><trkpt lat="44.443650495459615" lon="11.346031183149245"><ele>118.0</ele><time>2026-05-01T13:49:09.001Z</time></trkpt><trkpt lat="44.44367597849227" lon="11.345860560651177"><ele>118.0</ele><time>2026-05-01T13:49:10.001Z</time></trkpt><trkpt lat="44.44369119761171" lon="11.345676714797653"><ele>118.0</ele><time>2026-05-01T13:49:11.001Z</time></trkpt><trkpt lat="44.44369888341728" lon="11.345486165713133"><ele>118.0</ele><time>2026-05-01T13:49:12.001Z</time></trkpt><trkpt lat="44.44370954302578" lon="11.345289923085842"><ele>118.0</ele><time>2026-05-01T13:49:13.001Z</time></trkpt><trkpt lat="44.44372118006267" lon="11.345092314043955"><ele>119.0</ele><time>2026-05-01T13:49:14.001Z</time></trkpt><trkpt lat="44.4437266132132" lon="11.344898569800955"><ele>120.0</ele><time>2026-05-01T13:49:15.001Z</time></trkpt><trkpt lat="44.443749690207135" lon="11.34469838909951"><ele>121.0</ele><time>2026-05-01T13:49:16.001Z</time></trkpt><trkpt lat="44.44376747989969" lon="11.344492311589804"><ele>122.0</ele><time>2026-05-01T13:49:17.001Z</time></trkpt><trkpt lat="44.44379154246007" lon="11.344292485800372"><ele>120.75</ele><time>2026-05-01T13:49:18.001Z</time></trkpt><trkpt lat="44.44380650383939" lon="11.344079187487335"><ele>119.5</ele><time>2026-05-01T13:49:19.001Z</time></trkpt><trkpt lat="44.44381290599773" lon="11.343869590216045"><ele>118.25</ele><time>2026-05-01T13:49:20.001Z</time></trkpt><trkpt lat="44.443815541467835" lon="11.34367232551293"><ele>117.0</ele><time>2026-05-01T13:49:21.001Z</time></trkpt><trkpt lat="44.44382871758307" lon="11.343490670035175"><ele>117.0</ele><time>2026-05-01T13:49:22.001Z</time></trkpt><trkpt lat="44.4438512610754" lon="11.343334063683534"><ele>116.99999999999999</ele><time>2026-05-01T13:49:23.001Z</time></trkpt><trkpt lat="44.44389268652539" lon="11.34317777645305"><ele>116.99999999999999</ele><time>2026-05-01T13:49:24.001Z</time></trkpt><trkpt lat="44.4439060345836" lon="11.343016739508446"><ele>117.0</ele><time>2026-05-01T13:49:25.001Z</time></trkpt><trkpt lat="44.443895095694394" lon="11.342879034714437"><ele>117.0</ele><time>2026-05-01T13:49:26.001Z</time></trkpt><trkpt lat="44.443859546480745" lon="11.34271619514814"><ele>117.25</ele><time>2026-05-01T13:49:27.001Z</time></trkpt><trkpt lat="44.44380810729885" lon="11.342550969085352"><ele>117.5</ele><time>2026-05-01T13:49:28.001Z</time></trkpt><trkpt lat="44.44375524051512" lon="11.342371652390712"><ele>117.75</ele><time>2026-05-01T13:49:29.001Z</time></trkpt><trkpt lat="44.44370079732155" lon="11.342184808047016"><ele>118.0</ele><time>2026-05-01T13:49:30.001Z</time></trkpt><trkpt lat="44.443648089549" lon="11.34198886769981"><ele>118.0</ele><time>2026-05-01T13:49:31.001Z</time></trkpt><trkpt lat="44.44359427179452" lon="11.341789432435167"><ele>118.0</ele><time>2026-05-01T13:49:32.001Z</time></trkpt><trkpt lat="44.44354182178898" lon="11.341605914665207"><ele>118.0</ele><time>2026-05-01T13:49:33.001Z</time></trkpt><trkpt lat="44.44350687429119" lon="11.341448677739654"><ele>118.0</ele><time>2026-05-01T13:49:34.001Z</time></trkpt><trkpt lat="44.44346212067707" lon="11.341308417985731"><ele>118.0</ele><time>2026-05-01T13:49:35.001Z</time></trkpt><trkpt lat="44.44342088504522" lon="11.341177815064519"><ele>118.00000000000001</ele><time>2026-05-01T13:49:36.001Z</time></trkpt><trkpt lat="44.443382413614344" lon="11.341057161832634"><ele>118.00000000000001</ele><time>2026-05-01T13:49:37.001Z</time></trkpt><trkpt lat="44.44333439952708" lon="11.340916284629532"><ele>118.0</ele><time>2026-05-01T13:49:38.001Z</time></trkpt><trkpt lat="44.4432961502909" lon="11.340777756362073"><ele>118.0</ele><time>2026-05-01T13:49:39.001Z</time></trkpt><trkpt lat="44.443258338752" lon="11.340640574389644"><ele>119.0</ele><time>2026-05-01T13:49:40.001Z</time></trkpt><trkpt lat="44.44321278087614" lon="11.340513864475703"><ele>120.00000000000001</ele><time>2026-05-01T13:49:41.001Z</time></trkpt><trkpt lat="44.443172626339525" lon="11.340423684244604"><ele>121.00000000000001</ele><time>2026-05-01T13:49:42.001Z</time></trkpt><trkpt lat="44.44310444410902" lon="11.340351316662867"><ele>122.0</ele><time>2026-05-01T13:49:43.002Z</time></trkpt><trkpt lat="44.44301001061999" lon="11.3403036224953"><ele>123.0</ele><time>2026-05-01T13:49:44.002Z</time></trkpt><trkpt lat="44.44291713569652" lon="11.34027770545261"><ele>123.0</ele><time>2026-05-01T13:49:45.002Z</time></trkpt><trkpt lat="44.442831456989765" lon="11.340225557964462"><ele>123.00000000000001</ele><time>2026-05-01T13:49:46.002Z</time></trkpt><trkpt lat="44.44276926146149" lon="11.340115624271466"><ele>123.00000000000001</ele><time>2026-05-01T13:49:47.002Z</time></trkpt><trkpt lat="44.442727937212254" lon="11.340009431159679"><ele>123.0</ele><time>2026-05-01T13:49:48.002Z</time></trkpt><trkpt lat="44.44266291006272" lon="11.339904097638367"><ele>123.0</ele><time>2026-05-01T13:49:49.002Z</time></trkpt><trkpt lat="44.442608186355656" lon="11.33975944135758"><ele>124.2</ele><time>2026-05-01T13:49:50.002Z</time></trkpt><trkpt lat="44.44253548685186" lon="11.339624337392396"><ele>125.4</ele><time>2026-05-01T13:49:51.002Z</time></trkpt><trkpt lat="44.442464958763296" lon="11.339501331098322"><ele>126.60000000000001</ele><time>2026-05-01T13:49:52.002Z</time></trkpt><trkpt lat="44.442409053234876" lon="11.339400425829025"><ele>127.80000000000001</ele><time>2026-05-01T13:49:53.002Z</time></trkpt><trkpt lat="44.4423473371048" lon="11.339325373329356"><ele>129.0</ele><time>2026-05-01T13:49:54.002Z</time></trkpt><trkpt lat="44.442279222260886" lon="11.339257693648486"><ele>129.0</ele><time>2026-05-01T13:49:55.002Z</time></trkpt><trkpt lat="44.442215338176695" lon="11.339176076882616"><ele>129.0</ele><time>2026-05-01T13:49:56.002Z</time></trkpt><trkpt lat="44.442168169993685" lon="11.339089244026919"><ele>129.0</ele><time>2026-05-01T13:49:57.002Z</time></trkpt><trkpt lat="44.442147912147966" lon="11.338981555936947"><ele>129.0</ele><time>2026-05-01T13:49:58.002Z</time></trkpt><trkpt lat="44.44211802292552" lon="11.338842636422136"><ele>129.0</ele><time>2026-05-01T13:49:59.002Z</time></trkpt><trkpt lat="44.44208447506016" lon="11.338711827501555"><ele>129.0</ele><time>2026-05-01T13:50:00.002Z</time></trkpt><trkpt lat="44.4420363259729" lon="11.338569094597695"><ele>129.25</ele><time>2026-05-01T13:50:01.002Z</time></trkpt><trkpt lat="44.44197217736999" lon="11.338431486702175"><ele>129.5</ele><time>2026-05-01T13:50:02.002Z</time></trkpt><trkpt lat="44.44190343540738" lon="11.338279042333777"><ele>129.75</ele><time>2026-05-01T13:50:03.002Z</time></trkpt><trkpt lat="44.44183946784179" lon="11.338137466681316"><ele>130.0</ele><time>2026-05-01T13:50:04.002Z</time></trkpt><trkpt lat="44.441773940848144" lon="11.337992231809956"><ele>130.0</ele><time>2026-05-01T13:50:05.002Z</time></trkpt><trkpt lat="44.44172478877691" lon="11.33783430793238"><ele>130.0</ele><time>2026-05-01T13:50:06Z</time></trkpt><trkpt lat="44.44168627357197" lon="11.33769025031949"><ele>130.0</ele><time>2026-05-01T13:50:07Z</time></trkpt><trkpt lat="44.44164259878588" lon="11.337549773182255"><ele>130.0</ele><time>2026-05-01T13:50:08Z</time></trkpt><trkpt lat="44.44162390801619" lon="11.33738741408441"><ele>129.5</ele><time>2026-05-01T13:50:09Z</time></trkpt><trkpt lat="44.44161416116697" lon="11.337217747621718"><ele>129.0</ele><time>2026-05-01T13:50:10Z</time></trkpt><trkpt lat="44.44159719801505" lon="11.337025003736331"><ele>128.5</ele><time>2026-05-01T13:50:11Z</time></trkpt><trkpt lat="44.44157103781512" lon="11.33682799212348"><ele>128.0</ele><time>2026-05-01T13:50:12Z</time></trkpt><trkpt lat="44.44154523526599" lon="11.33664618167541"><ele>128.0</ele><time>2026-05-01T13:50:13Z</time></trkpt><trkpt lat="44.44151380140565" lon="11.336455229362045"><ele>128.0</ele><time>2026-05-01T13:50:14Z</time></trkpt><trkpt lat="44.44148588280329" lon="11.336279641573666"><ele>128.0</ele><time>2026-05-01T13:50:15Z</time></trkpt><trkpt lat="44.44146982361788" lon="11.33610373129523"><ele>128.0</ele><time>2026-05-01T13:50:16Z</time></trkpt><trkpt lat="44.44145807681848" lon="11.335946774618677"><ele>128.20000000000002</ele><time>2026-05-01T13:50:17Z</time></trkpt><trkpt lat="44.441457564013255" lon="11.335810882378155"><ele>128.4</ele><time>2026-05-01T13:50:18Z</time></trkpt><trkpt lat="44.4414687869814" lon="11.335661910126838"><ele>128.60000000000002</ele><time>2026-05-01T13:50:18.999Z</time></trkpt><trkpt lat="44.441475789653055" lon="11.335508898814792"><ele>128.8</ele><time>2026-05-01T13:50:20Z</time></trkpt><trkpt lat="44.44147831927783" lon="11.335363093319966"><ele>129.0</ele><time>2026-05-01T13:50:21Z</time></trkpt><trkpt lat="44.4414776394147" lon="11.335250761015734"><ele>129.0</ele><time>2026-05-01T13:50:22Z</time></trkpt><trkpt lat="44.441495533106284" lon="11.335122224933047"><ele>129.0</ele><time>2026-05-01T13:50:23Z</time></trkpt><trkpt lat="44.441544413434904" lon="11.334950087626137"><ele>129.0</ele><time>2026-05-01T13:50:24Z</time></trkpt><trkpt lat="44.44162008991901" lon="11.33477981174264"><ele>129.0</ele><time>2026-05-01T13:50:25Z</time></trkpt><trkpt lat="44.44167740749432" lon="11.334613044010409"><ele>129.5</ele><time>2026-05-01T13:50:26Z</time></trkpt><trkpt lat="44.44173659760265" lon="11.334430032091639"><ele>130.0</ele><time>2026-05-01T13:50:27Z</time></trkpt><trkpt lat="44.44179797205738" lon="11.334259768376052"><ele>130.5</ele><time>2026-05-01T13:50:28Z</time></trkpt><trkpt lat="44.44186392357004" lon="11.334062814506911"><ele>131.0</ele><time>2026-05-01T13:50:29Z</time></trkpt><trkpt lat="44.44191125251588" lon="11.333869384790688"><ele>131.75</ele><time>2026-05-01T13:50:30Z</time></trkpt><trkpt lat="44.441954697946066" lon="11.333681724750354"><ele>132.5</ele><time>2026-05-01T13:50:31Z</time></trkpt><trkpt lat="44.4419888104635" lon="11.333510585140148"><ele>133.25</ele><time>2026-05-01T13:50:32Z</time></trkpt><trkpt lat="44.44202190652462" lon="11.333344028245937"><ele>134.0</ele><time>2026-05-01T13:50:33Z</time></trkpt><trkpt lat="44.442045875057346" lon="11.333192366014831"><ele>134.0</ele><time>2026-05-01T13:50:34Z</time></trkpt><trkpt lat="44.442061668874764" lon="11.333060282903778"><ele>134.0</ele><time>2026-05-01T13:50:35Z</time></trkpt><trkpt lat="44.442056850384546" lon="11.332925950616854"><ele>134.0</ele><time>2026-05-01T13:50:36Z</time></trkpt><trkpt lat="44.44203898367171" lon="11.332789933915732"><ele>134.0</ele><time>2026-05-01T13:50:37Z</time></trkpt><trkpt lat="44.44201644590658" lon="11.332655984791687"><ele>134.0</ele><time>2026-05-01T13:50:38Z</time></trkpt><trkpt lat="44.441981860866235" lon="11.332550033813913"><ele>133.25</ele><time>2026-05-01T13:50:39Z</time></trkpt><trkpt lat="44.44190093875855" lon="11.332447585167879"><ele>132.5</ele><time>2026-05-01T13:50:40Z</time></trkpt><trkpt lat="44.44180734671136" lon="11.332357392413485"><ele>131.75</ele><time>2026-05-01T13:50:41Z</time></trkpt><trkpt lat="44.441704975337714" lon="11.332281927685612"><ele>131.0</ele><time>2026-05-01T13:50:42Z</time></trkpt><trkpt lat="44.44157999920187" lon="11.332224204127856"><ele>130.25</ele><time>2026-05-01T13:50:43Z</time></trkpt><trkpt lat="44.44144632088946" lon="11.332174628814734"><ele>129.5</ele><time>2026-05-01T13:50:44Z</time></trkpt><trkpt lat="44.44129651747743" lon="11.332112454810595"><ele>128.75</ele><time>2026-05-01T13:50:45Z</time></trkpt><trkpt lat="44.44116456378659" lon="11.332017712692434"><ele>128.0</ele><time>2026-05-01T13:50:46Z</time></trkpt><trkpt lat="44.44105624579793" lon="11.331928940777818"><ele>127.2</ele><time>2026-05-01T13:50:47Z</time></trkpt><trkpt lat="44.44093491472603" lon="11.33184536938031"><ele>126.4</ele><time>2026-05-01T13:50:48Z</time></trkpt><trkpt lat="44.44083309412086" lon="11.331784827582645"><ele>125.60000000000001</ele><time>2026-05-01T13:50:49Z</time></trkpt><trkpt lat="44.44074548270367" lon="11.331699225574207"><ele>124.80000000000001</ele><time>2026-05-01T13:50:50Z</time></trkpt><trkpt lat="44.44068113304657" lon="11.331599939885308"><ele>124.0</ele><time>2026-05-01T13:50:51Z</time></trkpt><trkpt lat="44.440631370773275" lon="11.331510832441012"><ele>124.0</ele><time>2026-05-01T13:50:52Z</time></trkpt><trkpt lat="44.440582212713835" lon="11.331424855304608"><ele>124.0</ele><time>2026-05-01T13:50:53Z</time></trkpt><trkpt lat="44.44052613520907" lon="11.331300102529932"><ele>124.0</ele><time>2026-05-01T13:50:54Z</time></trkpt><trkpt lat="44.440481849496564" lon="11.331160964401763"><ele>124.0</ele><time>2026-05-01T13:50:55Z</time></trkpt><trkpt lat="44.44045239966851" lon="11.330970189653762"><ele>124.0</ele><time>2026-05-01T13:50:56Z</time></trkpt><trkpt lat="44.440406831397915" lon="11.330808178939453"><ele>126.5</ele><time>2026-05-01T13:50:57Z</time></trkpt><trkpt lat="44.44035378227169" lon="11.330634181263244"><ele>129.0</ele><time>2026-05-01T13:50:58Z</time></trkpt><trkpt lat="44.440316329367" lon="11.330450334053015"><ele>131.5</ele><time>2026-05-01T13:50:59Z</time></trkpt><trkpt lat="44.44029744975155" lon="11.330276743704294"><ele>134.0</ele><time>2026-05-01T13:51:00Z</time></trkpt><trkpt lat="44.44028686837841" lon="11.330094366974986"><ele>134.0</ele><time>2026-05-01T13:51:01Z</time></trkpt><trkpt lat="44.4402834286618" lon="11.329893261059448"><ele>134.0</ele><time>2026-05-01T13:51:02Z</time></trkpt><trkpt lat="44.440276118657074" lon="11.329701715439887"><ele>134.0</ele><time>2026-05-01T13:51:03Z</time></trkpt><trkpt lat="44.440257502792896" lon="11.3294986779078"><ele>134.0</ele><time>2026-05-01T13:51:04Z</time></trkpt><trkpt lat="44.44024887370985" lon="11.329316512501165"><ele>133.75</ele><time>2026-05-01T13:51:05Z</time></trkpt><trkpt lat="44.440211810742504" lon="11.329136613799445"><ele>133.5</ele><time>2026-05-01T13:51:06Z</time></trkpt><trkpt lat="44.440173126848116" lon="11.328952505057053"><ele>133.25</ele><time>2026-05-01T13:51:07Z</time></trkpt><trkpt lat="44.44012919383558" lon="11.328770438527211"><ele>133.0</ele><time>2026-05-01T13:51:08.001Z</time></trkpt><trkpt lat="44.44009244927339" lon="11.32859591194976"><ele>133.20000000000002</ele><time>2026-05-01T13:51:09.001Z</time></trkpt><trkpt lat="44.44006320070834" lon="11.328439698438068"><ele>133.4</ele><time>2026-05-01T13:51:10.001Z</time></trkpt><trkpt lat="44.44004368664628" lon="11.328314394992816"><ele>133.60000000000002</ele><time>2026-05-01T13:51:11.001Z</time></trkpt><trkpt lat="44.44004888895867" lon="11.328182589085456"><ele>133.8</ele><time>2026-05-01T13:51:12.001Z</time></trkpt><trkpt lat="44.440067118121895" lon="11.328050201634134"><ele>134.0</ele><time>2026-05-01T13:51:13.001Z</time></trkpt><trkpt lat="44.44013051980818" lon="11.327917336680011"><ele>134.0</ele><time>2026-05-01T13:51:14.001Z</time></trkpt><trkpt lat="44.44018991352588" lon="11.327789239710135"><ele>134.0</ele><time>2026-05-01T13:51:15.001Z</time></trkpt><trkpt lat="44.44026233939503" lon="11.327640801255649"><ele>134.0</ele><time>2026-05-01T13:51:16.001Z</time></trkpt><trkpt lat="44.44031242178099" lon="11.327482380063756"><ele>134.0</ele><time>2026-05-01T13:51:17.001Z</time></trkpt><trkpt lat="44.44036067219024" lon="11.327309815314093"><ele>133.5</ele><time>2026-05-01T13:51:18.001Z</time></trkpt><trkpt lat="44.440421862737274" lon="11.327139781135847"><ele>133.0</ele><time>2026-05-01T13:51:19.001Z</time></trkpt><trkpt lat="44.44046646811354" lon="11.326936827458857"><ele>132.5</ele><time>2026-05-01T13:51:20.001Z</time></trkpt><trkpt lat="44.440490598901015" lon="11.326745083315624"><ele>132.0</ele><time>2026-05-01T13:51:21.001Z</time></trkpt><trkpt lat="44.44052948041515" lon="11.326600607931024"><ele>132.0</ele><time>2026-05-01T13:51:22.001Z</time></trkpt><trkpt lat="44.44057963731632" lon="11.326436205093902"><ele>132.0</ele><time>2026-05-01T13:51:23.001Z</time></trkpt><trkpt lat="44.44063859097468" lon="11.326308772001338"><ele>132.0</ele><time>2026-05-01T13:51:24.001Z</time></trkpt><trkpt lat="44.44071942067053" lon="11.326193051161587"><ele>132.0</ele><time>2026-05-01T13:51:25.001Z</time></trkpt><trkpt lat="44.44081882661989" lon="11.326065843207633"><ele>134.33333333333334</ele><time>2026-05-01T13:51:26.001Z</time></trkpt><trkpt lat="44.44094100412429" lon="11.325926884350748"><ele>136.66666666666669</ele><time>2026-05-01T13:51:27.001Z</time></trkpt><trkpt lat="44.44105910571242" lon="11.325750370099243"><ele>139.0</ele><time>2026-05-01T13:51:28.001Z</time></trkpt><trkpt lat="44.44115087800533" lon="11.325602207406106"><ele>138.5</ele><time>2026-05-01T13:51:29.001Z</time></trkpt><trkpt lat="44.44124149047445" lon="11.325472660177978"><ele>138.0</ele><time>2026-05-01T13:51:30.001Z</time></trkpt><trkpt lat="44.441320934526274" lon="11.32536371326783"><ele>137.5</ele><time>2026-05-01T13:51:31.001Z</time></trkpt><trkpt lat="44.44138803900269" lon="11.325245786985327"><ele>137.0</ele><time>2026-05-01T13:51:32.001Z</time></trkpt><trkpt lat="44.441435391529076" lon="11.325110754415933"><ele>137.0</ele><time>2026-05-01T13:51:33.001Z</time></trkpt><trkpt lat="44.44146994074912" lon="11.324998834357386"><ele>137.0</ele><time>2026-05-01T13:51:34.001Z</time></trkpt><trkpt lat="44.44148319135741" lon="11.324886048555696"><ele>137.0</ele><time>2026-05-01T13:51:35.001Z</time></trkpt><trkpt lat="44.441507995782075" lon="11.324781651374924"><ele>137.0</ele><time>2026-05-01T13:51:36.001Z</time></trkpt><trkpt lat="44.441512304045474" lon="11.324651964498438"><ele>137.0</ele><time>2026-05-01T13:51:37.001Z</time></trkpt><trkpt lat="44.44150137561133" lon="11.32448411006965"><ele>138.5</ele><time>2026-05-01T13:51:38.001Z</time></trkpt><trkpt lat="44.4414546894232" lon="11.324331152063"><ele>140.0</ele><time>2026-05-01T13:51:39.001Z</time></trkpt><trkpt lat="44.441403535751334" lon="11.324186477309759"><ele>141.5</ele><time>2026-05-01T13:51:40.001Z</time></trkpt><trkpt lat="44.44132840184389" lon="11.324053623608691"><ele>143.0</ele><time>2026-05-01T13:51:41.001Z</time></trkpt><trkpt lat="44.44124249957656" lon="11.323917942652294"><ele>144.20000000000002</ele><time>2026-05-01T13:51:42.001Z</time></trkpt><trkpt lat="44.44115278954249" lon="11.323813331419009"><ele>145.4</ele><time>2026-05-01T13:51:43.001Z</time></trkpt><trkpt lat="44.441073312009436" lon="11.323726580602784"><ele>146.60000000000002</ele><time>2026-05-01T13:51:44.001Z</time></trkpt><trkpt lat="44.4410167274838" lon="11.32365033377601"><ele>147.8</ele><time>2026-05-01T13:51:45.001Z</time></trkpt><trkpt lat="44.44096948206911" lon="11.323561656959605"><ele>149.0</ele><time>2026-05-01T13:51:46.001Z</time></trkpt><trkpt lat="44.440938621327255" lon="11.323433046295111"><ele>149.0</ele><time>2026-05-01T13:51:47.001Z</time></trkpt><trkpt lat="44.44094359248969" lon="11.32329892828642"><ele>149.0</ele><time>2026-05-01T13:51:48.001Z</time></trkpt><trkpt lat="44.44092202148519" lon="11.323142033384578"><ele>149.0</ele><time>2026-05-01T13:51:49.001Z</time></trkpt><trkpt lat="44.44090930729351" lon="11.32298400981399"><ele>149.0</ele><time>2026-05-01T13:51:50.001Z</time></trkpt><trkpt lat="44.44088972793228" lon="11.322841654217145"><ele>149.0</ele><time>2026-05-01T13:51:51.001Z</time></trkpt><trkpt lat="44.44088555921513" lon="11.322694077417866"><ele>149.0</ele><time>2026-05-01T13:51:52.001Z</time></trkpt><trkpt lat="44.44089716891457" lon="11.322540333838171"><ele>149.0</ele><time>2026-05-01T13:51:53.001Z</time></trkpt><trkpt lat="44.44092682836027" lon="11.322368593859368"><ele>149.0</ele><time>2026-05-01T13:51:54.001Z</time></trkpt><trkpt lat="44.4409712483913" lon="11.322191893132828"><ele>149.0</ele><time>2026-05-01T13:51:55.001Z</time></trkpt><trkpt lat="44.44100609079" lon="11.322009616814311"><ele>149.75</ele><time>2026-05-01T13:51:56.001Z</time></trkpt><trkpt lat="44.441014420001395" lon="11.321812629169168"><ele>150.5</ele><time>2026-05-01T13:51:57.001Z</time></trkpt><trkpt lat="44.44100841524861" lon="11.32163239479725"><ele>151.25</ele><time>2026-05-01T13:51:58.001Z</time></trkpt><trkpt lat="44.44100355040096" lon="11.32148067017145"><ele>152.0</ele><time>2026-05-01T13:51:59.001Z</time></trkpt><trkpt lat="44.44102436402573" lon="11.321356389289537"><ele>152.57142857142856</ele><time>2026-05-01T13:52:00.001Z</time></trkpt><trkpt lat="44.44106199179775" lon="11.321281397096499"><ele>153.14285714285717</ele><time>2026-05-01T13:52:01.001Z</time></trkpt><trkpt lat="44.44112348866852" lon="11.321258131059913"><ele>153.71428571428572</ele><time>2026-05-01T13:52:02.001Z</time></trkpt><trkpt lat="44.44117610311977" lon="11.321194017312383"><ele>154.28571428571428</ele><time>2026-05-01T13:52:03.001Z</time></trkpt><trkpt lat="44.44123700092154" lon="11.321119569692591"><ele>154.85714285714283</ele><time>2026-05-01T13:52:04.001Z</time></trkpt><trkpt lat="44.44129696598681" lon="11.321038644512354"><ele>155.42857142857144</ele><time>2026-05-01T13:52:05.002Z</time></trkpt><trkpt lat="44.44134920885549" lon="11.32095741733833"><ele>156.0</ele><time>2026-05-01T13:52:06.002Z</time></trkpt><trkpt lat="44.44140257373952" lon="11.32087936295896"><ele>156.0</ele><time>2026-05-01T13:52:07.002Z</time></trkpt><trkpt lat="44.44146556952033" lon="11.320822343332992"><ele>156.0</ele><time>2026-05-01T13:52:08.002Z</time></trkpt><trkpt lat="44.4415462702546" lon="11.32083090903302"><ele>156.0</ele><time>2026-05-01T13:52:09.002Z</time></trkpt><trkpt lat="44.44163112142558" lon="11.320789840414797"><ele>156.0</ele><time>2026-05-01T13:52:10.002Z</time></trkpt><trkpt lat="44.44171285694931" lon="11.320776626884074"><ele>156.0</ele><time>2026-05-01T13:52:11.002Z</time></trkpt><trkpt lat="44.441775729221725" lon="11.320722597133217"><ele>156.0</ele><time>2026-05-01T13:52:11.994Z</time></trkpt><trkpt lat="44.44181759918539" lon="11.32062762960496"><ele>156.0</ele><time>2026-05-01T13:52:12.994Z</time></trkpt><trkpt lat="44.44188957841926" lon="11.320517379870125"><ele>156.0</ele><time>2026-05-01T13:52:13.994Z</time></trkpt><trkpt lat="44.441960188348936" lon="11.320410801303362"><ele>156.0</ele><time>2026-05-01T13:52:14.994Z</time></trkpt><trkpt lat="44.442041160748126" lon="11.320329451672896"><ele>156.0</ele><time>2026-05-01T13:52:15.994Z</time></trkpt><trkpt lat="44.44211349373927" lon="11.320258465273808"><ele>156.0</ele><time>2026-05-01T13:52:16.994Z</time></trkpt><trkpt lat="44.44217096612865" lon="11.320168058321508"><ele>157.83333333333334</ele><time>2026-05-01T13:52:17.994Z</time></trkpt><trkpt lat="44.44223766311486" lon="11.32010446474896"><ele>159.66666666666666</ele><time>2026-05-01T13:52:18.994Z</time></trkpt><trkpt lat="44.44231604067426" lon="11.320053942132844"><ele>161.5</ele><time>2026-05-01T13:52:19.994Z</time></trkpt><trkpt lat="44.44239214785992" lon="11.320021262075779"><ele>163.33333333333331</ele><time>2026-05-01T13:52:20.994Z</time></trkpt><trkpt lat="44.44248069865228" lon="11.32000275454274"><ele>165.16666666666666</ele><time>2026-05-01T13:52:21.994Z</time></trkpt><trkpt lat="44.44257844345658" lon="11.319994460355012"><ele>167.0</ele><time>2026-05-01T13:52:22.994Z</time></trkpt><trkpt lat="44.44267720095642" lon="11.32001097359078"><ele>167.0</ele><time>2026-05-01T13:52:23.994Z</time></trkpt><trkpt lat="44.442779860841846" lon="11.320026637856131"><ele>167.0</ele><time>2026-05-01T13:52:24.995Z</time></trkpt><trkpt lat="44.442894691015994" lon="11.320029092169728"><ele>167.0</ele><time>2026-05-01T13:52:25.995Z</time></trkpt><trkpt lat="44.4430006748158" lon="11.320057183682069"><ele>167.0</ele><time>2026-05-01T13:52:26.995Z</time></trkpt><trkpt lat="44.44311138932739" lon="11.320092666282287"><ele>167.0</ele><time>2026-05-01T13:52:27.995Z</time></trkpt><trkpt lat="44.443220983788414" lon="11.320128854851395"><ele>170.0</ele><time>2026-05-01T13:52:28.995Z</time></trkpt><trkpt lat="44.44334174673066" lon="11.320168451542346"><ele>173.0</ele><time>2026-05-01T13:52:29.995Z</time></trkpt><trkpt lat="44.44346458977592" lon="11.320210900876834"><ele>176.0</ele><time>2026-05-01T13:52:30.996Z</time></trkpt><trkpt lat="44.44355263785717" lon="11.320241743614332"><ele>179.0</ele><time>2026-05-01T13:52:31.996Z</time></trkpt><trkpt lat="44.443642294911776" lon="11.320278941181556"><ele>182.0</ele><time>2026-05-01T13:52:32.996Z</time></trkpt><trkpt lat="44.44372198408914" lon="11.320286127722774"><ele>184.5</ele><time>2026-05-01T13:52:33.996Z</time></trkpt><trkpt lat="44.443804724412736" lon="11.320258697792779"><ele>187.0</ele><time>2026-05-01T13:52:34.996Z</time></trkpt><trkpt lat="44.44390885399735" lon="11.320249607793409"><ele>189.5</ele><time>2026-05-01T13:52:35.996Z</time></trkpt><trkpt lat="44.44398565285945" lon="11.320218518839916"><ele>192.0</ele><time>2026-05-01T13:52:36.996Z</time></trkpt><trkpt lat="44.44405646172277" lon="11.320199869218245"><ele>194.50000000000003</ele><time>2026-05-01T13:52:37.997Z</time></trkpt><trkpt lat="44.44413300094141" lon="11.320148858025943"><ele>197.0</ele><time>2026-05-01T13:52:38.997Z</time></trkpt><trkpt lat="44.44420878337196" lon="11.320085293596103"><ele>197.0</ele><time>2026-05-01T13:52:39.997Z</time></trkpt><trkpt lat="44.44429453438485" lon="11.320013574649671"><ele>197.0</ele><time>2026-05-01T13:52:40.997Z</time></trkpt><trkpt lat="44.4443723338221" lon="11.31996148610782"><ele>197.0</ele><time>2026-05-01T13:52:41.997Z</time></trkpt><trkpt lat="44.44444585888599" lon="11.319932491296644"><ele>197.0</ele><time>2026-05-01T13:52:42.997Z</time></trkpt><trkpt lat="44.444567792884534" lon="11.31986039372771"><ele>197.0</ele><time>2026-05-01T13:52:44.997Z</time></trkpt><trkpt lat="44.444649874977564" lon="11.319771993064604"><ele>198.0</ele><time>2026-05-01T13:52:45.997Z</time></trkpt><trkpt lat="44.444729142642664" lon="11.319654586652076"><ele>199.0</ele><time>2026-05-01T13:52:46.997Z</time></trkpt><trkpt lat="44.44478345112738" lon="11.319571928935527"><ele>200.0</ele><time>2026-05-01T13:52:47.997Z</time></trkpt><trkpt lat="44.4448623843016" lon="11.319499425399723"><ele>201.0</ele><time>2026-05-01T13:52:48.997Z</time></trkpt><trkpt lat="44.44490651163793" lon="11.319423889332858"><ele>202.0</ele><time>2026-05-01T13:52:49.998Z</time></trkpt><trkpt lat="44.44503923720623" lon="11.31926478788745"><ele>202.0</ele><time>2026-05-01T13:52:50.998Z</time></trkpt><trkpt lat="44.44508724146203" lon="11.319199675874344"><ele>202.0</ele><time>2026-05-01T13:52:51.998Z</time></trkpt><trkpt lat="44.44517708177319" lon="11.31906507943998"><ele>202.0</ele><time>2026-05-01T13:52:52.998Z</time></trkpt><trkpt lat="44.445260909743865" lon="11.318986323094343"><ele>202.0</ele><time>2026-05-01T13:52:53.998Z</time></trkpt><trkpt lat="44.44535620294691" lon="11.318945276363973"><ele>202.0</ele><time>2026-05-01T13:52:54.998Z</time></trkpt><trkpt lat="44.44546412955578" lon="11.318933201031788"><ele>203.2</ele><time>2026-05-01T13:52:55.998Z</time></trkpt><trkpt lat="44.44556074537548" lon="11.318966789057155"><ele>204.39999999999998</ele><time>2026-05-01T13:52:56.998Z</time></trkpt><trkpt lat="44.4456457432551" lon="11.319014257627963"><ele>205.60000000000002</ele><time>2026-05-01T13:52:57.998Z</time></trkpt><trkpt lat="44.44572258471682" lon="11.319093752657942"><ele>206.8</ele><time>2026-05-01T13:52:58.998Z</time></trkpt><trkpt lat="44.44577422126984" lon="11.319223913230687"><ele>208.0</ele><time>2026-05-01T13:52:59.998Z</time></trkpt><trkpt lat="44.44583205528433" lon="11.319351076950214"><ele>208.0</ele><time>2026-05-01T13:53:00.998Z</time></trkpt><trkpt lat="44.445893560580295" lon="11.319486537252308"><ele>208.0</ele><time>2026-05-01T13:53:01.998Z</time></trkpt><trkpt lat="44.44594962411777" lon="11.319631869556604"><ele>208.0</ele><time>2026-05-01T13:53:02.998Z</time></trkpt><trkpt lat="44.446001175208416" lon="11.319766073871126"><ele>208.0</ele><time>2026-05-01T13:53:03.998Z</time></trkpt><trkpt lat="44.44605398400402" lon="11.319871002916507"><ele>208.0</ele><time>2026-05-01T13:53:04.998Z</time></trkpt><trkpt lat="44.446085783961045" lon="11.320006906974806"><ele>208.60000000000002</ele><time>2026-05-01T13:53:06.998Z</time></trkpt><trkpt lat="44.446101720281085" lon="11.320177301154963"><ele>209.20000000000002</ele><time>2026-05-01T13:53:08.998Z</time></trkpt><trkpt lat="44.44608605604155" lon="11.320296360893481"><ele>209.8</ele><time>2026-05-01T13:53:09.999Z</time></trkpt><trkpt lat="44.44606170993978" lon="11.320423949662581"><ele>210.4</ele><time>2026-05-01T13:53:10.999Z</time></trkpt><trkpt lat="44.44601615561012" lon="11.320541854564036"><ele>211.0</ele><time>2026-05-01T13:53:11.999Z</time></trkpt><trkpt lat="44.44600054251624" lon="11.320632636132713"><ele>212.0</ele><time>2026-05-01T13:53:12.999Z</time></trkpt><trkpt lat="44.44602017179304" lon="11.320755421792423"><ele>213.0</ele><time>2026-05-01T13:53:15.999Z</time></trkpt><trkpt lat="44.44622483462774" lon="11.320697798117449"><ele>214.0</ele><time>2026-05-01T13:53:18.999Z</time></trkpt><trkpt lat="44.44631647831244" lon="11.32063411759037"><ele>215.0</ele><time>2026-05-01T13:53:19.999Z</time></trkpt><trkpt lat="44.446464627549304" lon="11.320562658125372"><ele>216.0</ele><time>2026-05-01T13:53:20.999Z</time></trkpt><trkpt lat="44.44659113900479" lon="11.320473299590066"><ele>217.0</ele><time>2026-05-01T13:53:21.999Z</time></trkpt><trkpt lat="44.44668919500858" lon="11.32038842705556"><ele>218.0</ele><time>2026-05-01T13:53:22.999Z</time></trkpt><trkpt lat="44.446779092780574" lon="11.320265296208147"><ele>219.0</ele><time>2026-05-01T13:53:23.999Z</time></trkpt><trkpt lat="44.44684224534922" lon="11.320139102770648"><ele>219.0</ele><time>2026-05-01T13:53:24.999Z</time></trkpt><trkpt lat="44.44691475446898" lon="11.320020223324374"><ele>218.99999999999997</ele><time>2026-05-01T13:53:25.999Z</time></trkpt><trkpt lat="44.446942951154014" lon="11.319893531697915"><ele>218.99999999999997</ele><time>2026-05-01T13:53:26.999Z</time></trkpt><trkpt lat="44.44697105565894" lon="11.319746426791118"><ele>219.0</ele><time>2026-05-01T13:53:27.999Z</time></trkpt><trkpt lat="44.44695414870183" lon="11.319608563113412"><ele>219.0</ele><time>2026-05-01T13:53:28.999Z</time></trkpt><trkpt lat="44.4469269712193" lon="11.319457261809216"><ele>220.25</ele><time>2026-05-01T13:53:29.999Z</time></trkpt><trkpt lat="44.446882608579564" lon="11.319315621926398"><ele>221.5</ele><time>2026-05-01T13:53:30.999Z</time></trkpt><trkpt lat="44.44684364439574" lon="11.319112349100081"><ele>222.75</ele><time>2026-05-01T13:53:31.999Z</time></trkpt><trkpt lat="44.44684801962344" lon="11.318894691658217"><ele>224.0</ele><time>2026-05-01T13:53:32.999Z</time></trkpt><trkpt lat="44.446844618639524" lon="11.318727164223796"><ele>225.25</ele><time>2026-05-01T13:53:33.999Z</time></trkpt><trkpt lat="44.446842910596544" lon="11.318565118493236"><ele>226.5</ele><time>2026-05-01T13:53:34.999Z</time></trkpt><trkpt lat="44.44684098624866" lon="11.318395769325539"><ele>227.75</ele><time>2026-05-01T13:53:35.999Z</time></trkpt><trkpt lat="44.44682518225712" lon="11.31821995483419"><ele>229.0</ele><time>2026-05-01T13:53:36.999Z</time></trkpt><trkpt lat="44.44681392164757" lon="11.318053457031775"><ele>229.79999999999998</ele><time>2026-05-01T13:53:37.999Z</time></trkpt><trkpt lat="44.44681135028041" lon="11.317910272123148"><ele>230.59999999999997</ele><time>2026-05-01T13:53:39Z</time></trkpt><trkpt lat="44.446808158568615" lon="11.317807555414475"><ele>231.4</ele><time>2026-05-01T13:53:40Z</time></trkpt><trkpt lat="44.44683815594056" lon="11.317705069708856"><ele>232.2</ele><time>2026-05-01T13:53:41Z</time></trkpt><trkpt lat="44.446870215503154" lon="11.317581486416604"><ele>233.0</ele><time>2026-05-01T13:53:42Z</time></trkpt><trkpt lat="44.44692175334005" lon="11.317426876187001"><ele>233.0</ele><time>2026-05-01T13:53:43Z</time></trkpt><trkpt lat="44.446960236129215" lon="11.317289836528213"><ele>233.0</ele><time>2026-05-01T13:53:44Z</time></trkpt><trkpt lat="44.446994473320665" lon="11.31714499747342"><ele>233.0</ele><time>2026-05-01T13:53:45Z</time></trkpt><trkpt lat="44.44704966689731" lon="11.317057059580929"><ele>233.0</ele><time>2026-05-01T13:53:46Z</time></trkpt><trkpt lat="44.447100987032954" lon="11.316997759530201"><ele>233.0</ele><time>2026-05-01T13:53:47Z</time></trkpt><trkpt lat="44.44716110533717" lon="11.316865532521822"><ele>236.16666666666669</ele><time>2026-05-01T13:53:49Z</time></trkpt><trkpt lat="44.44719115283255" lon="11.316782126716804"><ele>239.33333333333334</ele><time>2026-05-01T13:53:50Z</time></trkpt><trkpt lat="44.44720867138644" lon="11.31667637301556"><ele>242.5</ele><time>2026-05-01T13:53:51Z</time></trkpt><trkpt lat="44.44722086868663" lon="11.31656158914878"><ele>245.66666666666669</ele><time>2026-05-01T13:53:52Z</time></trkpt><trkpt lat="44.4472340273746" lon="11.316435804715395"><ele>248.83333333333334</ele><time>2026-05-01T13:53:53Z</time></trkpt><trkpt lat="44.447263647860154" lon="11.316345074716352"><ele>252.0</ele><time>2026-05-01T13:53:54Z</time></trkpt><trkpt lat="44.447285230741066" lon="11.31626179516012"><ele>253.28571428571428</ele><time>2026-05-01T13:53:55Z</time></trkpt><trkpt lat="44.44729473747207" lon="11.316170029646441"><ele>254.57142857142856</ele><time>2026-05-01T13:53:56Z</time></trkpt><trkpt lat="44.44732856260712" lon="11.316084114332298"><ele>255.85714285714286</ele><time>2026-05-01T13:53:57Z</time></trkpt><trkpt lat="44.447365422568176" lon="11.315983465429584"><ele>257.1428571428571</ele><time>2026-05-01T13:53:58Z</time></trkpt><trkpt lat="44.447401187415835" lon="11.315896269748993"><ele>258.42857142857144</ele><time>2026-05-01T13:53:59Z</time></trkpt><trkpt lat="44.447443644190244" lon="11.315807012320509"><ele>259.7142857142857</ele><time>2026-05-01T13:54:00Z</time></trkpt><trkpt lat="44.44747650469493" lon="11.315724970421241"><ele>261.0</ele><time>2026-05-01T13:54:01Z</time></trkpt><trkpt lat="44.447515066740856" lon="11.315638323064105"><ele>261.0</ele><time>2026-05-01T13:54:02Z</time></trkpt><trkpt lat="44.44757616658437" lon="11.315589470077986"><ele>261.0</ele><time>2026-05-01T13:54:03Z</time></trkpt><trkpt lat="44.447686976330964" lon="11.315525532560558"><ele>261.0</ele><time>2026-05-01T13:54:05Z</time></trkpt><trkpt lat="44.44781233739544" lon="11.315528139911779"><ele>261.0</ele><time>2026-05-01T13:54:07Z</time></trkpt><trkpt lat="44.44789675154017" lon="11.315533665561501"><ele>261.0</ele><time>2026-05-01T13:54:09Z</time></trkpt><trkpt lat="44.44796570147311" lon="11.315525320963003"><ele>261.40000000000003</ele><time>2026-05-01T13:54:12Z</time></trkpt><trkpt lat="44.44785659006595" lon="11.315300558691355"><ele>261.8</ele><time>2026-05-01T13:54:17.001Z</time></trkpt><trkpt lat="44.44779665726116" lon="11.31524557310046"><ele>262.20000000000005</ele><time>2026-05-01T13:54:17.992Z</time></trkpt><trkpt lat="44.44772834301187" lon="11.315172820296988"><ele>262.6</ele><time>2026-05-01T13:54:18.993Z</time></trkpt><trkpt lat="44.44767408825973" lon="11.315083287863803"><ele>263.0</ele><time>2026-05-01T13:54:19.993Z</time></trkpt><trkpt lat="44.44763135590979" lon="11.314979320429288"><ele>263.0</ele><time>2026-05-01T13:54:20.994Z</time></trkpt><trkpt lat="44.447611030765785" lon="11.314873965643281"><ele>263.0</ele><time>2026-05-01T13:54:21.994Z</time></trkpt><trkpt lat="44.44761065346886" lon="11.314758365710595"><ele>263.0</ele><time>2026-05-01T13:54:22.994Z</time></trkpt><trkpt lat="44.44762622172676" lon="11.314624446805107"><ele>263.0</ele><time>2026-05-01T13:54:23.995Z</time></trkpt><trkpt lat="44.447644225583964" lon="11.314477410160912"><ele>263.0</ele><time>2026-05-01T13:54:24.995Z</time></trkpt><trkpt lat="44.44765687018788" lon="11.314332005902154"><ele>262.6</ele><time>2026-05-01T13:54:25.995Z</time></trkpt><trkpt lat="44.447673491619916" lon="11.314184432424021"><ele>262.20000000000005</ele><time>2026-05-01T13:54:26.996Z</time></trkpt><trkpt lat="44.44767605002389" lon="11.314049595781293"><ele>261.8</ele><time>2026-05-01T13:54:27.996Z</time></trkpt><trkpt lat="44.4476653831699" lon="11.3139311670549"><ele>261.40000000000003</ele><time>2026-05-01T13:54:28.996Z</time></trkpt><trkpt lat="44.44763620689742" lon="11.313823308448866"><ele>261.0</ele><time>2026-05-01T13:54:29.996Z</time></trkpt><trkpt lat="44.44759429892795" lon="11.313717712097349"><ele>261.0</ele><time>2026-05-01T13:54:30.997Z</time></trkpt><trkpt lat="44.44753217035188" lon="11.31361199031825"><ele>261.0</ele><time>2026-05-01T13:54:31.997Z</time></trkpt><trkpt lat="44.4474459099903" lon="11.313522673962364"><ele>261.0</ele><time>2026-05-01T13:54:32.997Z</time></trkpt><trkpt lat="44.44735024350598" lon="11.313451884460893"><ele>261.0</ele><time>2026-05-01T13:54:33.997Z</time></trkpt><trkpt lat="44.44725356250433" lon="11.313379999131119"><ele>261.0</ele><time>2026-05-01T13:54:34.997Z</time></trkpt><trkpt lat="44.4471510842651" lon="11.313320721392557"><ele>259.0</ele><time>2026-05-01T13:54:35.998Z</time></trkpt><trkpt lat="44.44704445656929" lon="11.31327007682455"><ele>257.0</ele><time>2026-05-01T13:54:36.998Z</time></trkpt><trkpt lat="44.44693632680156" lon="11.313227830294455"><ele>255.0</ele><time>2026-05-01T13:54:37.998Z</time></trkpt><trkpt lat="44.44682873241747" lon="11.313193463661452"><ele>253.0</ele><time>2026-05-01T13:54:38.998Z</time></trkpt><trkpt lat="44.446710403772656" lon="11.313177459142704"><ele>253.0</ele><time>2026-05-01T13:54:39.998Z</time></trkpt><trkpt lat="44.44658954566778" lon="11.313181366254954"><ele>253.0</ele><time>2026-05-01T13:54:40.998Z</time></trkpt><trkpt lat="44.44647491325514" lon="11.313191675560809"><ele>253.0</ele><time>2026-05-01T13:54:41.999Z</time></trkpt><trkpt lat="44.44635664487665" lon="11.313203355355549"><ele>253.0</ele><time>2026-05-01T13:54:42.999Z</time></trkpt><trkpt lat="44.44624336797599" lon="11.313202619476822"><ele>252.5</ele><time>2026-05-01T13:54:43.999Z</time></trkpt><trkpt lat="44.446125591581634" lon="11.31318897612287"><ele>252.0</ele><time>2026-05-01T13:54:44.999Z</time></trkpt><trkpt lat="44.44600588789395" lon="11.313155196878105"><ele>251.5</ele><time>2026-05-01T13:54:45.999Z</time></trkpt><trkpt lat="44.44588746174261" lon="11.313100075417923"><ele>251.0</ele><time>2026-05-01T13:54:46.999Z</time></trkpt><trkpt lat="44.44576920875949" lon="11.313030688562252"><ele>250.5</ele><time>2026-05-01T13:54:47.999Z</time></trkpt><trkpt lat="44.44565215845718" lon="11.31295318157731"><ele>250.0</ele><time>2026-05-01T13:54:48.999Z</time></trkpt><trkpt lat="44.445540188768376" lon="11.312877079221684"><ele>249.5</ele><time>2026-05-01T13:54:49.999Z</time></trkpt><trkpt lat="44.445435176665505" lon="11.312802513535098"><ele>249.0</ele><time>2026-05-01T13:54:51Z</time></trkpt><trkpt lat="44.44533725777845" lon="11.312725778327614"><ele>249.0</ele><time>2026-05-01T13:54:52Z</time></trkpt><trkpt lat="44.44524190256915" lon="11.31264016546499"><ele>249.0</ele><time>2026-05-01T13:54:53Z</time></trkpt><trkpt lat="44.4451498652022" lon="11.312550089894797"><ele>249.0</ele><time>2026-05-01T13:54:54Z</time></trkpt><trkpt lat="44.4450598696184" lon="11.312458960689254"><ele>249.0</ele><time>2026-05-01T13:54:55Z</time></trkpt><trkpt lat="44.4449765995581" lon="11.312346789891166"><ele>249.75</ele><time>2026-05-01T13:54:56Z</time></trkpt><trkpt lat="44.44489116761201" lon="11.312224426464109"><ele>250.5</ele><time>2026-05-01T13:54:57Z</time></trkpt><trkpt lat="44.444814187967246" lon="11.312083809956803"><ele>251.25</ele><time>2026-05-01T13:54:58Z</time></trkpt><trkpt lat="44.44473931871766" lon="11.31194254761821"><ele>252.0</ele><time>2026-05-01T13:54:59Z</time></trkpt><trkpt lat="44.44465841806102" lon="11.311795545201724"><ele>251.5</ele><time>2026-05-01T13:55:00Z</time></trkpt><trkpt lat="44.444574905127425" lon="11.31165211921673"><ele>251.0</ele><time>2026-05-01T13:55:01Z</time></trkpt><trkpt lat="44.444503464538684" lon="11.311503258077874"><ele>250.5</ele><time>2026-05-01T13:55:02Z</time></trkpt><trkpt lat="44.444441395041835" lon="11.311354662897568"><ele>250.0</ele><time>2026-05-01T13:55:03Z</time></trkpt><trkpt lat="44.44436985189359" lon="11.311204676303774"><ele>250.0</ele><time>2026-05-01T13:55:04Z</time></trkpt><trkpt lat="44.44430368649528" lon="11.311012131394769"><ele>250.0</ele><time>2026-05-01T13:55:05.001Z</time></trkpt><trkpt lat="44.44423053763552" lon="11.310819717051979"><ele>250.0</ele><time>2026-05-01T13:55:06.001Z</time></trkpt><trkpt lat="44.444167597420766" lon="11.31062403376271"><ele>251.0</ele><time>2026-05-01T13:55:07.001Z</time></trkpt><trkpt lat="44.44411141552791" lon="11.310427473255277"><ele>252.0</ele><time>2026-05-01T13:55:08.001Z</time></trkpt><trkpt lat="44.444059914089685" lon="11.31023467198823"><ele>253.0</ele><time>2026-05-01T13:55:09.001Z</time></trkpt><trkpt lat="44.444006673279254" lon="11.310038330824655"><ele>254.0</ele><time>2026-05-01T13:55:10.001Z</time></trkpt><trkpt lat="44.44394764867626" lon="11.309851127878888"><ele>253.75</ele><time>2026-05-01T13:55:11.001Z</time></trkpt><trkpt lat="44.44388829045796" lon="11.309684866717822"><ele>253.5</ele><time>2026-05-01T13:55:12.001Z</time></trkpt><trkpt lat="44.44382592178626" lon="11.309539204393435"><ele>253.25</ele><time>2026-05-01T13:55:13.001Z</time></trkpt><trkpt lat="44.443757981776095" lon="11.30939034052686"><ele>253.0</ele><time>2026-05-01T13:55:14.001Z</time></trkpt><trkpt lat="44.44367024635947" lon="11.309250424359217"><ele>252.5</ele><time>2026-05-01T13:55:15.001Z</time></trkpt><trkpt lat="44.44357509553041" lon="11.30911896322332"><ele>252.0</ele><time>2026-05-01T13:55:16.001Z</time></trkpt><trkpt lat="44.443478860623955" lon="11.308992326918927"><ele>251.5</ele><time>2026-05-01T13:55:17.001Z</time></trkpt><trkpt lat="44.44338402032534" lon="11.308876924932441"><ele>251.0</ele><time>2026-05-01T13:55:18.001Z</time></trkpt><trkpt lat="44.44329474064384" lon="11.308748824678698"><ele>250.5</ele><time>2026-05-01T13:55:19.001Z</time></trkpt><trkpt lat="44.44321065647463" lon="11.308632869769157"><ele>250.0</ele><time>2026-05-01T13:55:20.001Z</time></trkpt><trkpt lat="44.44311951665843" lon="11.308533118299886"><ele>249.5</ele><time>2026-05-01T13:55:21.001Z</time></trkpt><trkpt lat="44.44302290466662" lon="11.308457059208159"><ele>249.0</ele><time>2026-05-01T13:55:22.001Z</time></trkpt><trkpt lat="44.44291191868906" lon="11.308402434423442"><ele>249.0</ele><time>2026-05-01T13:55:23.001Z</time></trkpt><trkpt lat="44.44279361643287" lon="11.308372875348907"><ele>249.0</ele><time>2026-05-01T13:55:24.001Z</time></trkpt><trkpt lat="44.44267300796186" lon="11.308341743314152"><ele>249.0</ele><time>2026-05-01T13:55:25.001Z</time></trkpt><trkpt lat="44.44255987951406" lon="11.30830641827092"><ele>249.0</ele><time>2026-05-01T13:55:26.001Z</time></trkpt><trkpt lat="44.44245900693515" lon="11.308290745487088"><ele>249.0</ele><time>2026-05-01T13:55:27.001Z</time></trkpt><trkpt lat="44.442372240053224" lon="11.308256115353746"><ele>248.99999999999997</ele><time>2026-05-01T13:55:28.002Z</time></trkpt><trkpt lat="44.44230375677437" lon="11.308233957396087"><ele>248.99999999999997</ele><time>2026-05-01T13:55:29.002Z</time></trkpt><trkpt lat="44.44218439480176" lon="11.308190997522336"><ele>249.0</ele><time>2026-05-01T13:55:31.002Z</time></trkpt><trkpt lat="44.44211584652963" lon="11.308136171416901"><ele>249.0</ele><time>2026-05-01T13:55:32.002Z</time></trkpt><trkpt lat="44.44204849989769" lon="11.308056441651248"><ele>250.5</ele><time>2026-05-01T13:55:33.002Z</time></trkpt><trkpt lat="44.44200932000698" lon="11.30794326458244"><ele>252.0</ele><time>2026-05-01T13:55:34.002Z</time></trkpt><trkpt lat="44.441954211953345" lon="11.307852900687873"><ele>253.5</ele><time>2026-05-01T13:55:35.002Z</time></trkpt><trkpt lat="44.441913066168276" lon="11.30773251364483"><ele>255.0</ele><time>2026-05-01T13:55:36.002Z</time></trkpt><trkpt lat="44.441902349275956" lon="11.307613586457892"><ele>256.5</ele><time>2026-05-01T13:55:37.002Z</time></trkpt><trkpt lat="44.441892791549684" lon="11.307510920537315"><ele>258.0</ele><time>2026-05-01T13:55:38.002Z</time></trkpt><trkpt lat="44.44189777612587" lon="11.307376721433977"><ele>258.0</ele><time>2026-05-01T13:55:40.002Z</time></trkpt><trkpt lat="44.441897804287116" lon="11.30728483017782"><ele>258.0</ele><time>2026-05-01T13:55:49.002Z</time></trkpt><trkpt lat="44.44189788541892" lon="11.307190994016072"><ele>258.0</ele><time>2026-05-01T13:55:59.003Z</time></trkpt><trkpt lat="44.44190269880228" lon="11.307058377173487"><ele>258.0</ele><time>2026-05-01T13:56:08.003Z</time></trkpt><trkpt lat="44.44188661646719" lon="11.306886411303632"><ele>258.0</ele><time>2026-05-01T13:56:10.003Z</time></trkpt><trkpt lat="44.4418891337541" lon="11.306784626766568"><ele>258.0</ele><time>2026-05-01T13:56:11.003Z</time></trkpt><trkpt lat="44.44190162904939" lon="11.306672018017242"><ele>258.5</ele><time>2026-05-01T13:56:12.003Z</time></trkpt><trkpt lat="44.44189849910107" lon="11.30655753965454"><ele>259.0</ele><time>2026-05-01T13:56:13.003Z</time></trkpt><trkpt lat="44.4419011598128" lon="11.306461783098246"><ele>259.5</ele><time>2026-05-01T13:56:14.003Z</time></trkpt><trkpt lat="44.44190039617726" lon="11.306307166913191"><ele>260.0</ele><time>2026-05-01T13:56:16.003Z</time></trkpt><trkpt lat="44.44191385418554" lon="11.306213341674002"><ele>260.5</ele><time>2026-05-01T13:56:17.003Z</time></trkpt><trkpt lat="44.44191111592839" lon="11.306058865082598"><ele>261.0</ele><time>2026-05-01T13:56:19.003Z</time></trkpt><trkpt lat="44.44192297937764" lon="11.305949469242227"><ele>261.14285714285717</ele><time>2026-05-01T13:56:21.003Z</time></trkpt><trkpt lat="44.441944223235126" lon="11.305846295274142"><ele>261.2857142857143</ele><time>2026-05-01T13:56:24Z</time></trkpt><trkpt lat="44.44193242600149" lon="11.305749924068362"><ele>261.42857142857144</ele><time>2026-05-01T13:56:48Z</time></trkpt><trkpt lat="44.441948252166604" lon="11.305662197823603"><ele>261.57142857142856</ele><time>2026-05-01T13:57:19.001Z</time></trkpt><trkpt lat="44.44195836747033" lon="11.305533315752784"><ele>261.7142857142857</ele><time>2026-05-01T13:58:00.003Z</time></trkpt><trkpt lat="44.44195040956776" lon="11.305443172807857"><ele>261.8571428571429</ele><time>2026-05-01T13:58:15.003Z</time></trkpt><trkpt lat="44.44196133714207" lon="11.30534248728945"><ele>262.0</ele><time>2026-05-01T13:58:31.002Z</time></trkpt><trkpt lat="44.44198669420128" lon="11.30525401493905"><ele>262.14285714285717</ele><time>2026-05-01T13:58:59.001Z</time></trkpt><trkpt lat="44.442003209587476" lon="11.30515273709208"><ele>262.28571428571433</ele><time>2026-05-01T13:59:08Z</time></trkpt><trkpt lat="44.44202775366182" lon="11.305039079740794"><ele>262.42857142857144</ele><time>2026-05-01T13:59:11.001Z</time></trkpt><trkpt lat="44.44204903117857" lon="11.304953120809518"><ele>262.57142857142856</ele><time>2026-05-01T13:59:15.001Z</time></trkpt><trkpt lat="44.442074530075935" lon="11.304864795898402"><ele>262.71428571428567</ele><time>2026-05-01T13:59:20.001Z</time></trkpt><trkpt lat="44.442102093301266" lon="11.30477102007679"><ele>262.85714285714283</ele><time>2026-05-01T13:59:33.001Z</time></trkpt><trkpt lat="44.44211385990176" lon="11.304679715159224"><ele>263.0</ele><time>2026-05-01T13:59:40.001Z</time></trkpt><trkpt lat="44.44213763330992" lon="11.304594450554609"><ele>262.57142857142856</ele><time>2026-05-01T13:59:56.001Z</time></trkpt><trkpt lat="44.44216747451605" lon="11.304512792669374"><ele>262.1428571428571</ele><time>2026-05-01T14:00:02.001Z</time></trkpt><trkpt lat="44.44221228620524" lon="11.30443762341619"><ele>261.7142857142857</ele><time>2026-05-01T14:00:07.001Z</time></trkpt><trkpt lat="44.44223791713765" lon="11.304341538239322"><ele>261.2857142857143</ele><time>2026-05-01T14:00:11.001Z</time></trkpt><trkpt lat="44.4422417693744" lon="11.304251557417455"><ele>260.8571428571429</ele><time>2026-05-01T14:00:14.001Z</time></trkpt><trkpt lat="44.44224515078077" lon="11.304147012683867"><ele>260.42857142857144</ele><time>2026-05-01T14:00:17.001Z</time></trkpt><trkpt lat="44.44222319762668" lon="11.304047494605738"><ele>260.0</ele><time>2026-05-01T14:00:20.001Z</time></trkpt><trkpt lat="44.44220874766229" lon="11.303924094963962"><ele>259.1666666666667</ele><time>2026-05-01T14:00:23.001Z</time></trkpt><trkpt lat="44.44220330426679" lon="11.303830083849329"><ele>258.33333333333337</ele><time>2026-05-01T14:00:27.001Z</time></trkpt><trkpt lat="44.442195865333815" lon="11.303742466712606"><ele>257.5</ele><time>2026-05-01T14:00:55Z</time></trkpt><trkpt lat="44.44218690862774" lon="11.30364365636321"><ele>256.6666666666667</ele><time>2026-05-01T14:00:58Z</time></trkpt><trkpt lat="44.44220185198129" lon="11.303510860288705"><ele>255.83333333333334</ele><time>2026-05-01T14:01:01Z</time></trkpt><trkpt lat="44.44222070232972" lon="11.303367996923319"><ele>255.0</ele><time>2026-05-01T14:01:03Z</time></trkpt><trkpt lat="44.44224479619042" lon="11.303213278849489"><ele>255.0</ele><time>2026-05-01T14:01:05Z</time></trkpt><trkpt lat="44.44234744759407" lon="11.303090587407311"><ele>255.0</ele><time>2026-05-01T14:01:07Z</time></trkpt><trkpt lat="44.442433974573085" lon="11.303063980016478"><ele>255.0</ele><time>2026-05-01T14:01:08Z</time></trkpt><trkpt lat="44.4425389111663" lon="11.30302984673541"><ele>255.0</ele><time>2026-05-01T14:01:09Z</time></trkpt><trkpt lat="44.442645274591605" lon="11.30300139915837"><ele>255.0</ele><time>2026-05-01T14:01:10Z</time></trkpt><trkpt lat="44.44273712244654" lon="11.302942819352213"><ele>254.16666666666666</ele><time>2026-05-01T14:01:11Z</time></trkpt><trkpt lat="44.44282131572082" lon="11.302900113070523"><ele>253.33333333333331</ele><time>2026-05-01T14:01:12Z</time></trkpt><trkpt lat="44.44289486310266" lon="11.302841707224188"><ele>252.5</ele><time>2026-05-01T14:01:13Z</time></trkpt><trkpt lat="44.442974849204845" lon="11.30279878388285"><ele>251.66666666666666</ele><time>2026-05-01T14:01:14Z</time></trkpt><trkpt lat="44.44304791190895" lon="11.302731497395113"><ele>250.83333333333331</ele><time>2026-05-01T14:01:15Z</time></trkpt><trkpt lat="44.44312559469891" lon="11.302646578949137"><ele>250.0</ele><time>2026-05-01T14:01:16Z</time></trkpt><trkpt lat="44.44319556173166" lon="11.302530493450984"><ele>250.0</ele><time>2026-05-01T14:01:17Z</time></trkpt><trkpt lat="44.44326807267092" lon="11.30242465692958"><ele>250.0</ele><time>2026-05-01T14:01:18Z</time></trkpt><trkpt lat="44.443328602744906" lon="11.302313134130918"><ele>250.0</ele><time>2026-05-01T14:01:19Z</time></trkpt><trkpt lat="44.44338168369852" lon="11.302188342180793"><ele>250.0</ele><time>2026-05-01T14:01:20Z</time></trkpt><trkpt lat="44.44342313096937" lon="11.30204973104284"><ele>250.0</ele><time>2026-05-01T14:01:21Z</time></trkpt><trkpt lat="44.44346618790219" lon="11.301926957663879"><ele>249.66666666666666</ele><time>2026-05-01T14:01:22Z</time></trkpt><trkpt lat="44.443497016083505" lon="11.301828587047844"><ele>249.33333333333331</ele><time>2026-05-01T14:01:23Z</time></trkpt><trkpt lat="44.44354928841874" lon="11.301746975159606"><ele>249.0</ele><time>2026-05-01T14:01:24Z</time></trkpt><trkpt lat="44.443584017782875" lon="11.301653273040927"><ele>248.66666666666669</ele><time>2026-05-01T14:01:25Z</time></trkpt><trkpt lat="44.44364810650467" lon="11.3015776394402"><ele>248.33333333333334</ele><time>2026-05-01T14:01:26Z</time></trkpt><trkpt lat="44.4437262058585" lon="11.301503720720524"><ele>248.0</ele><time>2026-05-01T14:01:27Z</time></trkpt><trkpt lat="44.443804765777095" lon="11.301439769884906"><ele>245.2</ele><time>2026-05-01T14:01:28Z</time></trkpt><trkpt lat="44.44388706354512" lon="11.301375482454556"><ele>242.4</ele><time>2026-05-01T14:01:29Z</time></trkpt><trkpt lat="44.44397914403388" lon="11.301314504125623"><ele>239.59999999999997</ele><time>2026-05-01T14:01:30Z</time></trkpt><trkpt lat="44.44406090208966" lon="11.301248641426904"><ele>236.79999999999998</ele><time>2026-05-01T14:01:31Z</time></trkpt><trkpt lat="44.44413828427367" lon="11.301163468377174"><ele>234.0</ele><time>2026-05-01T14:01:32.001Z</time></trkpt><trkpt lat="44.44420110464492" lon="11.301053998573629"><ele>234.0</ele><time>2026-05-01T14:01:33.001Z</time></trkpt><trkpt lat="44.444251346492784" lon="11.300919571521147"><ele>233.99999999999997</ele><time>2026-05-01T14:01:34.001Z</time></trkpt><trkpt lat="44.44430613279081" lon="11.300778724533206"><ele>233.99999999999997</ele><time>2026-05-01T14:01:35.001Z</time></trkpt><trkpt lat="44.44434666637659" lon="11.300645853255142"><ele>234.0</ele><time>2026-05-01T14:01:36.001Z</time></trkpt><trkpt lat="44.444396038852844" lon="11.300524245932136"><ele>234.0</ele><time>2026-05-01T14:01:37.001Z</time></trkpt><trkpt lat="44.44445368681269" lon="11.300394011643856"><ele>231.39999999999998</ele><time>2026-05-01T14:01:38.001Z</time></trkpt><trkpt lat="44.44451032794321" lon="11.300280409423527"><ele>228.79999999999998</ele><time>2026-05-01T14:01:39.001Z</time></trkpt><trkpt lat="44.44456638070401" lon="11.300172118598235"><ele>226.20000000000002</ele><time>2026-05-01T14:01:40.001Z</time></trkpt><trkpt lat="44.444609379912386" lon="11.300082499181336"><ele>223.60000000000002</ele><time>2026-05-01T14:01:41.001Z</time></trkpt><trkpt lat="44.44464105635842" lon="11.299982592255233"><ele>221.0</ele><time>2026-05-01T14:01:42.001Z</time></trkpt><trkpt lat="44.444654488864224" lon="11.299812429691174"><ele>219.00000000000003</ele><time>2026-05-01T14:01:44.001Z</time></trkpt><trkpt lat="44.444621823973904" lon="11.29971839659941"><ele>217.0</ele><time>2026-05-01T14:01:45.001Z</time></trkpt><trkpt lat="44.44452840832724" lon="11.299666660288297"><ele>215.0</ele><time>2026-05-01T14:01:46.001Z</time></trkpt><trkpt lat="44.44447791506984" lon="11.299593700447423"><ele>213.0</ele><time>2026-05-01T14:01:47.001Z</time></trkpt><trkpt lat="44.44445009953888" lon="11.299498234067984"><ele>211.00000000000003</ele><time>2026-05-01T14:01:48.001Z</time></trkpt><trkpt lat="44.44446809434593" lon="11.299384372255268"><ele>209.0</ele><time>2026-05-01T14:01:49.001Z</time></trkpt><trkpt lat="44.44449906027113" lon="11.299267588375953"><ele>209.0</ele><time>2026-05-01T14:01:50.001Z</time></trkpt><trkpt lat="44.4445511275884" lon="11.299146327343706"><ele>209.0</ele><time>2026-05-01T14:01:51.001Z</time></trkpt><trkpt lat="44.4445962268062" lon="11.299026472854994"><ele>209.0</ele><time>2026-05-01T14:01:52.001Z</time></trkpt><trkpt lat="44.444591868862894" lon="11.29887194329235"><ele>209.0</ele><time>2026-05-01T14:01:53.001Z</time></trkpt><trkpt lat="44.444612971910516" lon="11.298708252395574"><ele>209.0</ele><time>2026-05-01T14:01:54.001Z</time></trkpt><trkpt lat="44.444622012005496" lon="11.298531731567778"><ele>207.75</ele><time>2026-05-01T14:01:55.001Z</time></trkpt><trkpt lat="44.44464251472298" lon="11.298364914577075"><ele>206.5</ele><time>2026-05-01T14:01:56.001Z</time></trkpt><trkpt lat="44.44465897069488" lon="11.29823291023617"><ele>205.25</ele><time>2026-05-01T14:01:57.001Z</time></trkpt><trkpt lat="44.444709634407644" lon="11.298074907758332"><ele>204.0</ele><time>2026-05-01T14:01:58.001Z</time></trkpt><trkpt lat="44.44475661972645" lon="11.297931318996842"><ele>202.39999999999998</ele><time>2026-05-01T14:01:59.001Z</time></trkpt><trkpt lat="44.44482734244064" lon="11.297813117555542"><ele>200.8</ele><time>2026-05-01T14:02:00.001Z</time></trkpt><trkpt lat="44.44490573692636" lon="11.297712775580752"><ele>199.2</ele><time>2026-05-01T14:02:01.001Z</time></trkpt><trkpt lat="44.4449773504268" lon="11.297584826751807"><ele>197.60000000000002</ele><time>2026-05-01T14:02:02.001Z</time></trkpt><trkpt lat="44.44505199124258" lon="11.297498857771016"><ele>196.0</ele><time>2026-05-01T14:02:03.001Z</time></trkpt><trkpt lat="44.44514782104999" lon="11.297466244013197"><ele>196.0</ele><time>2026-05-01T14:02:04.001Z</time></trkpt><trkpt lat="44.44524569268691" lon="11.297432102669273"><ele>196.0</ele><time>2026-05-01T14:02:05.001Z</time></trkpt><trkpt lat="44.44533380048025" lon="11.297381751856236"><ele>196.0</ele><time>2026-05-01T14:02:06.001Z</time></trkpt><trkpt lat="44.445413602903926" lon="11.2973214869611"><ele>196.0</ele><time>2026-05-01T14:02:07.001Z</time></trkpt><trkpt lat="44.44548278808184" lon="11.297186719510925"><ele>196.0</ele><time>2026-05-01T14:02:08.001Z</time></trkpt><trkpt lat="44.44555217265627" lon="11.297028021973912"><ele>194.5</ele><time>2026-05-01T14:02:09.001Z</time></trkpt><trkpt lat="44.445604881354306" lon="11.296853968219844"><ele>193.0</ele><time>2026-05-01T14:02:10.001Z</time></trkpt><trkpt lat="44.445672015834276" lon="11.29672401237084"><ele>191.5</ele><time>2026-05-01T14:02:11.001Z</time></trkpt><trkpt lat="44.44574317893457" lon="11.296601738013173"><ele>190.0</ele><time>2026-05-01T14:02:12.001Z</time></trkpt><trkpt lat="44.445843241267966" lon="11.29653779910355"><ele>190.0</ele><time>2026-05-01T14:02:13.001Z</time></trkpt><trkpt lat="44.445926626721715" lon="11.296517901369564"><ele>190.0</ele><time>2026-05-01T14:02:14.001Z</time></trkpt><trkpt lat="44.446009493681615" lon="11.29650431750157"><ele>190.0</ele><time>2026-05-01T14:02:15.001Z</time></trkpt><trkpt lat="44.44607820330675" lon="11.29653268232914"><ele>190.0</ele><time>2026-05-01T14:02:16.001Z</time></trkpt><trkpt lat="44.44619532385474" lon="11.296577111886268"><ele>190.0</ele><time>2026-05-01T14:02:18.001Z</time></trkpt><trkpt lat="44.44627113103107" lon="11.296606672053642"><ele>190.0</ele><time>2026-05-01T14:02:19.001Z</time></trkpt><trkpt lat="44.44635460522399" lon="11.296636226204196"><ele>191.0</ele><time>2026-05-01T14:02:20.001Z</time></trkpt><trkpt lat="44.446446277748386" lon="11.296696133666494"><ele>192.0</ele><time>2026-05-01T14:02:21.001Z</time></trkpt><trkpt lat="44.44652892576237" lon="11.296720068103486"><ele>193.0</ele><time>2026-05-01T14:02:22.001Z</time></trkpt><trkpt lat="44.44659020844101" lon="11.296743879833054"><ele>194.0</ele><time>2026-05-01T14:02:23.001Z</time></trkpt><trkpt lat="44.44670235281741" lon="11.29673580679865"><ele>194.99999999999997</ele><time>2026-05-01T14:02:25.001Z</time></trkpt><trkpt lat="44.44677518816651" lon="11.296737025303273"><ele>196.0</ele><time>2026-05-01T14:02:26.001Z</time></trkpt><trkpt lat="44.4468541578018" lon="11.296736268441913"><ele>196.0</ele><time>2026-05-01T14:02:27.001Z</time></trkpt><trkpt lat="44.446945722686095" lon="11.296741873927411"><ele>196.0</ele><time>2026-05-01T14:02:28.001Z</time></trkpt><trkpt lat="44.447036210968975" lon="11.296770869229308"><ele>196.0</ele><time>2026-05-01T14:02:29.001Z</time></trkpt><trkpt lat="44.44713295121372" lon="11.29678228019796"><ele>196.0</ele><time>2026-05-01T14:02:30.001Z</time></trkpt><trkpt lat="44.447238246327515" lon="11.296797789078566"><ele>196.0</ele><time>2026-05-01T14:02:31.001Z</time></trkpt><trkpt lat="44.44735618515644" lon="11.296798220184979"><ele>198.75</ele><time>2026-05-01T14:02:32.001Z</time></trkpt><trkpt lat="44.447468648203916" lon="11.296805838222832"><ele>201.5</ele><time>2026-05-01T14:02:33.001Z</time></trkpt><trkpt lat="44.44758637676001" lon="11.296804200715778"><ele>204.25</ele><time>2026-05-01T14:02:34.002Z</time></trkpt><trkpt lat="44.447708535616954" lon="11.296800308427493"><ele>207.0</ele><time>2026-05-01T14:02:35.002Z</time></trkpt><trkpt lat="44.44782297945308" lon="11.29678539970102"><ele>207.0</ele><time>2026-05-01T14:02:36.002Z</time></trkpt><trkpt lat="44.44793051103476" lon="11.296765755123875"><ele>207.0</ele><time>2026-05-01T14:02:37.002Z</time></trkpt><trkpt lat="44.44804187621818" lon="11.29673718871147"><ele>207.0</ele><time>2026-05-01T14:02:38.002Z</time></trkpt><trkpt lat="44.44815195818427" lon="11.296713670998729"><ele>207.0</ele><time>2026-05-01T14:02:39.002Z</time></trkpt><trkpt lat="44.44825000038083" lon="11.29668803051486"><ele>207.0</ele><time>2026-05-01T14:02:40.002Z</time></trkpt><trkpt lat="44.44834161741713" lon="11.29666894923028"><ele>208.83333333333334</ele><time>2026-05-01T14:02:41.002Z</time></trkpt><trkpt lat="44.448432196614036" lon="11.296651918037252"><ele>210.66666666666669</ele><time>2026-05-01T14:02:41.997Z</time></trkpt><trkpt lat="44.448526714875115" lon="11.29662361528232"><ele>212.5</ele><time>2026-05-01T14:02:42.997Z</time></trkpt><trkpt lat="44.448615503394485" lon="11.296606579047356"><ele>214.33333333333334</ele><time>2026-05-01T14:02:43.997Z</time></trkpt><trkpt lat="44.44869765173797" lon="11.296585204181591"><ele>216.16666666666669</ele><time>2026-05-01T14:02:44.997Z</time></trkpt><trkpt lat="44.448782048684926" lon="11.296565748199981"><ele>218.0</ele><time>2026-05-01T14:02:45.997Z</time></trkpt><trkpt lat="44.448867625845885" lon="11.29654379061347"><ele>219.4</ele><time>2026-05-01T14:02:46.997Z</time></trkpt><trkpt lat="44.44894438557896" lon="11.296518736812741"><ele>220.8</ele><time>2026-05-01T14:02:47.998Z</time></trkpt><trkpt lat="44.44902694406832" lon="11.296451163827477"><ele>222.2</ele><time>2026-05-01T14:02:48.998Z</time></trkpt><trkpt lat="44.449118944062214" lon="11.296359651979415"><ele>223.6</ele><time>2026-05-01T14:02:49.998Z</time></trkpt><trkpt lat="44.44920064471901" lon="11.296286871235747"><ele>225.0</ele><time>2026-05-01T14:02:50.998Z</time></trkpt><trkpt lat="44.44928155527463" lon="11.296209164795616"><ele>225.4</ele><time>2026-05-01T14:02:51.998Z</time></trkpt><trkpt lat="44.44936345059338" lon="11.296162495195837"><ele>225.8</ele><time>2026-05-01T14:02:52.998Z</time></trkpt><trkpt lat="44.44944734894973" lon="11.296143595246381"><ele>226.2</ele><time>2026-05-01T14:02:53.998Z</time></trkpt><trkpt lat="44.449529780310094" lon="11.296136887129327"><ele>226.6</ele><time>2026-05-01T14:02:54.998Z</time></trkpt><trkpt lat="44.449624790655704" lon="11.296131788012003"><ele>227.0</ele><time>2026-05-01T14:02:55.998Z</time></trkpt><trkpt lat="44.449733592688354" lon="11.296126625971397"><ele>227.16666666666669</ele><time>2026-05-01T14:02:56.998Z</time></trkpt><trkpt lat="44.449830307591476" lon="11.296126633518854"><ele>227.33333333333334</ele><time>2026-05-01T14:02:57.998Z</time></trkpt><trkpt lat="44.4499100211498" lon="11.296132232685622"><ele>227.5</ele><time>2026-05-01T14:02:58.998Z</time></trkpt><trkpt lat="44.44999533637406" lon="11.296133292658173"><ele>227.66666666666669</ele><time>2026-05-01T14:02:59.998Z</time></trkpt><trkpt lat="44.45008023983885" lon="11.296133346853647"><ele>227.83333333333334</ele><time>2026-05-01T14:03:00.998Z</time></trkpt><trkpt lat="44.45016976469556" lon="11.296130765151482"><ele>228.0</ele><time>2026-05-01T14:03:01.999Z</time></trkpt><trkpt lat="44.45027976509957" lon="11.296133637316355"><ele>228.0</ele><time>2026-05-01T14:03:02.999Z</time></trkpt><trkpt lat="44.45040286555618" lon="11.29614206828374"><ele>228.0</ele><time>2026-05-01T14:03:03.999Z</time></trkpt><trkpt lat="44.45051698237056" lon="11.296150118656124"><ele>228.0</ele><time>2026-05-01T14:03:04.999Z</time></trkpt><trkpt lat="44.45061006560131" lon="11.296166916360326"><ele>228.0</ele><time>2026-05-01T14:03:05.999Z</time></trkpt><trkpt lat="44.45068673474777" lon="11.296182602669688"><ele>228.0</ele><time>2026-05-01T14:03:06.999Z</time></trkpt><trkpt lat="44.45078556800159" lon="11.29621506700169"><ele>228.66666666666666</ele><time>2026-05-01T14:03:08.999Z</time></trkpt><trkpt lat="44.45089941608793" lon="11.296234141088602"><ele>229.33333333333331</ele><time>2026-05-01T14:03:10.999Z</time></trkpt><trkpt lat="44.450971287992886" lon="11.296251126829171"><ele>230.0</ele><time>2026-05-01T14:03:11.999Z</time></trkpt><trkpt lat="44.45104851621235" lon="11.296272274157062"><ele>230.66666666666666</ele><time>2026-05-01T14:03:12.999Z</time></trkpt><trkpt lat="44.45111535813615" lon="11.296287453870177"><ele>231.33333333333331</ele><time>2026-05-01T14:03:13.999Z</time></trkpt><trkpt lat="44.45121133268862" lon="11.296304068254745"><ele>232.0</ele><time>2026-05-01T14:03:15.999Z</time></trkpt><trkpt lat="44.451135658979275" lon="11.296298504975269"><ele>232.0</ele><time>2026-05-01T14:03:33Z</time></trkpt><trkpt lat="44.451056297684076" lon="11.296272722230345"><ele>232.0</ele><time>2026-05-01T14:03:34Z</time></trkpt><trkpt lat="44.45093243895638" lon="11.296247306512436"><ele>232.0</ele><time>2026-05-01T14:03:35Z</time></trkpt><trkpt lat="44.450803548687986" lon="11.296216687971283"><ele>232.0</ele><time>2026-05-01T14:03:36Z</time></trkpt><trkpt lat="44.45066016843145" lon="11.296184939953504"><ele>232.0</ele><time>2026-05-01T14:03:37Z</time></trkpt><trkpt lat="44.450515759996286" lon="11.296136880549659"><ele>232.0</ele><time>2026-05-01T14:03:38Z</time></trkpt><trkpt lat="44.450410589847486" lon="11.296115605866195"><ele>228.0</ele><time>2026-05-01T14:03:39Z</time></trkpt><trkpt lat="44.45033394453987" lon="11.296112784008779"><ele>228.0</ele><time>2026-05-01T14:03:40Z</time></trkpt></trkseg><trkseg><trkpt lat="44.450229449908484" lon="11.296083293110708"><ele>228.0</ele><time>2026-05-01T14:22:50Z</time></trkpt><trkpt lat="44.45015729650245" lon="11.296078157686683"><ele>228.0</ele><time>2026-05-01T14:22:56Z</time></trkpt><trkpt lat="44.45021978933905" lon="11.29617657943907"><ele>228.0</ele><time>2026-05-01T14:23:05Z</time></trkpt><trkpt lat="44.45030366259825" lon="11.296163260863613"><ele>228.0</ele><time>2026-05-01T14:23:06Z</time></trkpt><trkpt lat="44.45038437502757" lon="11.296152163721844"><ele>228.0</ele><time>2026-05-01T14:23:07Z</time></trkpt><trkpt lat="44.4504840236185" lon="11.296161686441453"><ele>228.0</ele><time>2026-05-01T14:23:08Z</time></trkpt><trkpt lat="44.450581806977745" lon="11.296179527445908"><ele>228.8</ele><time>2026-05-01T14:23:09Z</time></trkpt><trkpt lat="44.45069546504042" lon="11.296197931133557"><ele>229.60000000000002</ele><time>2026-05-01T14:23:10Z</time></trkpt><trkpt lat="44.45081469649899" lon="11.296223390530853"><ele>230.39999999999998</ele><time>2026-05-01T14:23:11Z</time></trkpt><trkpt lat="44.45091333308692" lon="11.29625019569076"><ele>231.2</ele><time>2026-05-01T14:23:12Z</time></trkpt><trkpt lat="44.451012053059124" lon="11.296270111129228"><ele>232.0</ele><time>2026-05-01T14:23:13Z</time></trkpt><trkpt lat="44.45110958213391" lon="11.296300343112575"><ele>232.0</ele><time>2026-05-01T14:23:14Z</time></trkpt><trkpt lat="44.4512026407674" lon="11.296324266552784"><ele>232.0</ele><time>2026-05-01T14:23:15Z</time></trkpt><trkpt lat="44.45129197646147" lon="11.296360782987414"><ele>232.0</ele><time>2026-05-01T14:23:16Z</time></trkpt><trkpt lat="44.45136416907152" lon="11.296412748810791"><ele>232.0</ele><time>2026-05-01T14:23:17Z</time></trkpt><trkpt lat="44.451439288018534" lon="11.296490478658466"><ele>232.0</ele><time>2026-05-01T14:23:18Z</time></trkpt><trkpt lat="44.45151178527984" lon="11.296594960003958"><ele>233.0</ele><time>2026-05-01T14:23:19Z</time></trkpt><trkpt lat="44.45158032771467" lon="11.296725018326981"><ele>234.0</ele><time>2026-05-01T14:23:20Z</time></trkpt><trkpt lat="44.45162649014535" lon="11.296847558807151"><ele>235.0</ele><time>2026-05-01T14:23:21Z</time></trkpt><trkpt lat="44.451704932897165" lon="11.29693349538196"><ele>236.0</ele><time>2026-05-01T14:23:22Z</time></trkpt><trkpt lat="44.45179014104721" lon="11.297023546858716"><ele>237.0</ele><time>2026-05-01T14:23:23Z</time></trkpt><trkpt lat="44.45190349513941" lon="11.29709883683441"><ele>237.0</ele><time>2026-05-01T14:23:24Z</time></trkpt><trkpt lat="44.452024828576036" lon="11.297145932930652"><ele>237.0</ele><time>2026-05-01T14:23:25Z</time></trkpt><trkpt lat="44.45215575703432" lon="11.29722345780774"><ele>237.0</ele><time>2026-05-01T14:23:26Z</time></trkpt><trkpt lat="44.45229458402922" lon="11.297300677385028"><ele>237.0</ele><time>2026-05-01T14:23:27Z</time></trkpt><trkpt lat="44.4524258880184" lon="11.297383082906057"><ele>236.25</ele><time>2026-05-01T14:23:28Z</time></trkpt><trkpt lat="44.45255641492718" lon="11.297460737724276"><ele>235.5</ele><time>2026-05-01T14:23:29Z</time></trkpt><trkpt lat="44.45269007816472" lon="11.297542610343063"><ele>234.75</ele><time>2026-05-01T14:23:30Z</time></trkpt><trkpt lat="44.452801665529286" lon="11.297635293633277"><ele>234.0</ele><time>2026-05-01T14:23:31Z</time></trkpt><trkpt lat="44.45291323966058" lon="11.297700715072503"><ele>234.6</ele><time>2026-05-01T14:23:32Z</time></trkpt><trkpt lat="44.45301230111105" lon="11.297768253214384"><ele>235.2</ele><time>2026-05-01T14:23:33Z</time></trkpt><trkpt lat="44.453097955439006" lon="11.297833665411325"><ele>235.79999999999998</ele><time>2026-05-01T14:23:34Z</time></trkpt><trkpt lat="44.45317620834437" lon="11.297910758925491"><ele>236.39999999999998</ele><time>2026-05-01T14:23:35Z</time></trkpt><trkpt lat="44.453256642935706" lon="11.297979593012832"><ele>237.0</ele><time>2026-05-01T14:23:36Z</time></trkpt><trkpt lat="44.45333268088122" lon="11.298002740105977"><ele>237.0</ele><time>2026-05-01T14:23:37Z</time></trkpt><trkpt lat="44.45341204302376" lon="11.298006708484564"><ele>237.0</ele><time>2026-05-01T14:23:38Z</time></trkpt><trkpt lat="44.4535026346823" lon="11.297982681214782"><ele>237.0</ele><time>2026-05-01T14:23:39Z</time></trkpt><trkpt lat="44.45360739457401" lon="11.297923759021945"><ele>237.0</ele><time>2026-05-01T14:23:40Z</time></trkpt><trkpt lat="44.453695131315015" lon="11.297873882606861"><ele>237.0</ele><time>2026-05-01T14:23:41Z</time></trkpt><trkpt lat="44.45377229746048" lon="11.297821844066773"><ele>234.8</ele><time>2026-05-01T14:23:42Z</time></trkpt><trkpt lat="44.45384561206286" lon="11.297775324550573"><ele>232.6</ele><time>2026-05-01T14:23:43Z</time></trkpt><trkpt lat="44.4539411844784" lon="11.29775244561391"><ele>230.40000000000003</ele><time>2026-05-01T14:23:44Z</time></trkpt><trkpt lat="44.45403827754375" lon="11.297769085908035"><ele>228.20000000000002</ele><time>2026-05-01T14:23:45Z</time></trkpt><trkpt lat="44.4541327940173" lon="11.297767384379288"><ele>226.0</ele><time>2026-05-01T14:23:46Z</time></trkpt><trkpt lat="44.454225581091315" lon="11.297802840394565"><ele>226.0</ele><time>2026-05-01T14:23:47Z</time></trkpt><trkpt lat="44.45433441073345" lon="11.297858037037528"><ele>226.0</ele><time>2026-05-01T14:23:48Z</time></trkpt><trkpt lat="44.454431368399725" lon="11.297930074419623"><ele>226.0</ele><time>2026-05-01T14:23:49Z</time></trkpt><trkpt lat="44.454500094316764" lon="11.298037940134899"><ele>226.0</ele><time>2026-05-01T14:23:50Z</time></trkpt><trkpt lat="44.45459548228316" lon="11.298144238934785"><ele>222.75</ele><time>2026-05-01T14:23:51Z</time></trkpt><trkpt lat="44.454667390855526" lon="11.298261585219"><ele>219.5</ele><time>2026-05-01T14:23:52Z</time></trkpt><trkpt lat="44.454750172731" lon="11.298397008437394"><ele>216.25</ele><time>2026-05-01T14:23:53Z</time></trkpt><trkpt lat="44.45483415872591" lon="11.298537838783746"><ele>213.0</ele><time>2026-05-01T14:23:54Z</time></trkpt><trkpt lat="44.4549178693836" lon="11.29865376726528"><ele>213.0</ele><time>2026-05-01T14:23:55Z</time></trkpt><trkpt lat="44.45499902949356" lon="11.298774459691494"><ele>213.0</ele><time>2026-05-01T14:23:56Z</time></trkpt><trkpt lat="44.45508173067521" lon="11.298903450670538"><ele>213.0</ele><time>2026-05-01T14:23:57Z</time></trkpt><trkpt lat="44.45516789141267" lon="11.299052120957779"><ele>213.0</ele><time>2026-05-01T14:23:58Z</time></trkpt><trkpt lat="44.45526435057298" lon="11.299206969129187"><ele>212.75</ele><time>2026-05-01T14:23:59Z</time></trkpt><trkpt lat="44.45535612533848" lon="11.29934752824606"><ele>212.5</ele><time>2026-05-01T14:24:00Z</time></trkpt><trkpt lat="44.4554419996416" lon="11.299482196149823"><ele>212.25</ele><time>2026-05-01T14:24:01Z</time></trkpt><trkpt lat="44.4555216417136" lon="11.299605424517692"><ele>212.0</ele><time>2026-05-01T14:24:02Z</time></trkpt><trkpt lat="44.45560209113166" lon="11.299709003653312"><ele>212.0</ele><time>2026-05-01T14:24:03Z</time></trkpt><trkpt lat="44.45568136527685" lon="11.299782416420657"><ele>212.0</ele><time>2026-05-01T14:24:04Z</time></trkpt><trkpt lat="44.45576576703183" lon="11.299834531876252"><ele>212.0</ele><time>2026-05-01T14:24:05Z</time></trkpt><trkpt lat="44.455868910480056" lon="11.299873158441528"><ele>212.0</ele><time>2026-05-01T14:24:06Z</time></trkpt><trkpt lat="44.45598512188682" lon="11.299882064173525"><ele>212.0</ele><time>2026-05-01T14:24:07Z</time></trkpt><trkpt lat="44.45610237672461" lon="11.299874338426779"><ele>212.0</ele><time>2026-05-01T14:24:08Z</time></trkpt><trkpt lat="44.456223338650005" lon="11.299844204853244"><ele>212.0</ele><time>2026-05-01T14:24:09Z</time></trkpt><trkpt lat="44.45634292076008" lon="11.299802248484605"><ele>212.0</ele><time>2026-05-01T14:24:10Z</time></trkpt><trkpt lat="44.456451577372924" lon="11.299745577464396"><ele>212.0</ele><time>2026-05-01T14:24:11Z</time></trkpt><trkpt lat="44.45654943983961" lon="11.299667693340705"><ele>210.5</ele><time>2026-05-01T14:24:12Z</time></trkpt><trkpt lat="44.45663151795188" lon="11.299573133167184"><ele>209.0</ele><time>2026-05-01T14:24:13Z</time></trkpt><trkpt lat="44.45670923039067" lon="11.299461692609274"><ele>207.5</ele><time>2026-05-01T14:24:14Z</time></trkpt><trkpt lat="44.45679605167037" lon="11.299347643389915"><ele>206.0</ele><time>2026-05-01T14:24:15Z</time></trkpt><trkpt lat="44.45689741781947" lon="11.299261785035775"><ele>206.0</ele><time>2026-05-01T14:24:16Z</time></trkpt><trkpt lat="44.457011041482005" lon="11.299242947076051"><ele>206.0</ele><time>2026-05-01T14:24:17Z</time></trkpt><trkpt lat="44.45710626376513" lon="11.299179034120673"><ele>206.0</ele><time>2026-05-01T14:24:18Z</time></trkpt><trkpt lat="44.457203231017296" lon="11.299141237594103"><ele>206.0</ele><time>2026-05-01T14:24:19Z</time></trkpt><trkpt lat="44.45729789913105" lon="11.299122148533062"><ele>206.0</ele><time>2026-05-01T14:24:20Z</time></trkpt><trkpt lat="44.457390613895114" lon="11.299130882611301"><ele>206.8</ele><time>2026-05-01T14:24:21Z</time></trkpt><trkpt lat="44.457480895378424" lon="11.299164662813366"><ele>207.60000000000002</ele><time>2026-05-01T14:24:22Z</time></trkpt><trkpt lat="44.4575850000265" lon="11.299209930272486"><ele>208.4</ele><time>2026-05-01T14:24:23Z</time></trkpt><trkpt lat="44.45770142048877" lon="11.299256202187717"><ele>209.2</ele><time>2026-05-01T14:24:24Z</time></trkpt><trkpt lat="44.45782142179461" lon="11.299305919390228"><ele>210.0</ele><time>2026-05-01T14:24:25Z</time></trkpt><trkpt lat="44.457942730211855" lon="11.299351967527375"><ele>210.75</ele><time>2026-05-01T14:24:26Z</time></trkpt><trkpt lat="44.45805961934292" lon="11.299377469056036"><ele>211.5</ele><time>2026-05-01T14:24:27Z</time></trkpt><trkpt lat="44.45817560748122" lon="11.29935984106958"><ele>212.25</ele><time>2026-05-01T14:24:28Z</time></trkpt><trkpt lat="44.45827525005349" lon="11.299308243023981"><ele>213.0</ele><time>2026-05-01T14:24:29Z</time></trkpt><trkpt lat="44.45837485041738" lon="11.299237603131408"><ele>213.0</ele><time>2026-05-01T14:24:30Z</time></trkpt><trkpt lat="44.458455504066414" lon="11.299181757192624"><ele>213.0</ele><time>2026-05-01T14:24:31Z</time></trkpt><trkpt lat="44.458521797172175" lon="11.299139769557428"><ele>213.0</ele><time>2026-05-01T14:24:32Z</time></trkpt><trkpt lat="44.4585955934503" lon="11.299087821998256"><ele>213.0</ele><time>2026-05-01T14:24:33Z</time></trkpt><trkpt lat="44.458683738770446" lon="11.299018248878657"><ele>213.0</ele><time>2026-05-01T14:24:34Z</time></trkpt><trkpt lat="44.458767415359524" lon="11.298929453310162"><ele>215.2</ele><time>2026-05-01T14:24:35Z</time></trkpt><trkpt lat="44.45885403825078" lon="11.298816122641314"><ele>217.4</ele><time>2026-05-01T14:24:36Z</time></trkpt><trkpt lat="44.45894037259764" lon="11.29869160394429"><ele>219.59999999999997</ele><time>2026-05-01T14:24:37Z</time></trkpt><trkpt lat="44.459014896935315" lon="11.298567844303621"><ele>221.79999999999998</ele><time>2026-05-01T14:24:38Z</time></trkpt><trkpt lat="44.45907098418978" lon="11.298479926206062"><ele>224.0</ele><time>2026-05-01T14:24:39Z</time></trkpt><trkpt lat="44.459114170044685" lon="11.298415444846531"><ele>224.0</ele><time>2026-05-01T14:24:40Z</time></trkpt><trkpt lat="44.45920733745988" lon="11.298354353674789"><ele>223.99999999999997</ele><time>2026-05-01T14:24:42Z</time></trkpt><trkpt lat="44.45930205696437" lon="11.298391039918377"><ele>223.99999999999997</ele><time>2026-05-01T14:24:44Z</time></trkpt><trkpt lat="44.45935921013035" lon="11.298436732500038"><ele>224.0</ele><time>2026-05-01T14:24:45Z</time></trkpt><trkpt lat="44.459432232625616" lon="11.298516969174333"><ele>224.0</ele><time>2026-05-01T14:24:46Z</time></trkpt><trkpt lat="44.45951590622532" lon="11.298579836528194"><ele>224.0</ele><time>2026-05-01T14:24:47Z</time></trkpt><trkpt lat="44.45960156014216" lon="11.298622305892096"><ele>223.99999999999997</ele><time>2026-05-01T14:24:48Z</time></trkpt><trkpt lat="44.45970688162678" lon="11.298627524420981"><ele>223.99999999999997</ele><time>2026-05-01T14:24:49Z</time></trkpt><trkpt lat="44.45981526008943" lon="11.298640333349454"><ele>224.0</ele><time>2026-05-01T14:24:50Z</time></trkpt><trkpt lat="44.45990555215473" lon="11.29868167287951"><ele>224.0</ele><time>2026-05-01T14:24:51Z</time></trkpt><trkpt lat="44.459982597071836" lon="11.298748680290446"><ele>223.79999999999998</ele><time>2026-05-01T14:24:52Z</time></trkpt><trkpt lat="44.46005438485018" lon="11.298840514565333"><ele>223.59999999999997</ele><time>2026-05-01T14:24:53Z</time></trkpt><trkpt lat="44.460125797722746" lon="11.298949174337823"><ele>223.4</ele><time>2026-05-01T14:24:54Z</time></trkpt><trkpt lat="44.4601905893693" lon="11.299074552495538"><ele>223.2</ele><time>2026-05-01T14:24:55Z</time></trkpt><trkpt lat="44.46024776129277" lon="11.299217158645"><ele>223.0</ele><time>2026-05-01T14:24:56Z</time></trkpt><trkpt lat="44.46029794949667" lon="11.299355189977842"><ele>224.60000000000002</ele><time>2026-05-01T14:24:57Z</time></trkpt><trkpt lat="44.46036184333284" lon="11.299475024402282"><ele>226.20000000000002</ele><time>2026-05-01T14:24:58Z</time></trkpt><trkpt lat="44.46045282438696" lon="11.299589102507179"><ele>227.8</ele><time>2026-05-01T14:24:59Z</time></trkpt><trkpt lat="44.46054520523415" lon="11.299683991090307"><ele>229.4</ele><time>2026-05-01T14:25:00Z</time></trkpt><trkpt lat="44.46062814857704" lon="11.299776247464093"><ele>231.0</ele><time>2026-05-01T14:25:01Z</time></trkpt><trkpt lat="44.46070209385964" lon="11.2998624999517"><ele>232.4</ele><time>2026-05-01T14:25:02Z</time></trkpt><trkpt lat="44.4607747721543" lon="11.29994663708855"><ele>233.8</ele><time>2026-05-01T14:25:03Z</time></trkpt><trkpt lat="44.460842332955856" lon="11.300017597841913"><ele>235.20000000000002</ele><time>2026-05-01T14:25:04Z</time></trkpt><trkpt lat="44.46091363528635" lon="11.300101961587114"><ele>236.60000000000002</ele><time>2026-05-01T14:25:05Z</time></trkpt><trkpt lat="44.460986689223795" lon="11.300183332260978"><ele>238.0</ele><time>2026-05-01T14:25:06Z</time></trkpt><trkpt lat="44.46105460066143" lon="11.300261382920572"><ele>238.0</ele><time>2026-05-01T14:25:07Z</time></trkpt><trkpt lat="44.46113058904878" lon="11.30034437781657"><ele>238.0</ele><time>2026-05-01T14:25:08Z</time></trkpt><trkpt lat="44.46119489430204" lon="11.30042954214971"><ele>238.0</ele><time>2026-05-01T14:25:09Z</time></trkpt><trkpt lat="44.46126669499162" lon="11.300520521152743"><ele>238.0</ele><time>2026-05-01T14:25:10Z</time></trkpt><trkpt lat="44.46133678882761" lon="11.300615541393142"><ele>238.0</ele><time>2026-05-01T14:25:11Z</time></trkpt><trkpt lat="44.46142692961438" lon="11.30068561038774"><ele>240.60000000000002</ele><time>2026-05-01T14:25:12Z</time></trkpt><trkpt lat="44.46151840703321" lon="11.300752518347306"><ele>243.20000000000002</ele><time>2026-05-01T14:25:13Z</time></trkpt><trkpt lat="44.46161180162168" lon="11.30082190690743"><ele>245.8</ele><time>2026-05-01T14:25:14Z</time></trkpt><trkpt lat="44.461709868460964" lon="11.30088694168051"><ele>248.4</ele><time>2026-05-01T14:25:15Z</time></trkpt><trkpt lat="44.461806559618886" lon="11.300949067100849"><ele>251.0</ele><time>2026-05-01T14:25:16Z</time></trkpt><trkpt lat="44.46191696791225" lon="11.301016869668317"><ele>251.0</ele><time>2026-05-01T14:25:17Z</time></trkpt><trkpt lat="44.46202005097355" lon="11.301063557827444"><ele>251.00000000000003</ele><time>2026-05-01T14:25:18Z</time></trkpt><trkpt lat="44.4621254856988" lon="11.301109969094382"><ele>251.00000000000003</ele><time>2026-05-01T14:25:19Z</time></trkpt><trkpt lat="44.46222569634512" lon="11.30115243948814"><ele>251.0</ele><time>2026-05-01T14:25:20Z</time></trkpt><trkpt lat="44.46232924921429" lon="11.301193706760515"><ele>251.0</ele><time>2026-05-01T14:25:21Z</time></trkpt><trkpt lat="44.46242675784198" lon="11.301242872621355"><ele>253.20000000000002</ele><time>2026-05-01T14:25:22Z</time></trkpt><trkpt lat="44.462509747669785" lon="11.301258866868238"><ele>255.40000000000003</ele><time>2026-05-01T14:25:23Z</time></trkpt><trkpt lat="44.462574441914285" lon="11.301305797774349"><ele>257.6</ele><time>2026-05-01T14:25:24Z</time></trkpt><trkpt lat="44.46267969371695" lon="11.301322075980979"><ele>259.8</ele><time>2026-05-01T14:25:25Z</time></trkpt><trkpt lat="44.462786487884664" lon="11.301364961213428"><ele>262.0</ele><time>2026-05-01T14:25:26Z</time></trkpt><trkpt lat="44.462911872012796" lon="11.301351128624159"><ele>261.8</ele><time>2026-05-01T14:25:27Z</time></trkpt><trkpt lat="44.4630174722146" lon="11.301334657553056"><ele>261.6</ele><time>2026-05-01T14:25:28Z</time></trkpt><trkpt lat="44.463121563593944" lon="11.301337413755665"><ele>261.40000000000003</ele><time>2026-05-01T14:25:29Z</time></trkpt><trkpt lat="44.46321493922221" lon="11.301339221254677"><ele>261.2</ele><time>2026-05-01T14:25:30Z</time></trkpt><trkpt lat="44.46330051643627" lon="11.301327579999807"><ele>261.0</ele><time>2026-05-01T14:25:31Z</time></trkpt><trkpt lat="44.463376554340904" lon="11.301314384214878"><ele>261.0</ele><time>2026-05-01T14:25:32Z</time></trkpt><trkpt lat="44.463458213204824" lon="11.301279889615554"><ele>261.0</ele><time>2026-05-01T14:25:33Z</time></trkpt><trkpt lat="44.463542207040156" lon="11.301206269903572"><ele>261.0</ele><time>2026-05-01T14:25:34Z</time></trkpt><trkpt lat="44.46361546872457" lon="11.301154912238541"><ele>261.0</ele><time>2026-05-01T14:25:35Z</time></trkpt><trkpt lat="44.463697909917336" lon="11.301095138640635"><ele>261.0</ele><time>2026-05-01T14:25:36Z</time></trkpt><trkpt lat="44.46378154224328" lon="11.301025710768405"><ele>259.1666666666667</ele><time>2026-05-01T14:25:37Z</time></trkpt><trkpt lat="44.46385544022359" lon="11.300971881809845"><ele>257.3333333333333</ele><time>2026-05-01T14:25:38Z</time></trkpt><trkpt lat="44.46392901103971" lon="11.300928440045007"><ele>255.5</ele><time>2026-05-01T14:25:39Z</time></trkpt><trkpt lat="44.4640053219679" lon="11.300910202924772"><ele>253.66666666666666</ele><time>2026-05-01T14:25:40Z</time></trkpt><trkpt lat="44.464075447885456" lon="11.300877660106389"><ele>251.83333333333331</ele><time>2026-05-01T14:25:41Z</time></trkpt><trkpt lat="44.464145857550015" lon="11.300853778276172"><ele>250.0</ele><time>2026-05-01T14:25:42Z</time></trkpt><trkpt lat="44.464206025042024" lon="11.300825866274003"><ele>250.0</ele><time>2026-05-01T14:25:43Z</time></trkpt><trkpt lat="44.464322951953896" lon="11.300847863848452"><ele>250.0</ele><time>2026-05-01T14:25:45Z</time></trkpt><trkpt lat="44.46444133638362" lon="11.300866248814964"><ele>250.0</ele><time>2026-05-01T14:25:47Z</time></trkpt><trkpt lat="44.464507578378566" lon="11.300870676748115"><ele>250.0</ele><time>2026-05-01T14:25:47.998Z</time></trkpt><trkpt lat="44.464639412118366" lon="11.300861080627733"><ele>250.0</ele><time>2026-05-01T14:25:49.998Z</time></trkpt><trkpt lat="44.46475871169442" lon="11.30084814317406"><ele>250.16666666666666</ele><time>2026-05-01T14:25:51.998Z</time></trkpt><trkpt lat="44.46483541664218" lon="11.30083028752961"><ele>250.33333333333331</ele><time>2026-05-01T14:25:52.998Z</time></trkpt><trkpt lat="44.46491948442059" lon="11.30082270571789"><ele>250.5</ele><time>2026-05-01T14:25:53.998Z</time></trkpt><trkpt lat="44.465005734045306" lon="11.300828307491841"><ele>250.66666666666669</ele><time>2026-05-01T14:25:54.998Z</time></trkpt><trkpt lat="44.46509067921726" lon="11.300839799382004"><ele>250.83333333333334</ele><time>2026-05-01T14:25:55.998Z</time></trkpt><trkpt lat="44.46517460572665" lon="11.300844153381076"><ele>251.0</ele><time>2026-05-01T14:25:56.998Z</time></trkpt><trkpt lat="44.465254552816276" lon="11.300839564157744"><ele>251.00000000000003</ele><time>2026-05-01T14:25:57.998Z</time></trkpt><trkpt lat="44.46534285709478" lon="11.30082968329466"><ele>251.0</ele><time>2026-05-01T14:25:58.998Z</time></trkpt><trkpt lat="44.46543553888228" lon="11.300807064094883"><ele>251.0</ele><time>2026-05-01T14:25:59.998Z</time></trkpt><trkpt lat="44.46551662800856" lon="11.3007806392221"><ele>251.0</ele><time>2026-05-01T14:26:00.998Z</time></trkpt><trkpt lat="44.46559798436207" lon="11.300767374959179"><ele>251.00000000000003</ele><time>2026-05-01T14:26:01.999Z</time></trkpt><trkpt lat="44.465670404462784" lon="11.300722057055488"><ele>251.0</ele><time>2026-05-01T14:26:02.999Z</time></trkpt><trkpt lat="44.46574300603925" lon="11.30067691772945"><ele>250.83333333333334</ele><time>2026-05-01T14:26:03.999Z</time></trkpt><trkpt lat="44.46582609789672" lon="11.300634104832461"><ele>250.66666666666669</ele><time>2026-05-01T14:26:04.999Z</time></trkpt><trkpt lat="44.465900316617834" lon="11.300593928007682"><ele>250.5</ele><time>2026-05-01T14:26:05.999Z</time></trkpt><trkpt lat="44.46596972547743" lon="11.300555906838447"><ele>250.33333333333331</ele><time>2026-05-01T14:26:06.999Z</time></trkpt><trkpt lat="44.46604998599854" lon="11.300527307377418"><ele>250.16666666666666</ele><time>2026-05-01T14:26:07.999Z</time></trkpt><trkpt lat="44.46613993623684" lon="11.300512387107469"><ele>250.0</ele><time>2026-05-01T14:26:08.999Z</time></trkpt><trkpt lat="44.466228459412235" lon="11.300518928255366"><ele>250.33333333333331</ele><time>2026-05-01T14:26:09.999Z</time></trkpt><trkpt lat="44.46631021440568" lon="11.300539691596667"><ele>250.66666666666666</ele><time>2026-05-01T14:26:10.999Z</time></trkpt><trkpt lat="44.46637557444902" lon="11.300573138501358"><ele>251.0</ele><time>2026-05-01T14:26:11.999Z</time></trkpt><trkpt lat="44.466442476407" lon="11.300593446312531"><ele>251.33333333333331</ele><time>2026-05-01T14:26:12.999Z</time></trkpt><trkpt lat="44.46650474659816" lon="11.300611239622588"><ele>251.66666666666666</ele><time>2026-05-01T14:26:13.999Z</time></trkpt><trkpt lat="44.46661884856224" lon="11.300653807153415"><ele>252.0</ele><time>2026-05-01T14:26:15.999Z</time></trkpt><trkpt lat="44.46667462078458" lon="11.30070243550219"><ele>252.0</ele><time>2026-05-01T14:26:16.999Z</time></trkpt><trkpt lat="44.466739281275345" lon="11.300757689911583"><ele>252.0</ele><time>2026-05-01T14:26:17.999Z</time></trkpt><trkpt lat="44.46680152122815" lon="11.300814123715103"><ele>252.0</ele><time>2026-05-01T14:26:18.999Z</time></trkpt><trkpt lat="44.4668566504259" lon="11.300876490186885"><ele>252.0</ele><time>2026-05-01T14:26:19.999Z</time></trkpt><trkpt lat="44.46691551139215" lon="11.300934961763868"><ele>252.0</ele><time>2026-05-01T14:26:20.999Z</time></trkpt><trkpt lat="44.46697268763693" lon="11.301002486972672"><ele>252.0</ele><time>2026-05-01T14:26:21.999Z</time></trkpt><trkpt lat="44.46701205374413" lon="11.301098276488016"><ele>252.0</ele><time>2026-05-01T14:26:22.999Z</time></trkpt><trkpt lat="44.467029895277754" lon="11.30120767808557"><ele>251.2</ele><time>2026-05-01T14:26:23.999Z</time></trkpt><trkpt lat="44.46713312728302" lon="11.301312103129225"><ele>250.39999999999998</ele><time>2026-05-01T14:26:25.999Z</time></trkpt><trkpt lat="44.46719653947027" lon="11.301379595614838"><ele>249.60000000000002</ele><time>2026-05-01T14:26:26.999Z</time></trkpt><trkpt lat="44.46725319100062" lon="11.301476050045578"><ele>248.8</ele><time>2026-05-01T14:26:27.999Z</time></trkpt><trkpt lat="44.46730835747899" lon="11.301563431814138"><ele>248.0</ele><time>2026-05-01T14:26:28.999Z</time></trkpt><trkpt lat="44.4673549057918" lon="11.301640636574593"><ele>248.00000000000003</ele><time>2026-05-01T14:26:29.999Z</time></trkpt><trkpt lat="44.46740385693617" lon="11.301719053971683"><ele>248.0</ele><time>2026-05-01T14:26:30.999Z</time></trkpt><trkpt lat="44.46745924829809" lon="11.301817201407093"><ele>248.0</ele><time>2026-05-01T14:26:31.999Z</time></trkpt><trkpt lat="44.4675081549029" lon="11.30191144569303"><ele>248.0</ele><time>2026-05-01T14:26:32.999Z</time></trkpt><trkpt lat="44.4675631636428" lon="11.302008995850981"><ele>248.00000000000003</ele><time>2026-05-01T14:26:33.999Z</time></trkpt><trkpt lat="44.46761016292682" lon="11.302119749311325"><ele>248.0</ele><time>2026-05-01T14:26:34.999Z</time></trkpt><trkpt lat="44.46763691358151" lon="11.302255185627871"><ele>245.4</ele><time>2026-05-01T14:26:35.999Z</time></trkpt><trkpt lat="44.46766138068198" lon="11.302377743337317"><ele>242.8</ele><time>2026-05-01T14:26:36.999Z</time></trkpt><trkpt lat="44.46769575581031" lon="11.302510046793465"><ele>240.2</ele><time>2026-05-01T14:26:37.999Z</time></trkpt><trkpt lat="44.467710335576825" lon="11.302655253544453"><ele>237.6</ele><time>2026-05-01T14:26:38.999Z</time></trkpt><trkpt lat="44.46773570121708" lon="11.302768495045333"><ele>235.0</ele><time>2026-05-01T14:26:39.999Z</time></trkpt><trkpt lat="44.4677589380595" lon="11.302882067121828"><ele>234.99999999999997</ele><time>2026-05-01T14:26:40.999Z</time></trkpt><trkpt lat="44.467782823907896" lon="11.302981744420578"><ele>235.0</ele><time>2026-05-01T14:26:41.999Z</time></trkpt><trkpt lat="44.467804140807814" lon="11.303084426173362"><ele>235.0</ele><time>2026-05-01T14:26:42.999Z</time></trkpt><trkpt lat="44.46781934209973" lon="11.303205136542019"><ele>235.0</ele><time>2026-05-01T14:26:43.999Z</time></trkpt><trkpt lat="44.467865619086524" lon="11.303315247849978"><ele>234.99999999999997</ele><time>2026-05-01T14:26:44.999Z</time></trkpt><trkpt lat="44.467920962273865" lon="11.30344337228796"><ele>235.0</ele><time>2026-05-01T14:26:45.999Z</time></trkpt><trkpt lat="44.46798733115218" lon="11.303565134753734"><ele>234.33333333333331</ele><time>2026-05-01T14:26:46.999Z</time></trkpt><trkpt lat="44.468050237001684" lon="11.303683732583423"><ele>233.66666666666666</ele><time>2026-05-01T14:26:47.999Z</time></trkpt><trkpt lat="44.468073957523835" lon="11.303781950863453"><ele>233.0</ele><time>2026-05-01T14:26:48.999Z</time></trkpt><trkpt lat="44.468113553433014" lon="11.303890951442416"><ele>232.33333333333331</ele><time>2026-05-01T14:26:49.999Z</time></trkpt><trkpt lat="44.46815566558063" lon="11.303999605806437"><ele>231.66666666666666</ele><time>2026-05-01T14:26:50.999Z</time></trkpt><trkpt lat="44.468183616187595" lon="11.304115988938499"><ele>231.0</ele><time>2026-05-01T14:26:51.999Z</time></trkpt><trkpt lat="44.46820802431471" lon="11.304234166689424"><ele>231.0</ele><time>2026-05-01T14:26:52.999Z</time></trkpt><trkpt lat="44.468234550266914" lon="11.30434532502682"><ele>231.0</ele><time>2026-05-01T14:26:53.999Z</time></trkpt><trkpt lat="44.46826181127561" lon="11.304443337234355"><ele>231.0</ele><time>2026-05-01T14:26:54.999Z</time></trkpt><trkpt lat="44.468298441154346" lon="11.30454016865039"><ele>231.0</ele><time>2026-05-01T14:26:55.999Z</time></trkpt><trkpt lat="44.46831739759175" lon="11.304657583434098"><ele>231.0</ele><time>2026-05-01T14:26:56.999Z</time></trkpt><trkpt lat="44.46834894374432" lon="11.304781203725382"><ele>231.0</ele><time>2026-05-01T14:26:57.999Z</time></trkpt><trkpt lat="44.46838803168547" lon="11.304915635133158"><ele>230.0</ele><time>2026-05-01T14:26:58.999Z</time></trkpt><trkpt lat="44.468407532463814" lon="11.305040449300577"><ele>229.0</ele><time>2026-05-01T14:26:59.999Z</time></trkpt><trkpt lat="44.468424498227236" lon="11.305163845362332"><ele>228.0</ele><time>2026-05-01T14:27:00.999Z</time></trkpt><trkpt lat="44.468427862647914" lon="11.305272332130501"><ele>227.0</ele><time>2026-05-01T14:27:02Z</time></trkpt><trkpt lat="44.46844657085752" lon="11.30538808050828"><ele>226.0</ele><time>2026-05-01T14:27:03Z</time></trkpt><trkpt lat="44.4684808896023" lon="11.30550399400022"><ele>225.0</ele><time>2026-05-01T14:27:04Z</time></trkpt><trkpt lat="44.468512746871795" lon="11.305633432265166"><ele>223.8</ele><time>2026-05-01T14:27:05Z</time></trkpt><trkpt lat="44.46857013918535" lon="11.305753201104826"><ele>222.6</ele><time>2026-05-01T14:27:06Z</time></trkpt><trkpt lat="44.468642426628975" lon="11.305845100050975"><ele>221.39999999999998</ele><time>2026-05-01T14:27:07Z</time></trkpt><trkpt lat="44.46871305980245" lon="11.305929171312968"><ele>220.2</ele><time>2026-05-01T14:27:08Z</time></trkpt><trkpt lat="44.46879751682133" lon="11.305941188742842"><ele>219.0</ele><time>2026-05-01T14:27:09Z</time></trkpt><trkpt lat="44.46889480313098" lon="11.306008971559129"><ele>219.0</ele><time>2026-05-01T14:27:11Z</time></trkpt><trkpt lat="44.46900677096152" lon="11.306048039831635"><ele>218.99999999999997</ele><time>2026-05-01T14:27:13Z</time></trkpt><trkpt lat="44.469126769243445" lon="11.306045912420432"><ele>218.99999999999997</ele><time>2026-05-01T14:27:15Z</time></trkpt><trkpt lat="44.469187984121355" lon="11.305983642791698"><ele>219.0</ele><time>2026-05-01T14:27:16Z</time></trkpt><trkpt lat="44.46922134044549" lon="11.305876816182566"><ele>219.0</ele><time>2026-05-01T14:27:17Z</time></trkpt><trkpt lat="44.469272469376946" lon="11.305762290423752"><ele>219.0</ele><time>2026-05-01T14:27:18Z</time></trkpt><trkpt lat="44.46930356670621" lon="11.305672695776579"><ele>219.0</ele><time>2026-05-01T14:27:19Z</time></trkpt><trkpt lat="44.46934345077521" lon="11.305573102832655"><ele>219.0</ele><time>2026-05-01T14:27:20Z</time></trkpt><trkpt lat="44.46938266446838" lon="11.305472927818858"><ele>219.0</ele><time>2026-05-01T14:27:21Z</time></trkpt><trkpt lat="44.46942274533864" lon="11.305371972586167"><ele>219.0</ele><time>2026-05-01T14:27:22Z</time></trkpt><trkpt lat="44.46947107633833" lon="11.30528571397829"><ele>219.0</ele><time>2026-05-01T14:27:23Z</time></trkpt><trkpt lat="44.46950495902009" lon="11.305190718353227"><ele>220.39999999999998</ele><time>2026-05-01T14:27:24Z</time></trkpt><trkpt lat="44.46955726550363" lon="11.30509387032572"><ele>221.79999999999998</ele><time>2026-05-01T14:27:25Z</time></trkpt><trkpt lat="44.46962690039134" lon="11.304999522075184"><ele>223.20000000000002</ele><time>2026-05-01T14:27:26Z</time></trkpt><trkpt lat="44.469706914399424" lon="11.304921569076788"><ele>224.60000000000002</ele><time>2026-05-01T14:27:27Z</time></trkpt><trkpt lat="44.469793835447256" lon="11.304852328953219"><ele>226.0</ele><time>2026-05-01T14:27:28Z</time></trkpt><trkpt lat="44.4698712958317" lon="11.30477122873556"><ele>225.33333333333331</ele><time>2026-05-01T14:27:29Z</time></trkpt><trkpt lat="44.4699362936465" lon="11.304678842301485"><ele>224.66666666666666</ele><time>2026-05-01T14:27:30Z</time></trkpt><trkpt lat="44.46999256255003" lon="11.304578781606512"><ele>224.0</ele><time>2026-05-01T14:27:31Z</time></trkpt><trkpt lat="44.47003257494288" lon="11.304484840855398"><ele>223.33333333333331</ele><time>2026-05-01T14:27:32Z</time></trkpt><trkpt lat="44.47007988632857" lon="11.304405224940869"><ele>222.66666666666666</ele><time>2026-05-01T14:27:33Z</time></trkpt><trkpt lat="44.47013895623596" lon="11.30432477293207"><ele>222.0</ele><time>2026-05-01T14:27:34Z</time></trkpt><trkpt lat="44.470187215830954" lon="11.304237438117868"><ele>222.0</ele><time>2026-05-01T14:27:35Z</time></trkpt><trkpt lat="44.47024180380775" lon="11.304158787303447"><ele>222.0</ele><time>2026-05-01T14:27:36Z</time></trkpt><trkpt lat="44.47031114884181" lon="11.30408732400099"><ele>222.0</ele><time>2026-05-01T14:27:37Z</time></trkpt><trkpt lat="44.47039303607273" lon="11.304041070982537"><ele>222.0</ele><time>2026-05-01T14:27:38Z</time></trkpt><trkpt lat="44.470489449856814" lon="11.304042016531374"><ele>222.0</ele><time>2026-05-01T14:27:39Z</time></trkpt><trkpt lat="44.470659847494744" lon="11.304130226393628"><ele>220.2</ele><time>2026-05-01T14:27:41Z</time></trkpt><trkpt lat="44.4707213370883" lon="11.30419740460123"><ele>218.39999999999998</ele><time>2026-05-01T14:27:42Z</time></trkpt><trkpt lat="44.470778294295314" lon="11.30430350333088"><ele>216.60000000000002</ele><time>2026-05-01T14:27:43Z</time></trkpt><trkpt lat="44.47086235356965" lon="11.304430947373001"><ele>214.8</ele><time>2026-05-01T14:27:44Z</time></trkpt><trkpt lat="44.47093423742116" lon="11.304521712688945"><ele>213.0</ele><time>2026-05-01T14:27:45Z</time></trkpt><trkpt lat="44.47100338008867" lon="11.304640241153688"><ele>213.0</ele><time>2026-05-01T14:27:46Z</time></trkpt><trkpt lat="44.47107406220299" lon="11.304713013542978"><ele>213.0</ele><time>2026-05-01T14:27:47Z</time></trkpt><trkpt lat="44.47112937282146" lon="11.30478184811255"><ele>213.0</ele><time>2026-05-01T14:27:48Z</time></trkpt><trkpt lat="44.47118808955225" lon="11.304876686432763"><ele>213.0</ele><time>2026-05-01T14:27:49Z</time></trkpt><trkpt lat="44.47125200526542" lon="11.304942007668147"><ele>213.0</ele><time>2026-05-01T14:27:50Z</time></trkpt><trkpt lat="44.471329495842596" lon="11.305019262456328"><ele>213.0</ele><time>2026-05-01T14:27:51Z</time></trkpt><trkpt lat="44.47139780049571" lon="11.305125732397538"><ele>212.2</ele><time>2026-05-01T14:27:52Z</time></trkpt><trkpt lat="44.47145123977001" lon="11.305233807381182"><ele>211.4</ele><time>2026-05-01T14:27:53Z</time></trkpt><trkpt lat="44.47149410389409" lon="11.30535850288466"><ele>210.6</ele><time>2026-05-01T14:27:53.998Z</time></trkpt><trkpt lat="44.4715284619178" lon="11.305504217631638"><ele>209.79999999999998</ele><time>2026-05-01T14:27:54.998Z</time></trkpt><trkpt lat="44.47154962038725" lon="11.305643348490245"><ele>209.0</ele><time>2026-05-01T14:27:55.998Z</time></trkpt><trkpt lat="44.47156966671546" lon="11.305769551468794"><ele>206.16666666666669</ele><time>2026-05-01T14:27:56.998Z</time></trkpt><trkpt lat="44.471587844466114" lon="11.30588298309408"><ele>203.33333333333334</ele><time>2026-05-01T14:27:57.998Z</time></trkpt><trkpt lat="44.471615050469275" lon="11.305986738869862"><ele>200.5</ele><time>2026-05-01T14:27:58.998Z</time></trkpt><trkpt lat="44.47167714837263" lon="11.30608860902881"><ele>197.66666666666669</ele><time>2026-05-01T14:27:59.998Z</time></trkpt><trkpt lat="44.471735087183724" lon="11.306175838256708"><ele>194.83333333333334</ele><time>2026-05-01T14:28:00.998Z</time></trkpt><trkpt lat="44.471800541496734" lon="11.306263595528053"><ele>192.0</ele><time>2026-05-01T14:28:01.998Z</time></trkpt><trkpt lat="44.47185448389302" lon="11.306342008070322"><ele>193.28571428571428</ele><time>2026-05-01T14:28:02.998Z</time></trkpt><trkpt lat="44.471887443284004" lon="11.306430737819293"><ele>194.57142857142856</ele><time>2026-05-01T14:28:03.998Z</time></trkpt><trkpt lat="44.47193599736289" lon="11.306505898371283"><ele>195.85714285714283</ele><time>2026-05-01T14:28:04.998Z</time></trkpt><trkpt lat="44.47198025393139" lon="11.306590048940544"><ele>197.14285714285714</ele><time>2026-05-01T14:28:05.998Z</time></trkpt><trkpt lat="44.472022276287696" lon="11.306677407674492"><ele>198.42857142857144</ele><time>2026-05-01T14:28:06.998Z</time></trkpt><trkpt lat="44.47206200244651" lon="11.306773551955418"><ele>199.7142857142857</ele><time>2026-05-01T14:28:07.998Z</time></trkpt><trkpt lat="44.472093835986435" lon="11.306870157295307"><ele>201.0</ele><time>2026-05-01T14:28:08.998Z</time></trkpt><trkpt lat="44.472128377356114" lon="11.306971221569588"><ele>201.0</ele><time>2026-05-01T14:28:09.998Z</time></trkpt><trkpt lat="44.47216233385704" lon="11.307072273815804"><ele>201.0</ele><time>2026-05-01T14:28:10.998Z</time></trkpt><trkpt lat="44.47220341067349" lon="11.307180788642412"><ele>201.0</ele><time>2026-05-01T14:28:11.998Z</time></trkpt><trkpt lat="44.47224503173684" lon="11.307293639765504"><ele>201.0</ele><time>2026-05-01T14:28:12.999Z</time></trkpt><trkpt lat="44.47228089620163" lon="11.307416726986556"><ele>201.0</ele><time>2026-05-01T14:28:13.999Z</time></trkpt><trkpt lat="44.47231153412461" lon="11.30754017810173"><ele>201.0</ele><time>2026-05-01T14:28:14.999Z</time></trkpt><trkpt lat="44.472347118950566" lon="11.307673000827819"><ele>199.5</ele><time>2026-05-01T14:28:15.999Z</time></trkpt><trkpt lat="44.47237357535055" lon="11.307803777491491"><ele>198.0</ele><time>2026-05-01T14:28:16.999Z</time></trkpt><trkpt lat="44.47239805775739" lon="11.307932684021377"><ele>196.5</ele><time>2026-05-01T14:28:17.999Z</time></trkpt><trkpt lat="44.472409175524724" lon="11.308045335190268"><ele>195.0</ele><time>2026-05-01T14:28:18.999Z</time></trkpt><trkpt lat="44.472418581066044" lon="11.308162346021632"><ele>193.5</ele><time>2026-05-01T14:28:19.999Z</time></trkpt><trkpt lat="44.472424838184274" lon="11.308283649384427"><ele>192.0</ele><time>2026-05-01T14:28:20.999Z</time></trkpt><trkpt lat="44.472427695077315" lon="11.308411619488233"><ele>190.16666666666666</ele><time>2026-05-01T14:28:21.999Z</time></trkpt><trkpt lat="44.47242764409312" lon="11.308535999776986"><ele>188.33333333333334</ele><time>2026-05-01T14:28:22.999Z</time></trkpt><trkpt lat="44.47243688376272" lon="11.308658916768348"><ele>186.5</ele><time>2026-05-01T14:28:23.999Z</time></trkpt><trkpt lat="44.472446109670734" lon="11.308779402496432"><ele>184.66666666666669</ele><time>2026-05-01T14:28:24.999Z</time></trkpt><trkpt lat="44.472469950924726" lon="11.308896569022522"><ele>182.83333333333334</ele><time>2026-05-01T14:28:25.999Z</time></trkpt><trkpt lat="44.472510104069734" lon="11.309013069002368"><ele>181.0</ele><time>2026-05-01T14:28:26.999Z</time></trkpt><trkpt lat="44.47256342166124" lon="11.309117948139779"><ele>179.60000000000002</ele><time>2026-05-01T14:28:27.999Z</time></trkpt><trkpt lat="44.47261581734153" lon="11.309227963734216"><ele>178.2</ele><time>2026-05-01T14:28:28.999Z</time></trkpt><trkpt lat="44.47268731098913" lon="11.309298109703162"><ele>176.8</ele><time>2026-05-01T14:28:29.999Z</time></trkpt><trkpt lat="44.472764173600595" lon="11.30932946846452"><ele>175.39999999999998</ele><time>2026-05-01T14:28:30.999Z</time></trkpt><trkpt lat="44.47285065490828" lon="11.309298374709835"><ele>174.0</ele><time>2026-05-01T14:28:31.999Z</time></trkpt><trkpt lat="44.47294875561297" lon="11.309276632572848"><ele>174.0</ele><time>2026-05-01T14:28:32.999Z</time></trkpt><trkpt lat="44.47305356449881" lon="11.309297949900133"><ele>174.0</ele><time>2026-05-01T14:28:33.999Z</time></trkpt><trkpt lat="44.47314065160083" lon="11.309304427903102"><ele>174.0</ele><time>2026-05-01T14:28:34.999Z</time></trkpt><trkpt lat="44.47323010786557" lon="11.309322904623716"><ele>174.0</ele><time>2026-05-01T14:28:35.999Z</time></trkpt><trkpt lat="44.47331043998369" lon="11.309344859633162"><ele>174.0</ele><time>2026-05-01T14:28:36.999Z</time></trkpt><trkpt lat="44.47338115889068" lon="11.309371574853193"><ele>174.0</ele><time>2026-05-01T14:28:37.999Z</time></trkpt><trkpt lat="44.47344161745734" lon="11.309403390377295"><ele>174.0</ele><time>2026-05-01T14:28:38.999Z</time></trkpt><trkpt lat="44.473547320865784" lon="11.309415830470062"><ele>174.0</ele><time>2026-05-01T14:28:40.999Z</time></trkpt><trkpt lat="44.47361859970387" lon="11.30939926154252"><ele>174.0</ele><time>2026-05-01T14:28:41.999Z</time></trkpt><trkpt lat="44.473695204603054" lon="11.309351995977106"><ele>174.0</ele><time>2026-05-01T14:28:42.999Z</time></trkpt><trkpt lat="44.4737639091561" lon="11.309286537470587"><ele>174.0</ele><time>2026-05-01T14:28:43.999Z</time></trkpt><trkpt lat="44.47383518252075" lon="11.309213288858905"><ele>174.0</ele><time>2026-05-01T14:28:44.999Z</time></trkpt><trkpt lat="44.47389926266943" lon="11.309153607707149"><ele>172.2</ele><time>2026-05-01T14:28:45.999Z</time></trkpt><trkpt lat="44.47397201249045" lon="11.309094547269801"><ele>170.39999999999998</ele><time>2026-05-01T14:28:46.999Z</time></trkpt><trkpt lat="44.47405854887784" lon="11.30904299219443"><ele>168.6</ele><time>2026-05-01T14:28:47.999Z</time></trkpt><trkpt lat="44.47413915391817" lon="11.309008575852246"><ele>166.8</ele><time>2026-05-01T14:28:48.999Z</time></trkpt><trkpt lat="44.47423650363563" lon="11.308989908552467"><ele>165.0</ele><time>2026-05-01T14:28:49.999Z</time></trkpt><trkpt lat="44.47438142922911" lon="11.308957097748062"><ele>165.0</ele><time>2026-05-01T14:28:51.999Z</time></trkpt><trkpt lat="44.4744645547591" lon="11.308955328541925"><ele>165.0</ele><time>2026-05-01T14:28:52.999Z</time></trkpt><trkpt lat="44.47453596559463" lon="11.308956798623292"><ele>165.0</ele><time>2026-05-01T14:28:53.999Z</time></trkpt><trkpt lat="44.47460536900877" lon="11.308979014097847"><ele>165.0</ele><time>2026-05-01T14:28:54.999Z</time></trkpt><trkpt lat="44.474729882869816" lon="11.30898773069147"><ele>165.0</ele><time>2026-05-01T14:28:57Z</time></trkpt><trkpt lat="44.47479749191371" lon="11.308992309403301"><ele>165.0</ele><time>2026-05-01T14:28:58Z</time></trkpt><trkpt lat="44.4748669028532" lon="11.308989591423575"><ele>164.16666666666666</ele><time>2026-05-01T14:28:59Z</time></trkpt><trkpt lat="44.47493958499816" lon="11.308992984695843"><ele>163.33333333333334</ele><time>2026-05-01T14:29:00Z</time></trkpt><trkpt lat="44.475009067836965" lon="11.309005647257937"><ele>162.5</ele><time>2026-05-01T14:29:01Z</time></trkpt><trkpt lat="44.475072761217355" lon="11.309012805206661"><ele>161.66666666666669</ele><time>2026-05-01T14:29:02Z</time></trkpt><trkpt lat="44.47518835443348" lon="11.309014743856796"><ele>160.83333333333334</ele><time>2026-05-01T14:29:04Z</time></trkpt><trkpt lat="44.47525619129985" lon="11.30901751703821"><ele>160.0</ele><time>2026-05-01T14:29:06Z</time></trkpt><trkpt lat="44.47532309528845" lon="11.30901312962095"><ele>159.66666666666669</ele><time>2026-05-01T14:29:08Z</time></trkpt><trkpt lat="44.47544164828894" lon="11.309020181660646"><ele>159.33333333333334</ele><time>2026-05-01T14:29:10Z</time></trkpt><trkpt lat="44.47551012200729" lon="11.309029091149021"><ele>159.0</ele><time>2026-05-01T14:29:11Z</time></trkpt><trkpt lat="44.475589180121986" lon="11.30903459941214"><ele>158.66666666666666</ele><time>2026-05-01T14:29:12Z</time></trkpt><trkpt lat="44.47566939920267" lon="11.30903540674893"><ele>158.33333333333331</ele><time>2026-05-01T14:29:13Z</time></trkpt><trkpt lat="44.4757528326131" lon="11.309030843322429"><ele>158.0</ele><time>2026-05-01T14:29:14Z</time></trkpt><trkpt lat="44.47583097086982" lon="11.309032475747124"><ele>158.0</ele><time>2026-05-01T14:29:15Z</time></trkpt><trkpt lat="44.475908393538354" lon="11.309037127211335"><ele>158.0</ele><time>2026-05-01T14:29:16Z</time></trkpt><trkpt lat="44.47599037171726" lon="11.309033490916203"><ele>158.0</ele><time>2026-05-01T14:29:17Z</time></trkpt><trkpt lat="44.47607360686382" lon="11.309028456538128"><ele>158.0</ele><time>2026-05-01T14:29:18Z</time></trkpt><trkpt lat="44.4761483738457" lon="11.309020460068723"><ele>158.0</ele><time>2026-05-01T14:29:19Z</time></trkpt><trkpt lat="44.47623164898347" lon="11.309006907915297"><ele>158.0</ele><time>2026-05-01T14:29:20Z</time></trkpt><trkpt lat="44.47629763827331" lon="11.309016091785775"><ele>158.0</ele><time>2026-05-01T14:29:21Z</time></trkpt><trkpt lat="44.47637059666318" lon="11.309008016797069"><ele>158.0</ele><time>2026-05-01T14:29:22Z</time></trkpt><trkpt lat="44.47645908890906" lon="11.308981105264166"><ele>158.0</ele><time>2026-05-01T14:29:23Z</time></trkpt><trkpt lat="44.47653521249711" lon="11.308976993197614"><ele>158.0</ele><time>2026-05-01T14:29:24Z</time></trkpt><trkpt lat="44.476606447600126" lon="11.308959830442834"><ele>158.0</ele><time>2026-05-01T14:29:25Z</time></trkpt><trkpt lat="44.47667474968938" lon="11.308947712008823"><ele>158.0</ele><time>2026-05-01T14:29:26Z</time></trkpt><trkpt lat="44.47675468310805" lon="11.308938855131668"><ele>158.0</ele><time>2026-05-01T14:29:27Z</time></trkpt><trkpt lat="44.47682855822132" lon="11.308964125004067"><ele>158.0</ele><time>2026-05-01T14:29:28Z</time></trkpt><trkpt lat="44.47694312463978" lon="11.308992640722748"><ele>158.0</ele><time>2026-05-01T14:29:30Z</time></trkpt><trkpt lat="44.477030616043486" lon="11.30908916971472"><ele>158.0</ele><time>2026-05-01T14:29:32Z</time></trkpt><trkpt lat="44.47709781952684" lon="11.309206497906489"><ele>158.0</ele><time>2026-05-01T14:29:34Z</time></trkpt><trkpt lat="44.477169860094776" lon="11.309322960301316"><ele>159.0</ele><time>2026-05-01T14:29:36Z</time></trkpt><trkpt lat="44.47723785048168" lon="11.309449449345738"><ele>160.0</ele><time>2026-05-01T14:29:38Z</time></trkpt><trkpt lat="44.47729768216178" lon="11.309537841146192"><ele>161.0</ele><time>2026-05-01T14:29:40Z</time></trkpt><trkpt lat="44.47735452206103" lon="11.309655130525119"><ele>162.0</ele><time>2026-05-01T14:29:42Z</time></trkpt><trkpt lat="44.47738762655574" lon="11.309735626067948"><ele>163.0</ele><time>2026-05-01T14:29:43Z</time></trkpt><trkpt lat="44.47742796435882" lon="11.30982075560258"><ele>164.0</ele><time>2026-05-01T14:29:44Z</time></trkpt><trkpt lat="44.477447419466465" lon="11.309923816027291"><ele>162.0</ele><time>2026-05-01T14:29:45Z</time></trkpt><trkpt lat="44.47747524161585" lon="11.310007807217392"><ele>160.0</ele><time>2026-05-01T14:29:46Z</time></trkpt><trkpt lat="44.47752344417578" lon="11.310159412709595"><ele>158.0</ele><time>2026-05-01T14:29:48Z</time></trkpt><trkpt lat="44.47759164515296" lon="11.310293992404866"><ele>156.0</ele><time>2026-05-01T14:29:50Z</time></trkpt><trkpt lat="44.47763278872407" lon="11.310371935331053"><ele>154.0</ele><time>2026-05-01T14:29:51Z</time></trkpt><trkpt lat="44.47767803683365" lon="11.310459243328616"><ele>152.0</ele><time>2026-05-01T14:29:52Z</time></trkpt><trkpt lat="44.477709248874696" lon="11.310541067477569"><ele>152.0</ele><time>2026-05-01T14:29:53Z</time></trkpt><trkpt lat="44.47773623100315" lon="11.310633605586517"><ele>152.0</ele><time>2026-05-01T14:29:54Z</time></trkpt><trkpt lat="44.47777309360677" lon="11.310721850722505"><ele>152.0</ele><time>2026-05-01T14:29:55Z</time></trkpt><trkpt lat="44.47781126669681" lon="11.310804347965018"><ele>152.0</ele><time>2026-05-01T14:29:56Z</time></trkpt><trkpt lat="44.47784799292779" lon="11.310899713493066"><ele>152.0</ele><time>2026-05-01T14:29:57Z</time></trkpt><trkpt lat="44.47788887771444" lon="11.310987964679423"><ele>152.0</ele><time>2026-05-01T14:29:58Z</time></trkpt><trkpt lat="44.477919727490765" lon="11.31107554738545"><ele>152.0</ele><time>2026-05-01T14:29:59Z</time></trkpt><trkpt lat="44.47796120759185" lon="11.31115454151645"><ele>152.0</ele><time>2026-05-01T14:29:59.997Z</time></trkpt><trkpt lat="44.47800988420351" lon="11.31121907624434"><ele>152.0</ele><time>2026-05-01T14:30:00.997Z</time></trkpt><trkpt lat="44.47806677339366" lon="11.31127068609249"><ele>152.0</ele><time>2026-05-01T14:30:01.998Z</time></trkpt><trkpt lat="44.47812731364595" lon="11.311315158830459"><ele>152.0</ele><time>2026-05-01T14:30:02.998Z</time></trkpt><trkpt lat="44.478209646234546" lon="11.311344221321658"><ele>152.0</ele><time>2026-05-01T14:30:03.998Z</time></trkpt><trkpt lat="44.47830502124034" lon="11.31137125749738"><ele>152.0</ele><time>2026-05-01T14:30:04.998Z</time></trkpt><trkpt lat="44.478382525932346" lon="11.31137371964417"><ele>152.0</ele><time>2026-05-01T14:30:05.998Z</time></trkpt><trkpt lat="44.47846003996767" lon="11.311379712823427"><ele>152.0</ele><time>2026-05-01T14:30:06.998Z</time></trkpt><trkpt lat="44.478553588602445" lon="11.311392039234121"><ele>152.0</ele><time>2026-05-01T14:30:07.998Z</time></trkpt><trkpt lat="44.47866740938689" lon="11.311403759460774"><ele>152.0</ele><time>2026-05-01T14:30:08.998Z</time></trkpt><trkpt lat="44.47881072615225" lon="11.311416848482537"><ele>152.0</ele><time>2026-05-01T14:30:09.998Z</time></trkpt><trkpt lat="44.478937653671686" lon="11.311451153231358"><ele>150.2</ele><time>2026-05-01T14:30:10.998Z</time></trkpt><trkpt lat="44.479057352327224" lon="11.31150743601066"><ele>148.39999999999998</ele><time>2026-05-01T14:30:11.998Z</time></trkpt><trkpt lat="44.47914922879546" lon="11.311566945215759"><ele>146.60000000000002</ele><time>2026-05-01T14:30:12.998Z</time></trkpt><trkpt lat="44.47922381027067" lon="11.311637598001191"><ele>144.8</ele><time>2026-05-01T14:30:13.998Z</time></trkpt><trkpt lat="44.4793069385966" lon="11.31168447063925"><ele>143.0</ele><time>2026-05-01T14:30:14.998Z</time></trkpt><trkpt lat="44.479392375102265" lon="11.311717964123371"><ele>143.0</ele><time>2026-05-01T14:30:15.998Z</time></trkpt><trkpt lat="44.47947366706808" lon="11.311752064844494"><ele>143.0</ele><time>2026-05-01T14:30:16.998Z</time></trkpt><trkpt lat="44.47954391245522" lon="11.311798863034909"><ele>143.0</ele><time>2026-05-01T14:30:17.998Z</time></trkpt><trkpt lat="44.47962943100494" lon="11.311824739909458"><ele>143.0</ele><time>2026-05-01T14:30:18.999Z</time></trkpt><trkpt lat="44.47970577235547" lon="11.31185919296038"><ele>143.0</ele><time>2026-05-01T14:30:19.999Z</time></trkpt><trkpt lat="44.479780823942434" lon="11.311900429602648"><ele>143.0</ele><time>2026-05-01T14:30:20.999Z</time></trkpt><trkpt lat="44.47986010186642" lon="11.311921885567656"><ele>142.66666666666666</ele><time>2026-05-01T14:30:21.999Z</time></trkpt><trkpt lat="44.479938146345305" lon="11.311936092915294"><ele>142.33333333333331</ele><time>2026-05-01T14:30:22.999Z</time></trkpt><trkpt lat="44.48000559047937" lon="11.311948608136351"><ele>142.0</ele><time>2026-05-01T14:30:23.999Z</time></trkpt><trkpt lat="44.48013600449021" lon="11.311978669837401"><ele>141.66666666666666</ele><time>2026-05-01T14:30:25.999Z</time></trkpt><trkpt lat="44.48021995759776" lon="11.312006967529854"><ele>141.33333333333334</ele><time>2026-05-01T14:30:26.999Z</time></trkpt><trkpt lat="44.480292248797745" lon="11.312032362257018"><ele>141.0</ele><time>2026-05-01T14:30:27.999Z</time></trkpt><trkpt lat="44.480374078447774" lon="11.312057960845474"><ele>141.33333333333334</ele><time>2026-05-01T14:30:28.999Z</time></trkpt><trkpt lat="44.48045860502429" lon="11.312088177341305"><ele>141.66666666666666</ele><time>2026-05-01T14:30:29.999Z</time></trkpt><trkpt lat="44.480548648394056" lon="11.312121189911586"><ele>142.0</ele><time>2026-05-01T14:30:30.999Z</time></trkpt><trkpt lat="44.48063728789272" lon="11.31215447526849"><ele>142.33333333333331</ele><time>2026-05-01T14:30:31.999Z</time></trkpt><trkpt lat="44.4807122688701" lon="11.3121868352549"><ele>142.66666666666666</ele><time>2026-05-01T14:30:32.999Z</time></trkpt><trkpt lat="44.48079014701931" lon="11.312218447257074"><ele>143.0</ele><time>2026-05-01T14:30:33.999Z</time></trkpt><trkpt lat="44.48087253238989" lon="11.312263463077967"><ele>139.8</ele><time>2026-05-01T14:30:34.999Z</time></trkpt><trkpt lat="44.48103408769172" lon="11.312318333854707"><ele>136.60000000000002</ele><time>2026-05-01T14:30:36.999Z</time></trkpt><trkpt lat="44.481116950129135" lon="11.312353079436681"><ele>133.39999999999998</ele><time>2026-05-01T14:30:37.999Z</time></trkpt><trkpt lat="44.48119608443777" lon="11.312388133229751"><ele>130.2</ele><time>2026-05-01T14:30:38.999Z</time></trkpt><trkpt lat="44.48127064628855" lon="11.312417627119832"><ele>127.0</ele><time>2026-05-01T14:30:39.999Z</time></trkpt><trkpt lat="44.48133468628116" lon="11.312456526610848"><ele>127.00000000000001</ele><time>2026-05-01T14:30:40.999Z</time></trkpt><trkpt lat="44.48142422948751" lon="11.312475042755878"><ele>127.0</ele><time>2026-05-01T14:30:41.999Z</time></trkpt><trkpt lat="44.481512660268685" lon="11.312489017908902"><ele>127.0</ele><time>2026-05-01T14:30:42.999Z</time></trkpt><trkpt lat="44.48159809982936" lon="11.312501507594597"><ele>127.0</ele><time>2026-05-01T14:30:44Z</time></trkpt><trkpt lat="44.48168733676422" lon="11.312519344322425"><ele>127.00000000000001</ele><time>2026-05-01T14:30:45Z</time></trkpt><trkpt lat="44.48177664157959" lon="11.3125379958076"><ele>127.0</ele><time>2026-05-01T14:30:46Z</time></trkpt><trkpt lat="44.48186215812284" lon="11.312563104169884"><ele>127.00000000000001</ele><time>2026-05-01T14:30:47Z</time></trkpt><trkpt lat="44.48194754068418" lon="11.312599520199171"><ele>127.0</ele><time>2026-05-01T14:30:48Z</time></trkpt><trkpt lat="44.48203333768925" lon="11.312657116746088"><ele>127.0</ele><time>2026-05-01T14:30:49Z</time></trkpt><trkpt lat="44.482112545763634" lon="11.312718673658212"><ele>127.0</ele><time>2026-05-01T14:30:50Z</time></trkpt><trkpt lat="44.48219235583046" lon="11.312778698873988"><ele>127.00000000000001</ele><time>2026-05-01T14:30:51Z</time></trkpt><trkpt lat="44.48226062752252" lon="11.312840743350936"><ele>127.0</ele><time>2026-05-01T14:30:52Z</time></trkpt><trkpt lat="44.48232642773085" lon="11.312884375500984"><ele>127.0</ele><time>2026-05-01T14:30:53Z</time></trkpt><trkpt lat="44.48241926473833" lon="11.312916830998205"><ele>126.99999999999999</ele><time>2026-05-01T14:30:55Z</time></trkpt><trkpt lat="44.4825039517864" lon="11.312938667122252"><ele>126.99999999999999</ele><time>2026-05-01T14:30:58Z</time></trkpt><trkpt lat="44.482598379047" lon="11.312951273452597"><ele>127.0</ele><time>2026-05-01T14:31:01Z</time></trkpt><trkpt lat="44.48270379951392" lon="11.312939527809549"><ele>127.0</ele><time>2026-05-01T14:31:03Z</time></trkpt><trkpt lat="44.482829187555694" lon="11.312897275058027"><ele>126.66666666666667</ele><time>2026-05-01T14:31:05Z</time></trkpt><trkpt lat="44.48293120756518" lon="11.31283863268425"><ele>126.33333333333334</ele><time>2026-05-01T14:31:07Z</time></trkpt><trkpt lat="44.48299992749132" lon="11.312809728727041"><ele>126.0</ele><time>2026-05-01T14:31:08Z</time></trkpt><trkpt lat="44.483076144508644" lon="11.312782964440062"><ele>125.66666666666666</ele><time>2026-05-01T14:31:09Z</time></trkpt><trkpt lat="44.48314732499553" lon="11.312764404758829"><ele>125.33333333333333</ele><time>2026-05-01T14:31:10Z</time></trkpt><trkpt lat="44.48321289540469" lon="11.31277979550897"><ele>125.0</ele><time>2026-05-01T14:31:11Z</time></trkpt><trkpt lat="44.483285821864335" lon="11.312766984859836"><ele>124.99999999999999</ele><time>2026-05-01T14:31:12Z</time></trkpt><trkpt lat="44.48335749357681" lon="11.312784011520236"><ele>125.0</ele><time>2026-05-01T14:31:13Z</time></trkpt><trkpt lat="44.4834288175762" lon="11.312832748597247"><ele>125.0</ele><time>2026-05-01T14:31:14Z</time></trkpt><trkpt lat="44.483506551976376" lon="11.312857229218196"><ele>125.0</ele><time>2026-05-01T14:31:15Z</time></trkpt><trkpt lat="44.48358338723107" lon="11.312905144535101"><ele>124.99999999999999</ele><time>2026-05-01T14:31:16Z</time></trkpt><trkpt lat="44.48367033354203" lon="11.312948084745203"><ele>125.0</ele><time>2026-05-01T14:31:17Z</time></trkpt><trkpt lat="44.48373900780056" lon="11.313006445758862"><ele>125.2</ele><time>2026-05-01T14:31:18Z</time></trkpt><trkpt lat="44.48382012366301" lon="11.313037195583037"><ele>125.4</ele><time>2026-05-01T14:31:19Z</time></trkpt><trkpt lat="44.4839124047905" lon="11.313066736181169"><ele>125.6</ele><time>2026-05-01T14:31:20Z</time></trkpt><trkpt lat="44.48401839694548" lon="11.313106621559339"><ele>125.8</ele><time>2026-05-01T14:31:21Z</time></trkpt><trkpt lat="44.48413273389572" lon="11.313138035667603"><ele>126.0</ele><time>2026-05-01T14:31:22Z</time></trkpt><trkpt lat="44.484243194474125" lon="11.313158555494628"><ele>122.19999999999999</ele><time>2026-05-01T14:31:23Z</time></trkpt><trkpt lat="44.484338031886324" lon="11.313180893300432"><ele>118.39999999999999</ele><time>2026-05-01T14:31:24Z</time></trkpt><trkpt lat="44.48442538790564" lon="11.313199756751077"><ele>114.6</ele><time>2026-05-01T14:31:25Z</time></trkpt><trkpt lat="44.48450615472601" lon="11.31321565309513"><ele>110.8</ele><time>2026-05-01T14:31:26Z</time></trkpt><trkpt lat="44.48459496751278" lon="11.31322191840336"><ele>107.0</ele><time>2026-05-01T14:31:27Z</time></trkpt><trkpt lat="44.48469134583153" lon="11.313214993167543"><ele>106.66666666666666</ele><time>2026-05-01T14:31:28Z</time></trkpt><trkpt lat="44.48477521658189" lon="11.313196014975999"><ele>106.33333333333333</ele><time>2026-05-01T14:31:29Z</time></trkpt><trkpt lat="44.484844867020335" lon="11.313166411080045"><ele>106.0</ele><time>2026-05-01T14:31:30Z</time></trkpt><trkpt lat="44.48491501557862" lon="11.313136090522347"><ele>105.66666666666666</ele><time>2026-05-01T14:31:31Z</time></trkpt><trkpt lat="44.48499616251715" lon="11.31310389506637"><ele>105.33333333333333</ele><time>2026-05-01T14:31:32Z</time></trkpt><trkpt lat="44.485086818682994" lon="11.313084227700408"><ele>105.0</ele><time>2026-05-01T14:31:33Z</time></trkpt><trkpt lat="44.48518132586622" lon="11.313070215167231"><ele>105.0</ele><time>2026-05-01T14:31:34Z</time></trkpt><trkpt lat="44.485277157803274" lon="11.313073276596967"><ele>105.0</ele><time>2026-05-01T14:31:35Z</time></trkpt><trkpt lat="44.485372117042374" lon="11.313089472752491"><ele>105.0</ele><time>2026-05-01T14:31:36Z</time></trkpt><trkpt lat="44.48546878322364" lon="11.313113775220693"><ele>105.0</ele><time>2026-05-01T14:31:37.001Z</time></trkpt><trkpt lat="44.48555120306298" lon="11.313144720190074"><ele>105.0</ele><time>2026-05-01T14:31:38.001Z</time></trkpt><trkpt lat="44.48562765747776" lon="11.31317503504528"><ele>105.16666666666667</ele><time>2026-05-01T14:31:39.001Z</time></trkpt><trkpt lat="44.48569766524269" lon="11.313206063139578"><ele>105.33333333333334</ele><time>2026-05-01T14:31:40.001Z</time></trkpt><trkpt lat="44.48576462495392" lon="11.31323000708942"><ele>105.5</ele><time>2026-05-01T14:31:41.001Z</time></trkpt><trkpt lat="44.485828458690584" lon="11.313256425498324"><ele>105.66666666666667</ele><time>2026-05-01T14:31:42.001Z</time></trkpt><trkpt lat="44.485888235881035" lon="11.313285548503165"><ele>105.83333333333334</ele><time>2026-05-01T14:31:43.001Z</time></trkpt><trkpt lat="44.48597974598079" lon="11.313348453396491"><ele>106.0</ele><time>2026-05-01T14:31:45.001Z</time></trkpt><trkpt lat="44.48604287665581" lon="11.31341097608919"><ele>106.0</ele><time>2026-05-01T14:31:47.001Z</time></trkpt><trkpt lat="44.48608466141913" lon="11.313530824388"><ele>106.0</ele><time>2026-05-01T14:31:50.001Z</time></trkpt><trkpt lat="44.48598494941903" lon="11.313604453282995"><ele>106.0</ele><time>2026-05-01T14:31:52.001Z</time></trkpt><trkpt lat="44.485904781250184" lon="11.313573874982158"><ele>106.0</ele><time>2026-05-01T14:31:53.001Z</time></trkpt><trkpt lat="44.485817514003294" lon="11.313584250420245"><ele>106.0</ele><time>2026-05-01T14:31:54.001Z</time></trkpt><trkpt lat="44.485725026530794" lon="11.313606847947696"><ele>106.0</ele><time>2026-05-01T14:31:55.001Z</time></trkpt><trkpt lat="44.4856295006041" lon="11.31364695373797"><ele>106.0</ele><time>2026-05-01T14:31:56.001Z</time></trkpt><trkpt lat="44.48553246303903" lon="11.313693266127823"><ele>106.0</ele><time>2026-05-01T14:31:57.001Z</time></trkpt><trkpt lat="44.485432894769765" lon="11.313738045963124"><ele>106.0</ele><time>2026-05-01T14:31:58.001Z</time></trkpt><trkpt lat="44.48532945014364" lon="11.313816247325398"><ele>106.0</ele><time>2026-05-01T14:31:59.001Z</time></trkpt><trkpt lat="44.485226107184936" lon="11.313904554310675"><ele>103.4</ele><time>2026-05-01T14:32:00.001Z</time></trkpt><trkpt lat="44.48512825455731" lon="11.31398334321959"><ele>100.8</ele><time>2026-05-01T14:32:01.001Z</time></trkpt><trkpt lat="44.4850358501285" lon="11.314039251766266"><ele>98.2</ele><time>2026-05-01T14:32:02.001Z</time></trkpt><trkpt lat="44.48494514407827" lon="11.314071090145614"><ele>95.60000000000001</ele><time>2026-05-01T14:32:03.001Z</time></trkpt><trkpt lat="44.48486664428903" lon="11.314094552061075"><ele>93.0</ele><time>2026-05-01T14:32:04.001Z</time></trkpt><trkpt lat="44.48474798052993" lon="11.314115831370165"><ele>93.0</ele><time>2026-05-01T14:32:05.999Z</time></trkpt><trkpt lat="44.484641521433716" lon="11.314114545460349"><ele>93.0</ele><time>2026-05-01T14:32:07.999Z</time></trkpt><trkpt lat="44.48455878356275" lon="11.314118207836684"><ele>93.0</ele><time>2026-05-01T14:32:09.999Z</time></trkpt><trkpt lat="44.48448264848712" lon="11.314138936123898"><ele>93.0</ele><time>2026-05-01T14:32:11.999Z</time></trkpt><trkpt lat="44.48445270346613" lon="11.31426060832922"><ele>93.0</ele><time>2026-05-01T14:32:13.999Z</time></trkpt><trkpt lat="44.48454625607702" lon="11.314356908747948"><ele>93.0</ele><time>2026-05-01T14:32:15.999Z</time></trkpt><trkpt lat="44.48463022694277" lon="11.314361860034682"><ele>93.0</ele><time>2026-05-01T14:32:16.999Z</time></trkpt><trkpt lat="44.484723676161074" lon="11.314367064766452"><ele>93.0</ele><time>2026-05-01T14:32:17.999Z</time></trkpt><trkpt lat="44.48481794409799" lon="11.314384435940108"><ele>93.0</ele><time>2026-05-01T14:32:18.999Z</time></trkpt><trkpt lat="44.484898568479394" lon="11.31440720761742"><ele>93.0</ele><time>2026-05-01T14:32:19.999Z</time></trkpt><trkpt lat="44.484974596694805" lon="11.314421772344124"><ele>93.0</ele><time>2026-05-01T14:32:20.999Z</time></trkpt><trkpt lat="44.48505763108523" lon="11.31443128630637"><ele>93.0</ele><time>2026-05-01T14:32:21.999Z</time></trkpt><trkpt lat="44.485146187671646" lon="11.314448740228089"><ele>93.0</ele><time>2026-05-01T14:32:22.999Z</time></trkpt><trkpt lat="44.485236919105034" lon="11.31447492206974"><ele>93.0</ele><time>2026-05-01T14:32:24Z</time></trkpt><trkpt lat="44.48532179750283" lon="11.314506049624915"><ele>93.0</ele><time>2026-05-01T14:32:25Z</time></trkpt><trkpt lat="44.485409613019954" lon="11.314547694057833"><ele>93.0</ele><time>2026-05-01T14:32:26Z</time></trkpt><trkpt lat="44.485488389635194" lon="11.314574271824721"><ele>93.0</ele><time>2026-05-01T14:32:27Z</time></trkpt><trkpt lat="44.485562416055586" lon="11.314607696541369"><ele>93.0</ele><time>2026-05-01T14:32:28Z</time></trkpt><trkpt lat="44.48563786212464" lon="11.31463773009326"><ele>93.0</ele><time>2026-05-01T14:32:29Z</time></trkpt><trkpt lat="44.48570125382586" lon="11.314689457469926"><ele>93.0</ele><time>2026-05-01T14:32:30Z</time></trkpt><trkpt lat="44.48577872869452" lon="11.31472035901458"><ele>93.0</ele><time>2026-05-01T14:32:31Z</time></trkpt><trkpt lat="44.48586170494711" lon="11.314767402944485"><ele>93.0</ele><time>2026-05-01T14:32:32Z</time></trkpt><trkpt lat="44.48594100576144" lon="11.314801982044765"><ele>93.0</ele><time>2026-05-01T14:32:33Z</time></trkpt><trkpt lat="44.486021178368325" lon="11.31487806354078"><ele>91.16666666666667</ele><time>2026-05-01T14:32:34Z</time></trkpt><trkpt lat="44.48608838926854" lon="11.31489428961843"><ele>89.33333333333333</ele><time>2026-05-01T14:32:35Z</time></trkpt><trkpt lat="44.486186816561926" lon="11.314909211576834"><ele>87.5</ele><time>2026-05-01T14:32:36Z</time></trkpt><trkpt lat="44.48624558301504" lon="11.31495141251833"><ele>85.66666666666666</ele><time>2026-05-01T14:32:37Z</time></trkpt><trkpt lat="44.486311349931874" lon="11.314992999760472"><ele>83.83333333333333</ele><time>2026-05-01T14:32:38Z</time></trkpt><trkpt lat="44.48637370310927" lon="11.315035121110776"><ele>82.0</ele><time>2026-05-01T14:32:39Z</time></trkpt><trkpt lat="44.486448757371285" lon="11.31504634658527"><ele>81.33333333333333</ele><time>2026-05-01T14:32:40Z</time></trkpt><trkpt lat="44.48651668216403" lon="11.315091472471357"><ele>80.66666666666666</ele><time>2026-05-01T14:32:41Z</time></trkpt><trkpt lat="44.48658424225598" lon="11.315116056442834"><ele>80.0</ele><time>2026-05-01T14:32:42Z</time></trkpt><trkpt lat="44.48666494385341" lon="11.315148918326198"><ele>79.33333333333333</ele><time>2026-05-01T14:32:43Z</time></trkpt><trkpt lat="44.48677039948765" lon="11.315167447083192"><ele>78.66666666666667</ele><time>2026-05-01T14:32:44Z</time></trkpt><trkpt lat="44.48684192683451" lon="11.315209025166167"><ele>78.0</ele><time>2026-05-01T14:32:45Z</time></trkpt><trkpt lat="44.486904951566466" lon="11.315246735348103"><ele>78.0</ele><time>2026-05-01T14:32:46Z</time></trkpt><trkpt lat="44.48697603332735" lon="11.31526436819459"><ele>78.0</ele><time>2026-05-01T14:32:47Z</time></trkpt><trkpt lat="44.487037572806265" lon="11.315294786500788"><ele>78.0</ele><time>2026-05-01T14:32:48Z</time></trkpt><trkpt lat="44.48715319326075" lon="11.315349976428081"><ele>78.0</ele><time>2026-05-01T14:32:50Z</time></trkpt><trkpt lat="44.48722314008246" lon="11.315376823829272"><ele>78.0</ele><time>2026-05-01T14:32:51Z</time></trkpt><trkpt lat="44.48729572698142" lon="11.315412127953458"><ele>78.0</ele><time>2026-05-01T14:32:52Z</time></trkpt><trkpt lat="44.48737264688426" lon="11.31544257608167"><ele>77.16666666666667</ele><time>2026-05-01T14:32:53Z</time></trkpt><trkpt lat="44.487444799350854" lon="11.31546794181291"><ele>76.33333333333333</ele><time>2026-05-01T14:32:54Z</time></trkpt><trkpt lat="44.48750743105709" lon="11.315498387114497"><ele>75.5</ele><time>2026-05-01T14:32:55Z</time></trkpt><trkpt lat="44.48758544174047" lon="11.315534665047043"><ele>74.66666666666666</ele><time>2026-05-01T14:32:56Z</time></trkpt><trkpt lat="44.48765751182413" lon="11.315571786687379"><ele>73.83333333333333</ele><time>2026-05-01T14:32:57Z</time></trkpt><trkpt lat="44.48773090092502" lon="11.315602179640427"><ele>73.0</ele><time>2026-05-01T14:32:58Z</time></trkpt><trkpt lat="44.48784641007636" lon="11.315686111113791"><ele>73.0</ele><time>2026-05-01T14:33:00Z</time></trkpt><trkpt lat="44.487924063167355" lon="11.31571028608502"><ele>73.0</ele><time>2026-05-01T14:33:01Z</time></trkpt><trkpt lat="44.48800710991245" lon="11.315729805613621"><ele>73.0</ele><time>2026-05-01T14:33:02.001Z</time></trkpt><trkpt lat="44.48808656172149" lon="11.31576507520632"><ele>73.0</ele><time>2026-05-01T14:33:03.001Z</time></trkpt><trkpt lat="44.48815066839524" lon="11.31579485707335"><ele>73.0</ele><time>2026-05-01T14:33:04.001Z</time></trkpt><trkpt lat="44.488220496080196" lon="11.315813474280507"><ele>73.0</ele><time>2026-05-01T14:33:05.001Z</time></trkpt><trkpt lat="44.48828231266899" lon="11.315840502952659"><ele>73.5</ele><time>2026-05-01T14:33:06.001Z</time></trkpt><trkpt lat="44.48838253519644" lon="11.315889068791877"><ele>74.0</ele><time>2026-05-01T14:33:08.001Z</time></trkpt><trkpt lat="44.48844478785976" lon="11.315917842930114"><ele>74.5</ele><time>2026-05-01T14:33:10.001Z</time></trkpt><trkpt lat="44.48850272087491" lon="11.3159610483305"><ele>75.0</ele><time>2026-05-01T14:33:14.001Z</time></trkpt><trkpt lat="44.48857862092758" lon="11.315998446033394"><ele>75.5</ele><time>2026-05-01T14:33:50.001Z</time></trkpt><trkpt lat="44.48864643443553" lon="11.316057592438835"><ele>76.0</ele><time>2026-05-01T14:33:52.001Z</time></trkpt><trkpt lat="44.48869050222309" lon="11.316157261594931"><ele>76.0</ele><time>2026-05-01T14:33:54.002Z</time></trkpt><trkpt lat="44.48872809205201" lon="11.3162515277788"><ele>76.0</ele><time>2026-05-01T14:33:56.002Z</time></trkpt><trkpt lat="44.48876146603266" lon="11.316362127999954"><ele>76.0</ele><time>2026-05-01T14:33:59.002Z</time></trkpt><trkpt lat="44.488954459490074" lon="11.3162994769393"><ele>76.0</ele><time>2026-05-01T14:34:07.002Z</time></trkpt><trkpt lat="44.48898260813823" lon="11.316206127468515"><ele>76.0</ele><time>2026-05-01T14:34:20Z</time></trkpt><trkpt lat="44.489024568800104" lon="11.31612104162992"><ele>75.83333333333333</ele><time>2026-05-01T14:34:22Z</time></trkpt><trkpt lat="44.4890790811004" lon="11.316005178754486"><ele>75.66666666666666</ele><time>2026-05-01T14:34:24Z</time></trkpt><trkpt lat="44.48913984529826" lon="11.315874069811011"><ele>75.5</ele><time>2026-05-01T14:34:26Z</time></trkpt><trkpt lat="44.48918138785727" lon="11.31579345931645"><ele>75.33333333333333</ele><time>2026-05-01T14:34:27Z</time></trkpt><trkpt lat="44.48922504714728" lon="11.315707240799751"><ele>75.16666666666667</ele><time>2026-05-01T14:34:28Z</time></trkpt><trkpt lat="44.489268300376935" lon="11.315638166883817"><ele>75.0</ele><time>2026-05-01T14:34:29Z</time></trkpt><trkpt lat="44.489304848565446" lon="11.315565339780642"><ele>76.6</ele><time>2026-05-01T14:34:30Z</time></trkpt><trkpt lat="44.48934751320257" lon="11.31548439640443"><ele>78.2</ele><time>2026-05-01T14:34:31Z</time></trkpt><trkpt lat="44.489433140916745" lon="11.315329910871764"><ele>79.80000000000001</ele><time>2026-05-01T14:34:33Z</time></trkpt><trkpt lat="44.48948448610364" lon="11.315232653152071"><ele>81.4</ele><time>2026-05-01T14:34:34Z</time></trkpt><trkpt lat="44.489534414601806" lon="11.31516478240739"><ele>83.0</ele><time>2026-05-01T14:34:35Z</time></trkpt><trkpt lat="44.489582797094805" lon="11.31505720206335"><ele>82.14285714285714</ele><time>2026-05-01T14:34:36Z</time></trkpt><trkpt lat="44.48962774235294" lon="11.314972552583077"><ele>81.28571428571429</ele><time>2026-05-01T14:34:37Z</time></trkpt><trkpt lat="44.48967038280208" lon="11.314883372183138"><ele>80.42857142857143</ele><time>2026-05-01T14:34:38.001Z</time></trkpt><trkpt lat="44.489704449569544" lon="11.314805108431234"><ele>79.57142857142857</ele><time>2026-05-01T14:34:39.001Z</time></trkpt><trkpt lat="44.48973912623379" lon="11.31472570943278"><ele>78.71428571428572</ele><time>2026-05-01T14:34:40.001Z</time></trkpt><trkpt lat="44.48978972172928" lon="11.314646272547481"><ele>77.85714285714286</ele><time>2026-05-01T14:34:41.001Z</time></trkpt><trkpt lat="44.48983372299685" lon="11.314551545266944"><ele>77.0</ele><time>2026-05-01T14:34:42.001Z</time></trkpt><trkpt lat="44.48987751020738" lon="11.314457220409079"><ele>77.0</ele><time>2026-05-01T14:34:43.001Z</time></trkpt><trkpt lat="44.48993516922188" lon="11.314397982748327"><ele>77.0</ele><time>2026-05-01T14:34:44.001Z</time></trkpt><trkpt lat="44.48998034233855" lon="11.314299722775335"><ele>77.0</ele><time>2026-05-01T14:34:45.001Z</time></trkpt><trkpt lat="44.490010245769206" lon="11.314168294205862"><ele>77.0</ele><time>2026-05-01T14:34:46.001Z</time></trkpt><trkpt lat="44.49002403366346" lon="11.314039445124438"><ele>77.0</ele><time>2026-05-01T14:34:47.001Z</time></trkpt><trkpt lat="44.49002434156505" lon="11.313911945255917"><ele>77.0</ele><time>2026-05-01T14:34:48.001Z</time></trkpt><trkpt lat="44.49001481177424" lon="11.31378560044527"><ele>77.16666666666667</ele><time>2026-05-01T14:34:49.001Z</time></trkpt><trkpt lat="44.49001784791105" lon="11.313665049589718"><ele>77.33333333333334</ele><time>2026-05-01T14:34:50.001Z</time></trkpt><trkpt lat="44.49003102257016" lon="11.313552023628086"><ele>77.5</ele><time>2026-05-01T14:34:51.001Z</time></trkpt><trkpt lat="44.49003135608054" lon="11.31345485804004"><ele>77.66666666666667</ele><time>2026-05-01T14:34:52.001Z</time></trkpt><trkpt lat="44.49003715050048" lon="11.313356125657007"><ele>77.83333333333333</ele><time>2026-05-01T14:34:53.001Z</time></trkpt><trkpt lat="44.49004554518053" lon="11.313257544887707"><ele>78.0</ele><time>2026-05-01T14:34:54.001Z</time></trkpt><trkpt lat="44.49004836129127" lon="11.313157734202354"><ele>77.85714285714286</ele><time>2026-05-01T14:34:55.001Z</time></trkpt><trkpt lat="44.49005435650874" lon="11.313053476305518"><ele>77.71428571428571</ele><time>2026-05-01T14:34:56.001Z</time></trkpt><trkpt lat="44.490077905745814" lon="11.312942722399763"><ele>77.57142857142857</ele><time>2026-05-01T14:34:57.001Z</time></trkpt><trkpt lat="44.49007690691439" lon="11.312837364841924"><ele>77.42857142857143</ele><time>2026-05-01T14:34:58.001Z</time></trkpt><trkpt lat="44.490069237495696" lon="11.312743870578844"><ele>77.28571428571428</ele><time>2026-05-01T14:34:59.001Z</time></trkpt><trkpt lat="44.49006480165611" lon="11.312650577721149"><ele>77.14285714285714</ele><time>2026-05-01T14:35:00.001Z</time></trkpt><trkpt lat="44.490072537574434" lon="11.312562440396832"><ele>77.0</ele><time>2026-05-01T14:35:01.001Z</time></trkpt><trkpt lat="44.49008574518093" lon="11.312401475023968"><ele>77.0</ele><time>2026-05-01T14:35:03.001Z</time></trkpt><trkpt lat="44.490086686933445" lon="11.312265837212738"><ele>77.0</ele><time>2026-05-01T14:35:05.001Z</time></trkpt><trkpt lat="44.490109362849005" lon="11.312154792113711"><ele>77.0</ele><time>2026-05-01T14:35:07.001Z</time></trkpt><trkpt lat="44.49010553767512" lon="11.31206126675621"><ele>77.0</ele><time>2026-05-01T14:35:10.001Z</time></trkpt><trkpt lat="44.49007393242164" lon="11.311961391711296"><ele>77.0</ele><time>2026-05-01T14:35:45.002Z</time></trkpt><trkpt lat="44.49007562364245" lon="11.31186481965973"><ele>77.0</ele><time>2026-05-01T14:35:48.002Z</time></trkpt><trkpt lat="44.490077329454394" lon="11.311771363037353"><ele>76.5</ele><time>2026-05-01T14:35:51.002Z</time></trkpt><trkpt lat="44.490107448791974" lon="11.311655973547452"><ele>76.0</ele><time>2026-05-01T14:35:55.002Z</time></trkpt><trkpt lat="44.49017597637825" lon="11.311615242594355"><ele>75.5</ele><time>2026-05-01T14:35:57.002Z</time></trkpt><trkpt lat="44.49028681073039" lon="11.311601130495209"><ele>75.0</ele><time>2026-05-01T14:35:59.002Z</time></trkpt><trkpt lat="44.49036814956317" lon="11.3116305324929"><ele>74.5</ele><time>2026-05-01T14:36:01.002Z</time></trkpt><trkpt lat="44.49043609469217" lon="11.311696924085638"><ele>74.0</ele><time>2026-05-01T14:36:03.002Z</time></trkpt><trkpt lat="44.490531170225296" lon="11.311730801182405"><ele>73.2</ele><time>2026-05-01T14:36:05.002Z</time></trkpt><trkpt lat="44.49059027906796" lon="11.31176299930044"><ele>72.4</ele><time>2026-05-01T14:36:06.002Z</time></trkpt><trkpt lat="44.49068884883447" lon="11.311831526985303"><ele>71.6</ele><time>2026-05-01T14:36:08.002Z</time></trkpt><trkpt lat="44.490784434394214" lon="11.311889559708609"><ele>70.8</ele><time>2026-05-01T14:36:10.002Z</time></trkpt><trkpt lat="44.49085665962767" lon="11.31193694736715"><ele>70.0</ele><time>2026-05-01T14:36:12.002Z</time></trkpt><trkpt lat="44.49094804568899" lon="11.31200285344758"><ele>70.0</ele><time>2026-05-01T14:36:14.002Z</time></trkpt><trkpt lat="44.49100608569419" lon="11.312043962170163"><ele>70.0</ele><time>2026-05-01T14:36:15.002Z</time></trkpt><trkpt lat="44.49107373991773" lon="11.312069019705984"><ele>70.0</ele><time>2026-05-01T14:36:16.002Z</time></trkpt><trkpt lat="44.491137576007326" lon="11.312129902674547"><ele>70.0</ele><time>2026-05-01T14:36:17.002Z</time></trkpt><trkpt lat="44.49124044181777" lon="11.312192094855614"><ele>70.0</ele><time>2026-05-01T14:36:19.001Z</time></trkpt><trkpt lat="44.491331475023195" lon="11.312253055721332"><ele>70.0</ele><time>2026-05-01T14:36:21.001Z</time></trkpt><trkpt lat="44.49140437653014" lon="11.312292246864821"><ele>69.83333333333333</ele><time>2026-05-01T14:36:23.001Z</time></trkpt><trkpt lat="44.49146661214664" lon="11.312331320039238"><ele>69.66666666666666</ele><time>2026-05-01T14:36:27.001Z</time></trkpt><trkpt lat="44.491538106022674" lon="11.31237673521059"><ele>69.5</ele><time>2026-05-01T14:37:18.001Z</time></trkpt><trkpt lat="44.491634141942555" lon="11.312437968990986"><ele>69.33333333333333</ele><time>2026-05-01T14:37:21.001Z</time></trkpt><trkpt lat="44.491725492156164" lon="11.312496293254991"><ele>69.16666666666667</ele><time>2026-05-01T14:37:23.001Z</time></trkpt><trkpt lat="44.491812524794504" lon="11.312551860890762"><ele>69.0</ele><time>2026-05-01T14:37:25.001Z</time></trkpt><trkpt lat="44.4919105718736" lon="11.31259058636608"><ele>69.0</ele><time>2026-05-01T14:37:26.001Z</time></trkpt><trkpt lat="44.49198995195002" lon="11.312651166964306"><ele>69.0</ele><time>2026-05-01T14:37:27.001Z</time></trkpt><trkpt lat="44.49207825552982" lon="11.312716788623652"><ele>69.0</ele><time>2026-05-01T14:37:28.001Z</time></trkpt><trkpt lat="44.49216964852496" lon="11.312768856582668"><ele>69.0</ele><time>2026-05-01T14:37:29.001Z</time></trkpt><trkpt lat="44.49225933924111" lon="11.312821778614461"><ele>69.0</ele><time>2026-05-01T14:37:30.001Z</time></trkpt><trkpt lat="44.492355870595915" lon="11.312872360730658"><ele>68.0</ele><time>2026-05-01T14:37:31.001Z</time></trkpt><trkpt lat="44.49245928852897" lon="11.312938613552141"><ele>67.0</ele><time>2026-05-01T14:37:32.001Z</time></trkpt><trkpt lat="44.492544258719896" lon="11.313027726323194"><ele>66.0</ele><time>2026-05-01T14:37:33.001Z</time></trkpt><trkpt lat="44.49262476664924" lon="11.313076238548176"><ele>65.0</ele><time>2026-05-01T14:37:34.001Z</time></trkpt><trkpt lat="44.49272005628247" lon="11.313140215707834"><ele>64.0</ele><time>2026-05-01T14:37:35.001Z</time></trkpt><trkpt lat="44.49281337067114" lon="11.313180987660063"><ele>63.99999999999999</ele><time>2026-05-01T14:37:36.001Z</time></trkpt><trkpt lat="44.49290236978708" lon="11.313218355346867"><ele>64.0</ele><time>2026-05-01T14:37:37.001Z</time></trkpt><trkpt lat="44.49297785328295" lon="11.313271120046034"><ele>64.0</ele><time>2026-05-01T14:37:38.001Z</time></trkpt><trkpt lat="44.493036560524786" lon="11.313350586535046"><ele>64.0</ele><time>2026-05-01T14:37:39.001Z</time></trkpt><trkpt lat="44.493115049326086" lon="11.313389046363026"><ele>63.99999999999999</ele><time>2026-05-01T14:37:40.001Z</time></trkpt><trkpt lat="44.49320726361126" lon="11.313446610857035"><ele>64.0</ele><time>2026-05-01T14:37:41.001Z</time></trkpt><trkpt lat="44.49329227279391" lon="11.313498899576551"><ele>62.800000000000004</ele><time>2026-05-01T14:37:42.001Z</time></trkpt><trkpt lat="44.49338158091941" lon="11.313541061866736"><ele>61.60000000000001</ele><time>2026-05-01T14:37:43.001Z</time></trkpt><trkpt lat="44.493481171631295" lon="11.313593690942987"><ele>60.4</ele><time>2026-05-01T14:37:44.001Z</time></trkpt><trkpt lat="44.49358579084148" lon="11.313669768932263"><ele>59.2</ele><time>2026-05-01T14:37:45.001Z</time></trkpt><trkpt lat="44.49368291089738" lon="11.313712010694358"><ele>58.0</ele><time>2026-05-01T14:37:46.001Z</time></trkpt><trkpt lat="44.49376584416937" lon="11.313763945901435"><ele>57.99999999999999</ele><time>2026-05-01T14:37:47.001Z</time></trkpt><trkpt lat="44.493855587450604" lon="11.313819777014665"><ele>58.0</ele><time>2026-05-01T14:37:48.002Z</time></trkpt><trkpt lat="44.493946023480596" lon="11.313882393297833"><ele>58.0</ele><time>2026-05-01T14:37:49.002Z</time></trkpt><trkpt lat="44.49402947714602" lon="11.313938221203873"><ele>58.0</ele><time>2026-05-01T14:37:50.002Z</time></trkpt><trkpt lat="44.49409847977225" lon="11.313997343007442"><ele>57.99999999999999</ele><time>2026-05-01T14:37:51.002Z</time></trkpt><trkpt lat="44.49416680520891" lon="11.314045428739911"><ele>58.0</ele><time>2026-05-01T14:37:52.002Z</time></trkpt><trkpt lat="44.49424214612452" lon="11.314087279455606"><ele>58.0</ele><time>2026-05-01T14:37:53.002Z</time></trkpt><trkpt lat="44.49431053330106" lon="11.314130658223325"><ele>58.0</ele><time>2026-05-01T14:37:54.002Z</time></trkpt><trkpt lat="44.49436992728875" lon="11.314198577064328"><ele>58.0</ele><time>2026-05-01T14:37:55.002Z</time></trkpt><trkpt lat="44.494431674954505" lon="11.314268629317112"><ele>58.0</ele><time>2026-05-01T14:37:57.002Z</time></trkpt><trkpt lat="44.49454744451626" lon="11.314391660038563"><ele>58.0</ele><time>2026-05-01T14:37:59.002Z</time></trkpt><trkpt lat="44.49461384651183" lon="11.31452552391322"><ele>58.2</ele><time>2026-05-01T14:38:00.002Z</time></trkpt><trkpt lat="44.49470613322355" lon="11.314578320742216"><ele>58.4</ele><time>2026-05-01T14:38:01.002Z</time></trkpt><trkpt lat="44.494825372438946" lon="11.314478349534886"><ele>58.60000000000001</ele><time>2026-05-01T14:38:02.002Z</time></trkpt><trkpt lat="44.49490812174969" lon="11.314489394202866"><ele>58.800000000000004</ele><time>2026-05-01T14:38:03.002Z</time></trkpt><trkpt lat="44.49497366100479" lon="11.314525325752532"><ele>59.0</ele><time>2026-05-01T14:38:04.002Z</time></trkpt><trkpt lat="44.49506441402813" lon="11.31457685566028"><ele>59.00000000000001</ele><time>2026-05-01T14:38:06.002Z</time></trkpt><trkpt lat="44.49514461298139" lon="11.314613378843575"><ele>59.0</ele><time>2026-05-01T14:38:09.002Z</time></trkpt><trkpt lat="44.49519370959198" lon="11.314682076118526"><ele>59.0</ele><time>2026-05-01T14:38:11.002Z</time></trkpt><trkpt lat="44.49525179518614" lon="11.314718018379411"><ele>59.0</ele><time>2026-05-01T14:38:13.002Z</time></trkpt><trkpt lat="44.49535448849761" lon="11.314781559823217"><ele>59.00000000000001</ele><time>2026-05-01T14:38:15.002Z</time></trkpt><trkpt lat="44.495418822894095" lon="11.31482136683469"><ele>59.0</ele><time>2026-05-01T14:38:16.002Z</time></trkpt><trkpt lat="44.495486106165856" lon="11.314862998243557"><ele>59.400000000000006</ele><time>2026-05-01T14:38:17.002Z</time></trkpt><trkpt lat="44.49555870408363" lon="11.314913291803597"><ele>59.800000000000004</ele><time>2026-05-01T14:38:18.002Z</time></trkpt><trkpt lat="44.49563149267299" lon="11.314957802784951"><ele>60.199999999999996</ele><time>2026-05-01T14:38:19.002Z</time></trkpt><trkpt lat="44.49570080109628" lon="11.31499807050213"><ele>60.599999999999994</ele><time>2026-05-01T14:38:20.002Z</time></trkpt><trkpt lat="44.49581377420957" lon="11.315061727770773"><ele>61.0</ele><time>2026-05-01T14:38:22.002Z</time></trkpt><trkpt lat="44.495904949338744" lon="11.315107597816345"><ele>60.99999999999999</ele><time>2026-05-01T14:38:24Z</time></trkpt><trkpt lat="44.49600539285157" lon="11.315189479689606"><ele>61.0</ele><time>2026-05-01T14:38:26Z</time></trkpt><trkpt lat="44.496099796088416" lon="11.315251043238774"><ele>61.0</ele><time>2026-05-01T14:38:28Z</time></trkpt><trkpt lat="44.49616820614136" lon="11.315305127974616"><ele>61.0</ele><time>2026-05-01T14:38:30Z</time></trkpt><trkpt lat="44.496245673925735" lon="11.315333693958182"><ele>60.99999999999999</ele><time>2026-05-01T14:38:33Z</time></trkpt><trkpt lat="44.49631013350644" lon="11.315370066763348"><ele>61.0</ele><time>2026-05-01T14:38:35Z</time></trkpt><trkpt lat="44.4964563981454" lon="11.315466339854485"><ele>60.99999999999999</ele><time>2026-05-01T14:38:36.999Z</time></trkpt><trkpt lat="44.49653632723982" lon="11.31551651958637"><ele>61.0</ele><time>2026-05-01T14:38:37.999Z</time></trkpt><trkpt lat="44.49661112782097" lon="11.31556069645061"><ele>61.0</ele><time>2026-05-01T14:38:39Z</time></trkpt><trkpt lat="44.49667562408879" lon="11.315610799789496"><ele>61.0</ele><time>2026-05-01T14:38:40Z</time></trkpt><trkpt lat="44.49675356489895" lon="11.31565599206184"><ele>60.99999999999999</ele><time>2026-05-01T14:38:41Z</time></trkpt><trkpt lat="44.496818126014496" lon="11.315696768780725"><ele>61.0</ele><time>2026-05-01T14:38:42Z</time></trkpt><trkpt lat="44.49687689744609" lon="11.315738208491862"><ele>61.0</ele><time>2026-05-01T14:38:43Z</time></trkpt><trkpt lat="44.49698781596419" lon="11.315801909459644"><ele>60.99999999999999</ele><time>2026-05-01T14:38:45Z</time></trkpt><trkpt lat="44.497074754514685" lon="11.315850676774456"><ele>60.99999999999999</ele><time>2026-05-01T14:38:47Z</time></trkpt><trkpt lat="44.49713876869804" lon="11.315896618935954"><ele>61.0</ele><time>2026-05-01T14:38:49Z</time></trkpt><trkpt lat="44.49721876789375" lon="11.315965417216121"><ele>61.0</ele><time>2026-05-01T14:39:50.001Z</time></trkpt><trkpt lat="44.497323499627385" lon="11.316032357977212"><ele>59.666666666666664</ele><time>2026-05-01T14:39:52.001Z</time></trkpt><trkpt lat="44.49738472826939" lon="11.316071493092863"><ele>58.33333333333333</ele><time>2026-05-01T14:39:53.001Z</time></trkpt><trkpt lat="44.497460961606386" lon="11.31612021861245"><ele>57.0</ele><time>2026-05-01T14:39:54.001Z</time></trkpt><trkpt lat="44.49752113548751" lon="11.316159120954593"><ele>55.66666666666667</ele><time>2026-05-01T14:39:55.001Z</time></trkpt><trkpt lat="44.49758981268171" lon="11.316180049745052"><ele>54.333333333333336</ele><time>2026-05-01T14:39:56.001Z</time></trkpt><trkpt lat="44.49769991240644" lon="11.316266452658555"><ele>53.0</ele><time>2026-05-01T14:39:58.001Z</time></trkpt><trkpt lat="44.49776062720044" lon="11.316299340315428"><ele>53.0</ele><time>2026-05-01T14:39:59.001Z</time></trkpt><trkpt lat="44.49783329541211" lon="11.316341378294986"><ele>53.0</ele><time>2026-05-01T14:40:00.001Z</time></trkpt><trkpt lat="44.49790819369848" lon="11.31639046446917"><ele>53.0</ele><time>2026-05-01T14:40:01.001Z</time></trkpt><trkpt lat="44.49797320078143" lon="11.316434329311544"><ele>51.0</ele><time>2026-05-01T14:40:02.001Z</time></trkpt><trkpt lat="44.49807150105188" lon="11.316498932160359"><ele>51.0</ele><time>2026-05-01T14:40:04.001Z</time></trkpt></trkseg></trk></gpx>